<?xml version="1.0" encoding="UTF-8" standalone="no" ?>
<gpx xmlns="http://www.topografix.com/GPX/1/1" xmlns:xsi="http://www.w3.org/2001/XMLSchema-instance" xsi:schemaLocation="http://www.topografix.com/GPX/1/1 http://www.topografix.com/GPX/1/1/gpx.xsd" version="1.1" creator="VisuGPX - https://www.visugpx.com">
  <metadata>
    <name>SoulainesAubance</name>
    <desc><![CDATA[TCm0CnLFMc gnerando idor: 18813754_20883968_20884331_]]></desc>
  </metadata>
  <trk>
    <name><![CDATA[L'Aubence et ses coteaux-18813754_21km]]></name>
    <extensions>
      <line xmlns="http://www.topografix.com/GPX/gpx_style/0/2">
        <color>00FF00</color>
        <opacity>0.75</opacity>
        <width>8</width>
      </line>
    </extensions>
    <trkseg>
      <trkpt lat="47.36423" lon="-0.52304">
        <ele>53</ele>
        <time>2025-03-13T19:14:36Z</time>
      </trkpt>
      <trkpt lat="47.36415" lon="-0.52303">
        <ele>53</ele>
        <time>2025-03-13T19:14:42Z</time>
      </trkpt>
      <trkpt lat="47.3641" lon="-0.52325">
        <ele>53</ele>
        <time>2025-03-13T19:14:55Z</time>
      </trkpt>
      <trkpt lat="47.36408" lon="-0.52344">
        <ele>54</ele>
        <time>2025-03-13T19:15:05Z</time>
      </trkpt>
      <trkpt lat="47.36411" lon="-0.52385">
        <ele>54</ele>
        <time>2025-03-13T19:15:28Z</time>
      </trkpt>
      <trkpt lat="47.3644" lon="-0.52468">
        <ele>56</ele>
        <time>2025-03-13T19:16:18Z</time>
      </trkpt>
      <trkpt lat="47.36446" lon="-0.52479">
        <ele>56</ele>
        <time>2025-03-13T19:16:26Z</time>
      </trkpt>
      <trkpt lat="47.36449" lon="-0.52485">
        <ele>56</ele>
        <time>2025-03-13T19:16:30Z</time>
      </trkpt>
      <trkpt lat="47.36408" lon="-0.5251">
        <ele>54</ele>
        <time>2025-03-13T19:17:06Z</time>
      </trkpt>
      <trkpt lat="47.36375" lon="-0.52522">
        <ele>53</ele>
        <time>2025-03-13T19:17:33Z</time>
      </trkpt>
      <trkpt lat="47.36329" lon="-0.52517">
        <ele>52</ele>
        <time>2025-03-13T19:18:10Z</time>
      </trkpt>
      <trkpt lat="47.36245" lon="-0.52496">
        <ele>50</ele>
        <time>2025-03-13T19:19:18Z</time>
      </trkpt>
      <trkpt lat="47.3624" lon="-0.52497">
        <ele>50</ele>
        <time>2025-03-13T19:19:22Z</time>
      </trkpt>
      <trkpt lat="47.36245" lon="-0.52496">
        <ele>50</ele>
        <time>2025-03-13T19:19:26Z</time>
      </trkpt>
      <trkpt lat="47.36224" lon="-0.52566">
        <ele>51</ele>
        <time>2025-03-13T19:20:08Z</time>
      </trkpt>
      <trkpt lat="47.36215" lon="-0.52601">
        <ele>52</ele>
        <time>2025-03-13T19:20:28Z</time>
      </trkpt>
      <trkpt lat="47.36187" lon="-0.5269">
        <ele>54</ele>
        <time>2025-03-13T19:21:21Z</time>
      </trkpt>
      <trkpt lat="47.36093" lon="-0.52939">
        <ele>65</ele>
        <time>2025-03-13T19:23:56Z</time>
      </trkpt>
      <trkpt lat="47.36084" lon="-0.52983">
        <ele>66</ele>
        <time>2025-03-13T19:24:21Z</time>
      </trkpt>
      <trkpt lat="47.36071" lon="-0.53076">
        <ele>71</ele>
        <time>2025-03-13T19:25:12Z</time>
      </trkpt>
      <trkpt lat="47.36062" lon="-0.53121">
        <ele>73</ele>
        <time>2025-03-13T19:25:38Z</time>
      </trkpt>
      <trkpt lat="47.36044" lon="-0.53193">
        <ele>75</ele>
        <time>2025-03-13T19:26:19Z</time>
      </trkpt>
      <trkpt lat="47.36004" lon="-0.53311">
        <ele>78</ele>
        <time>2025-03-13T19:27:31Z</time>
      </trkpt>
      <trkpt lat="47.35987" lon="-0.53388">
        <ele>80</ele>
        <time>2025-03-13T19:28:15Z</time>
      </trkpt>
      <trkpt lat="47.35986" lon="-0.53388">
        <ele>80</ele>
        <time>2025-03-13T19:28:16Z</time>
      </trkpt>
      <trkpt lat="47.35941" lon="-0.53372">
        <ele>80</ele>
        <time>2025-03-13T19:28:53Z</time>
      </trkpt>
      <trkpt lat="47.35895" lon="-0.5336">
        <ele>80</ele>
        <time>2025-03-13T19:29:30Z</time>
      </trkpt>
      <trkpt lat="47.35825" lon="-0.53331">
        <ele>80</ele>
        <time>2025-03-13T19:30:28Z</time>
      </trkpt>
      <trkpt lat="47.35763" lon="-0.53308">
        <ele>78</ele>
        <time>2025-03-13T19:31:19Z</time>
      </trkpt>
      <trkpt lat="47.35705" lon="-0.53296">
        <ele>79</ele>
        <time>2025-03-13T19:32:06Z</time>
      </trkpt>
      <trkpt lat="47.35675" lon="-0.53293">
        <ele>79</ele>
        <time>2025-03-13T19:32:30Z</time>
      </trkpt>
      <trkpt lat="47.35617" lon="-0.53278">
        <ele>80</ele>
        <time>2025-03-13T19:33:18Z</time>
      </trkpt>
      <trkpt lat="47.35579" lon="-0.53258">
        <ele>81</ele>
        <time>2025-03-13T19:33:50Z</time>
      </trkpt>
      <trkpt lat="47.35532" lon="-0.53229">
        <ele>81</ele>
        <time>2025-03-13T19:34:31Z</time>
      </trkpt>
      <trkpt lat="47.35494" lon="-0.53213">
        <ele>80</ele>
        <time>2025-03-13T19:35:02Z</time>
      </trkpt>
      <trkpt lat="47.35491" lon="-0.53208">
        <ele>80</ele>
        <time>2025-03-13T19:35:06Z</time>
      </trkpt>
      <trkpt lat="47.35443" lon="-0.5319">
        <ele>79</ele>
        <time>2025-03-13T19:35:46Z</time>
      </trkpt>
      <trkpt lat="47.35372" lon="-0.53177">
        <ele>79</ele>
        <time>2025-03-13T19:36:43Z</time>
      </trkpt>
      <trkpt lat="47.35294" lon="-0.53157">
        <ele>79</ele>
        <time>2025-03-13T19:37:46Z</time>
      </trkpt>
      <trkpt lat="47.35227" lon="-0.5313">
        <ele>79</ele>
        <time>2025-03-13T19:38:42Z</time>
      </trkpt>
      <trkpt lat="47.35185" lon="-0.53102">
        <ele>78</ele>
        <time>2025-03-13T19:39:19Z</time>
      </trkpt>
      <trkpt lat="47.35133" lon="-0.53051">
        <ele>77</ele>
        <time>2025-03-13T19:40:09Z</time>
      </trkpt>
      <trkpt lat="47.3513" lon="-0.53049">
        <ele>77</ele>
        <time>2025-03-13T19:40:11Z</time>
      </trkpt>
      <trkpt lat="47.35048" lon="-0.53191">
        <ele>76</ele>
        <time>2025-03-13T19:41:53Z</time>
      </trkpt>
      <trkpt lat="47.34989" lon="-0.53274">
        <ele>76</ele>
        <time>2025-03-13T19:42:58Z</time>
      </trkpt>
      <trkpt lat="47.34935" lon="-0.53382">
        <ele>77</ele>
        <time>2025-03-13T19:44:11Z</time>
      </trkpt>
      <trkpt lat="47.34892" lon="-0.53448">
        <ele>78</ele>
        <time>2025-03-13T19:45:00Z</time>
      </trkpt>
      <trkpt lat="47.34776" lon="-0.53582">
        <ele>79</ele>
        <time>2025-03-13T19:46:58Z</time>
      </trkpt>
      <trkpt lat="47.3474" lon="-0.53628">
        <ele>80</ele>
        <time>2025-03-13T19:47:36Z</time>
      </trkpt>
      <trkpt lat="47.34626" lon="-0.53818">
        <ele>82</ele>
        <time>2025-03-13T19:49:54Z</time>
      </trkpt>
      <trkpt lat="47.34602" lon="-0.53845">
        <ele>83</ele>
        <time>2025-03-13T19:50:18Z</time>
      </trkpt>
      <trkpt lat="47.34574" lon="-0.53856">
        <ele>83</ele>
        <time>2025-03-13T19:50:41Z</time>
      </trkpt>
      <trkpt lat="47.34571" lon="-0.5386">
        <ele>83</ele>
        <time>2025-03-13T19:50:45Z</time>
      </trkpt>
      <trkpt lat="47.34556" lon="-0.53862">
        <ele>83</ele>
        <time>2025-03-13T19:50:57Z</time>
      </trkpt>
      <trkpt lat="47.34519" lon="-0.53889">
        <ele>84</ele>
        <time>2025-03-13T19:51:30Z</time>
      </trkpt>
      <trkpt lat="47.34464" lon="-0.53948">
        <ele>85</ele>
        <time>2025-03-13T19:52:24Z</time>
      </trkpt>
      <trkpt lat="47.34447" lon="-0.53961">
        <ele>85</ele>
        <time>2025-03-13T19:52:40Z</time>
      </trkpt>
      <trkpt lat="47.34346" lon="-0.5402">
        <ele>87</ele>
        <time>2025-03-13T19:54:07Z</time>
      </trkpt>
      <trkpt lat="47.34342" lon="-0.54017">
        <ele>87</ele>
        <time>2025-03-13T19:54:10Z</time>
      </trkpt>
      <trkpt lat="47.3429" lon="-0.53974">
        <ele>87</ele>
        <time>2025-03-13T19:54:58Z</time>
      </trkpt>
      <trkpt lat="47.34258" lon="-0.53938">
        <ele>87</ele>
        <time>2025-03-13T19:55:30Z</time>
      </trkpt>
      <trkpt lat="47.34231" lon="-0.53898">
        <ele>87</ele>
        <time>2025-03-13T19:56:01Z</time>
      </trkpt>
      <trkpt lat="47.34191" lon="-0.53869">
        <ele>88</ele>
        <time>2025-03-13T19:56:36Z</time>
      </trkpt>
      <trkpt lat="47.34135" lon="-0.53835">
        <ele>88</ele>
        <time>2025-03-13T19:57:25Z</time>
      </trkpt>
      <trkpt lat="47.3405" lon="-0.53792">
        <ele>89</ele>
        <time>2025-03-13T19:58:37Z</time>
      </trkpt>
      <trkpt lat="47.34012" lon="-0.53769">
        <ele>90</ele>
        <time>2025-03-13T19:59:10Z</time>
      </trkpt>
      <trkpt lat="47.33989" lon="-0.53745">
        <ele>90</ele>
        <time>2025-03-13T19:59:32Z</time>
      </trkpt>
      <trkpt lat="47.33963" lon="-0.53703">
        <ele>91</ele>
        <time>2025-03-13T20:00:03Z</time>
      </trkpt>
      <trkpt lat="47.33929" lon="-0.53639">
        <ele>92</ele>
        <time>2025-03-13T20:00:47Z</time>
      </trkpt>
      <trkpt lat="47.33905" lon="-0.53568">
        <ele>92</ele>
        <time>2025-03-13T20:01:30Z</time>
      </trkpt>
      <trkpt lat="47.33905" lon="-0.53567">
        <ele>92</ele>
        <time>2025-03-13T20:01:31Z</time>
      </trkpt>
      <trkpt lat="47.33812" lon="-0.53601">
        <ele>94</ele>
        <time>2025-03-13T20:02:48Z</time>
      </trkpt>
      <trkpt lat="47.338" lon="-0.53608">
        <ele>94</ele>
        <time>2025-03-13T20:02:58Z</time>
      </trkpt>
      <trkpt lat="47.338" lon="-0.53606">
        <ele>94</ele>
        <time>2025-03-13T20:02:59Z</time>
      </trkpt>
      <trkpt lat="47.33791" lon="-0.53583">
        <ele>94</ele>
        <time>2025-03-13T20:03:13Z</time>
      </trkpt>
      <trkpt lat="47.33788" lon="-0.53566">
        <ele>94</ele>
        <time>2025-03-13T20:03:23Z</time>
      </trkpt>
      <trkpt lat="47.33786" lon="-0.53504">
        <ele>94</ele>
        <time>2025-03-13T20:03:57Z</time>
      </trkpt>
      <trkpt lat="47.33795" lon="-0.53446">
        <ele>94</ele>
        <time>2025-03-13T20:04:29Z</time>
      </trkpt>
      <trkpt lat="47.33809" lon="-0.53414">
        <ele>94</ele>
        <time>2025-03-13T20:04:50Z</time>
      </trkpt>
      <trkpt lat="47.33821" lon="-0.5338">
        <ele>94</ele>
        <time>2025-03-13T20:05:10Z</time>
      </trkpt>
      <trkpt lat="47.33823" lon="-0.53337">
        <ele>93</ele>
        <time>2025-03-13T20:05:34Z</time>
      </trkpt>
      <trkpt lat="47.33826" lon="-0.53249">
        <ele>92</ele>
        <time>2025-03-13T20:06:22Z</time>
      </trkpt>
      <trkpt lat="47.33833" lon="-0.53144">
        <ele>95</ele>
        <time>2025-03-13T20:07:19Z</time>
      </trkpt>
      <trkpt lat="47.33826" lon="-0.53073">
        <ele>94</ele>
        <time>2025-03-13T20:07:58Z</time>
      </trkpt>
      <trkpt lat="47.33825" lon="-0.5307">
        <ele>94</ele>
        <time>2025-03-13T20:08:00Z</time>
      </trkpt>
      <trkpt lat="47.33775" lon="-0.53087">
        <ele>96</ele>
        <time>2025-03-13T20:08:41Z</time>
      </trkpt>
      <trkpt lat="47.33755" lon="-0.53102">
        <ele>97</ele>
        <time>2025-03-13T20:08:59Z</time>
      </trkpt>
      <trkpt lat="47.33743" lon="-0.53098">
        <ele>97</ele>
        <time>2025-03-13T20:09:08Z</time>
      </trkpt>
      <trkpt lat="47.33732" lon="-0.53101">
        <ele>98</ele>
        <time>2025-03-13T20:09:17Z</time>
      </trkpt>
      <trkpt lat="47.33704" lon="-0.53103">
        <ele>98</ele>
        <time>2025-03-13T20:09:40Z</time>
      </trkpt>
      <trkpt lat="47.33669" lon="-0.53122">
        <ele>98</ele>
        <time>2025-03-13T20:10:10Z</time>
      </trkpt>
      <trkpt lat="47.33633" lon="-0.53164">
        <ele>98</ele>
        <time>2025-03-13T20:10:46Z</time>
      </trkpt>
      <trkpt lat="47.33633" lon="-0.53164">
        <ele>98</ele>
        <time>2025-03-13T20:10:46Z</time>
      </trkpt>
      <trkpt lat="47.33633" lon="-0.53164">
        <ele>98</ele>
        <time>2025-03-13T20:10:46Z</time>
      </trkpt>
      <trkpt lat="47.3364" lon="-0.53078">
        <ele>97</ele>
        <time>2025-03-13T20:11:33Z</time>
      </trkpt>
      <trkpt lat="47.33645" lon="-0.52987">
        <ele>94</ele>
        <time>2025-03-13T20:12:23Z</time>
      </trkpt>
      <trkpt lat="47.33641" lon="-0.52902">
        <ele>91</ele>
        <time>2025-03-13T20:13:09Z</time>
      </trkpt>
      <trkpt lat="47.3363" lon="-0.52871">
        <ele>91</ele>
        <time>2025-03-13T20:13:28Z</time>
      </trkpt>
      <trkpt lat="47.33608" lon="-0.52853">
        <ele>91</ele>
        <time>2025-03-13T20:13:48Z</time>
      </trkpt>
      <trkpt lat="47.33594" lon="-0.5282">
        <ele>91</ele>
        <time>2025-03-13T20:14:09Z</time>
      </trkpt>
      <trkpt lat="47.3359" lon="-0.52753">
        <ele>90</ele>
        <time>2025-03-13T20:14:46Z</time>
      </trkpt>
      <trkpt lat="47.33597" lon="-0.52709">
        <ele>89</ele>
        <time>2025-03-13T20:15:10Z</time>
      </trkpt>
      <trkpt lat="47.3362" lon="-0.52599">
        <ele>86</ele>
        <time>2025-03-13T20:16:13Z</time>
      </trkpt>
      <trkpt lat="47.33627" lon="-0.52585">
        <ele>86</ele>
        <time>2025-03-13T20:16:22Z</time>
      </trkpt>
      <trkpt lat="47.33706" lon="-0.52496">
        <ele>86</ele>
        <time>2025-03-13T20:17:42Z</time>
      </trkpt>
      <trkpt lat="47.33744" lon="-0.52431">
        <ele>88</ele>
        <time>2025-03-13T20:18:29Z</time>
      </trkpt>
      <trkpt lat="47.33782" lon="-0.52384">
        <ele>89</ele>
        <time>2025-03-13T20:19:08Z</time>
      </trkpt>
      <trkpt lat="47.33805" lon="-0.5237">
        <ele>89</ele>
        <time>2025-03-13T20:19:28Z</time>
      </trkpt>
      <trkpt lat="47.33822" lon="-0.52357">
        <ele>89</ele>
        <time>2025-03-13T20:19:43Z</time>
      </trkpt>
      <trkpt lat="47.33845" lon="-0.5233">
        <ele>90</ele>
        <time>2025-03-13T20:20:07Z</time>
      </trkpt>
      <trkpt lat="47.33856" lon="-0.52312">
        <ele>90</ele>
        <time>2025-03-13T20:20:20Z</time>
      </trkpt>
      <trkpt lat="47.33854" lon="-0.52315">
        <ele>90</ele>
        <time>2025-03-13T20:20:22Z</time>
      </trkpt>
      <trkpt lat="47.33585" lon="-0.51897">
        <ele>81</ele>
        <time>2025-03-13T20:25:35Z</time>
      </trkpt>
      <trkpt lat="47.33561" lon="-0.51871">
        <ele>80</ele>
        <time>2025-03-13T20:25:59Z</time>
      </trkpt>
      <trkpt lat="47.33547" lon="-0.51861">
        <ele>79</ele>
        <time>2025-03-13T20:26:12Z</time>
      </trkpt>
      <trkpt lat="47.33512" lon="-0.51846">
        <ele>78</ele>
        <time>2025-03-13T20:26:41Z</time>
      </trkpt>
      <trkpt lat="47.33513" lon="-0.51844">
        <ele>78</ele>
        <time>2025-03-13T20:26:42Z</time>
      </trkpt>
      <trkpt lat="47.33565" lon="-0.51713">
        <ele>78</ele>
        <time>2025-03-13T20:28:04Z</time>
      </trkpt>
      <trkpt lat="47.33573" lon="-0.5171">
        <ele>78</ele>
        <time>2025-03-13T20:28:11Z</time>
      </trkpt>
      <trkpt lat="47.33585" lon="-0.51651">
        <ele>77</ele>
        <time>2025-03-13T20:28:44Z</time>
      </trkpt>
      <trkpt lat="47.33601" lon="-0.51532">
        <ele>76</ele>
        <time>2025-03-13T20:29:50Z</time>
      </trkpt>
      <trkpt lat="47.33621" lon="-0.51467">
        <ele>76</ele>
        <time>2025-03-13T20:30:29Z</time>
      </trkpt>
      <trkpt lat="47.33653" lon="-0.5141">
        <ele>76</ele>
        <time>2025-03-13T20:31:09Z</time>
      </trkpt>
      <trkpt lat="47.33694" lon="-0.51354">
        <ele>79</ele>
        <time>2025-03-13T20:31:54Z</time>
      </trkpt>
      <trkpt lat="47.33699" lon="-0.51342">
        <ele>80</ele>
        <time>2025-03-13T20:32:02Z</time>
      </trkpt>
      <trkpt lat="47.33702" lon="-0.51314">
        <ele>80</ele>
        <time>2025-03-13T20:32:17Z</time>
      </trkpt>
      <trkpt lat="47.33706" lon="-0.51302">
        <ele>80</ele>
        <time>2025-03-13T20:32:24Z</time>
      </trkpt>
      <trkpt lat="47.33712" lon="-0.51304">
        <ele>80</ele>
        <time>2025-03-13T20:32:29Z</time>
      </trkpt>
      <trkpt lat="47.33731" lon="-0.51291">
        <ele>82</ele>
        <time>2025-03-13T20:32:46Z</time>
      </trkpt>
      <trkpt lat="47.33756" lon="-0.51283">
        <ele>83</ele>
        <time>2025-03-13T20:33:06Z</time>
      </trkpt>
      <trkpt lat="47.33799" lon="-0.51277">
        <ele>84</ele>
        <time>2025-03-13T20:33:41Z</time>
      </trkpt>
      <trkpt lat="47.33843" lon="-0.51249">
        <ele>85</ele>
        <time>2025-03-13T20:34:19Z</time>
      </trkpt>
      <trkpt lat="47.33898" lon="-0.51193">
        <ele>84</ele>
        <time>2025-03-13T20:35:13Z</time>
      </trkpt>
      <trkpt lat="47.33902" lon="-0.51189">
        <ele>84</ele>
        <time>2025-03-13T20:35:17Z</time>
      </trkpt>
      <trkpt lat="47.33911" lon="-0.51207">
        <ele>86.6</ele>
      </trkpt>
      <trkpt lat="47.33916" lon="-0.51215">
        <ele>85</ele>
        <time>2025-03-13T20:35:35Z</time>
      </trkpt>
      <trkpt lat="47.3392" lon="-0.51228">
        <ele>85</ele>
        <time>2025-03-13T20:35:42Z</time>
      </trkpt>
      <trkpt lat="47.34007" lon="-0.51201">
        <ele>84</ele>
        <time>2025-03-13T20:36:54Z</time>
      </trkpt>
      <trkpt lat="47.34046" lon="-0.51186">
        <ele>82</ele>
        <time>2025-03-13T20:37:26Z</time>
      </trkpt>
      <trkpt lat="47.34055" lon="-0.51175">
        <ele>82</ele>
        <time>2025-03-13T20:37:35Z</time>
      </trkpt>
      <trkpt lat="47.34057" lon="-0.51143">
        <ele>81</ele>
        <time>2025-03-13T20:37:53Z</time>
      </trkpt>
      <trkpt lat="47.34077" lon="-0.51076">
        <ele>78</ele>
        <time>2025-03-13T20:38:32Z</time>
      </trkpt>
      <trkpt lat="47.34087" lon="-0.51071">
        <ele>78</ele>
        <time>2025-03-13T20:38:41Z</time>
      </trkpt>
      <trkpt lat="47.3412" lon="-0.51109">
        <ele>78</ele>
        <time>2025-03-13T20:39:14Z</time>
      </trkpt>
      <trkpt lat="47.34189" lon="-0.50985">
        <ele>74</ele>
        <time>2025-03-13T20:40:41Z</time>
      </trkpt>
      <trkpt lat="47.34208" lon="-0.5097">
        <ele>73</ele>
        <time>2025-03-13T20:40:59Z</time>
      </trkpt>
      <trkpt lat="47.34282" lon="-0.50959">
        <ele>71</ele>
        <time>2025-03-13T20:41:58Z</time>
      </trkpt>
      <trkpt lat="47.34407" lon="-0.50956">
        <ele>70</ele>
        <time>2025-03-13T20:43:38Z</time>
      </trkpt>
      <trkpt lat="47.34466" lon="-0.5096">
        <ele>71</ele>
        <time>2025-03-13T20:44:26Z</time>
      </trkpt>
      <trkpt lat="47.34495" lon="-0.50957">
        <ele>71</ele>
        <time>2025-03-13T20:44:49Z</time>
      </trkpt>
      <trkpt lat="47.3452" lon="-0.50925">
        <ele>71</ele>
        <time>2025-03-13T20:45:15Z</time>
      </trkpt>
      <trkpt lat="47.3455" lon="-0.50872">
        <ele>73</ele>
        <time>2025-03-13T20:45:53Z</time>
      </trkpt>
      <trkpt lat="47.34617" lon="-0.50831">
        <ele>71</ele>
        <time>2025-03-13T20:46:51Z</time>
      </trkpt>
      <trkpt lat="47.34627" lon="-0.50818">
        <ele>70</ele>
        <time>2025-03-13T20:47:02Z</time>
      </trkpt>
      <trkpt lat="47.34651" lon="-0.50801">
        <ele>68</ele>
        <time>2025-03-13T20:47:23Z</time>
      </trkpt>
      <trkpt lat="47.34716" lon="-0.50777">
        <ele>68</ele>
        <time>2025-03-13T20:48:17Z</time>
      </trkpt>
      <trkpt lat="47.34731" lon="-0.50777">
        <ele>68</ele>
        <time>2025-03-13T20:48:29Z</time>
      </trkpt>
      <trkpt lat="47.34735" lon="-0.50777">
        <ele>68</ele>
        <time>2025-03-13T20:48:32Z</time>
      </trkpt>
      <trkpt lat="47.34795" lon="-0.50741">
        <ele>68</ele>
        <time>2025-03-13T20:49:24Z</time>
      </trkpt>
      <trkpt lat="47.34821" lon="-0.50718">
        <ele>69</ele>
        <time>2025-03-13T20:49:48Z</time>
      </trkpt>
      <trkpt lat="47.34835" lon="-0.50699">
        <ele>69</ele>
        <time>2025-03-13T20:50:03Z</time>
      </trkpt>
      <trkpt lat="47.3486" lon="-0.50631">
        <ele>67</ele>
        <time>2025-03-13T20:50:45Z</time>
      </trkpt>
      <trkpt lat="47.34878" lon="-0.50598">
        <ele>65</ele>
        <time>2025-03-13T20:51:08Z</time>
      </trkpt>
      <trkpt lat="47.34898" lon="-0.50582">
        <ele>64</ele>
        <time>2025-03-13T20:51:26Z</time>
      </trkpt>
      <trkpt lat="47.34914" lon="-0.50574">
        <ele>64</ele>
        <time>2025-03-13T20:51:40Z</time>
      </trkpt>
      <trkpt lat="47.34935" lon="-0.50555">
        <ele>63</ele>
        <time>2025-03-13T20:52:00Z</time>
      </trkpt>
      <trkpt lat="47.35032" lon="-0.50427">
        <ele>59</ele>
        <time>2025-03-13T20:53:44Z</time>
      </trkpt>
      <trkpt lat="47.3509" lon="-0.50329">
        <ele>59</ele>
        <time>2025-03-13T20:54:54Z</time>
      </trkpt>
      <trkpt lat="47.35102" lon="-0.50316">
        <ele>58</ele>
        <time>2025-03-13T20:55:06Z</time>
      </trkpt>
      <trkpt lat="47.35107" lon="-0.50309">
        <ele>58</ele>
        <time>2025-03-13T20:55:12Z</time>
      </trkpt>
      <trkpt lat="47.35118" lon="-0.50274">
        <ele>58</ele>
        <time>2025-03-13T20:55:33Z</time>
      </trkpt>
      <trkpt lat="47.35126" lon="-0.50254">
        <ele>57</ele>
        <time>2025-03-13T20:55:45Z</time>
      </trkpt>
      <trkpt lat="47.35135" lon="-0.50204">
        <ele>56</ele>
        <time>2025-03-13T20:56:13Z</time>
      </trkpt>
      <trkpt lat="47.35118" lon="-0.50153">
        <ele>54</ele>
        <time>2025-03-13T20:56:44Z</time>
      </trkpt>
      <trkpt lat="47.35117" lon="-0.50067">
        <ele>52</ele>
        <time>2025-03-13T20:57:31Z</time>
      </trkpt>
      <trkpt lat="47.35117" lon="-0.50067">
        <ele>52</ele>
        <time>2025-03-13T20:57:31Z</time>
      </trkpt>
      <trkpt lat="47.35117" lon="-0.50067">
        <ele>52</ele>
        <time>2025-03-13T20:57:31Z</time>
      </trkpt>
      <trkpt lat="47.35099" lon="-0.49938">
        <ele>50</ele>
        <time>2025-03-13T20:58:42Z</time>
      </trkpt>
      <trkpt lat="47.35096" lon="-0.49877">
        <ele>48</ele>
        <time>2025-03-13T20:59:16Z</time>
      </trkpt>
      <trkpt lat="47.35089" lon="-0.49817">
        <ele>47</ele>
        <time>2025-03-13T20:59:49Z</time>
      </trkpt>
      <trkpt lat="47.35092" lon="-0.49807">
        <ele>47</ele>
        <time>2025-03-13T20:59:54Z</time>
      </trkpt>
      <trkpt lat="47.35116" lon="-0.49784">
        <ele>46</ele>
        <time>2025-03-13T21:00:17Z</time>
      </trkpt>
      <trkpt lat="47.35119" lon="-0.49775">
        <ele>46</ele>
        <time>2025-03-13T21:00:23Z</time>
      </trkpt>
      <trkpt lat="47.35103" lon="-0.49718">
        <ele>45</ele>
        <time>2025-03-13T21:00:56Z</time>
      </trkpt>
      <trkpt lat="47.35103" lon="-0.49697">
        <ele>45</ele>
        <time>2025-03-13T21:01:08Z</time>
      </trkpt>
      <trkpt lat="47.35113" lon="-0.49665">
        <ele>45</ele>
        <time>2025-03-13T21:01:27Z</time>
      </trkpt>
      <trkpt lat="47.35116" lon="-0.4966">
        <ele>46</ele>
        <time>2025-03-13T21:01:30Z</time>
      </trkpt>
      <trkpt lat="47.3515" lon="-0.49617">
        <ele>48</ele>
        <time>2025-03-13T21:02:06Z</time>
      </trkpt>
      <trkpt lat="47.35159" lon="-0.49597">
        <ele>49</ele>
        <time>2025-03-13T21:02:19Z</time>
      </trkpt>
      <trkpt lat="47.35163" lon="-0.49566">
        <ele>50</ele>
        <time>2025-03-13T21:02:36Z</time>
      </trkpt>
      <trkpt lat="47.35165" lon="-0.49522">
        <ele>51</ele>
        <time>2025-03-13T21:03:00Z</time>
      </trkpt>
      <trkpt lat="47.35175" lon="-0.49475">
        <ele>54</ele>
        <time>2025-03-13T21:03:27Z</time>
      </trkpt>
      <trkpt lat="47.35196" lon="-0.49428">
        <ele>56</ele>
        <time>2025-03-13T21:03:58Z</time>
      </trkpt>
      <trkpt lat="47.35197" lon="-0.49429">
        <ele>56</ele>
        <time>2025-03-13T21:03:59Z</time>
      </trkpt>
      <trkpt lat="47.35211" lon="-0.4943">
        <ele>56</ele>
        <time>2025-03-13T21:04:10Z</time>
      </trkpt>
      <trkpt lat="47.35229" lon="-0.49424">
        <ele>57</ele>
        <time>2025-03-13T21:04:25Z</time>
      </trkpt>
      <trkpt lat="47.35253" lon="-0.49413">
        <ele>57</ele>
        <time>2025-03-13T21:04:45Z</time>
      </trkpt>
      <trkpt lat="47.35283" lon="-0.49408">
        <ele>53</ele>
        <time>2025-03-13T21:05:09Z</time>
      </trkpt>
      <trkpt lat="47.35341" lon="-0.49403">
        <ele>47</ele>
        <time>2025-03-13T21:05:55Z</time>
      </trkpt>
      <trkpt lat="47.35357" lon="-0.49405">
        <ele>47</ele>
        <time>2025-03-13T21:06:08Z</time>
      </trkpt>
      <trkpt lat="47.35378" lon="-0.49413">
        <ele>46</ele>
        <time>2025-03-13T21:06:26Z</time>
      </trkpt>
      <trkpt lat="47.35399" lon="-0.49439">
        <ele>46</ele>
        <time>2025-03-13T21:06:48Z</time>
      </trkpt>
      <trkpt lat="47.35424" lon="-0.49481">
        <ele>46</ele>
        <time>2025-03-13T21:07:18Z</time>
      </trkpt>
      <trkpt lat="47.35462" lon="-0.4953">
        <ele>46</ele>
        <time>2025-03-13T21:07:58Z</time>
      </trkpt>
      <trkpt lat="47.35463" lon="-0.49532">
        <ele>46</ele>
        <time>2025-03-13T21:08:00Z</time>
      </trkpt>
      <trkpt lat="47.35473" lon="-0.49544">
        <ele>46</ele>
        <time>2025-03-13T21:08:10Z</time>
      </trkpt>
      <trkpt lat="47.35503" lon="-0.49574">
        <ele>46</ele>
        <time>2025-03-13T21:08:39Z</time>
      </trkpt>
      <trkpt lat="47.35529" lon="-0.49603">
        <ele>48</ele>
        <time>2025-03-13T21:09:05Z</time>
      </trkpt>
      <trkpt lat="47.3555" lon="-0.49634">
        <ele>50</ele>
        <time>2025-03-13T21:09:29Z</time>
      </trkpt>
      <trkpt lat="47.35588" lon="-0.49707">
        <ele>56</ele>
        <time>2025-03-13T21:10:19Z</time>
      </trkpt>
      <trkpt lat="47.35634" lon="-0.49764">
        <ele>60</ele>
        <time>2025-03-13T21:11:07Z</time>
      </trkpt>
      <trkpt lat="47.35634" lon="-0.49764">
        <ele>60</ele>
        <time>2025-03-13T21:11:07Z</time>
      </trkpt>
      <trkpt lat="47.35682" lon="-0.49765">
        <ele>61</ele>
        <time>2025-03-13T21:11:45Z</time>
      </trkpt>
      <trkpt lat="47.35703" lon="-0.4976">
        <ele>60</ele>
        <time>2025-03-13T21:12:02Z</time>
      </trkpt>
      <trkpt lat="47.35731" lon="-0.49733">
        <ele>58</ele>
        <time>2025-03-13T21:12:29Z</time>
      </trkpt>
      <trkpt lat="47.35811" lon="-0.49649">
        <ele>54</ele>
        <time>2025-03-13T21:13:48Z</time>
      </trkpt>
      <trkpt lat="47.3589" lon="-0.49562">
        <ele>52</ele>
        <time>2025-03-13T21:15:07Z</time>
      </trkpt>
      <trkpt lat="47.35974" lon="-0.49493">
        <ele>48</ele>
        <time>2025-03-13T21:16:24Z</time>
      </trkpt>
      <trkpt lat="47.35997" lon="-0.4949">
        <ele>47</ele>
        <time>2025-03-13T21:16:42Z</time>
      </trkpt>
      <trkpt lat="47.36023" lon="-0.49475">
        <ele>47</ele>
        <time>2025-03-13T21:17:04Z</time>
      </trkpt>
      <trkpt lat="47.3607" lon="-0.49407">
        <ele>45</ele>
        <time>2025-03-13T21:17:57Z</time>
      </trkpt>
      <trkpt lat="47.36113" lon="-0.49333">
        <ele>45</ele>
        <time>2025-03-13T21:18:50Z</time>
      </trkpt>
      <trkpt lat="47.36112" lon="-0.49332">
        <ele>45</ele>
        <time>2025-03-13T21:18:51Z</time>
      </trkpt>
      <trkpt lat="47.36128" lon="-0.49335">
        <ele>46</ele>
        <time>2025-03-13T21:19:04Z</time>
      </trkpt>
      <trkpt lat="47.36229" lon="-0.49335">
        <ele>50</ele>
        <time>2025-03-13T21:20:25Z</time>
      </trkpt>
      <trkpt lat="47.36252" lon="-0.49339">
        <ele>51</ele>
        <time>2025-03-13T21:20:43Z</time>
      </trkpt>
      <trkpt lat="47.36252" lon="-0.49341">
        <ele>51</ele>
        <time>2025-03-13T21:20:44Z</time>
      </trkpt>
      <trkpt lat="47.36252" lon="-0.49339">
        <ele>51</ele>
        <time>2025-03-13T21:20:45Z</time>
      </trkpt>
      <trkpt lat="47.36322" lon="-0.49072">
        <ele>46</ele>
        <time>2025-03-13T21:23:21Z</time>
      </trkpt>
      <trkpt lat="47.36326" lon="-0.49035">
        <ele>46</ele>
        <time>2025-03-13T21:23:41Z</time>
      </trkpt>
      <trkpt lat="47.36327" lon="-0.48971">
        <ele>46</ele>
        <time>2025-03-13T21:24:16Z</time>
      </trkpt>
      <trkpt lat="47.36332" lon="-0.48946">
        <ele>47</ele>
        <time>2025-03-13T21:24:30Z</time>
      </trkpt>
      <trkpt lat="47.36384" lon="-0.48811">
        <ele>45</ele>
        <time>2025-03-13T21:25:54Z</time>
      </trkpt>
      <trkpt lat="47.36387" lon="-0.48813">
        <ele>45</ele>
        <time>2025-03-13T21:25:57Z</time>
      </trkpt>
      <trkpt lat="47.36437" lon="-0.48848">
        <ele>45</ele>
        <time>2025-03-13T21:26:41Z</time>
      </trkpt>
      <trkpt lat="47.36527" lon="-0.48927">
        <ele>46</ele>
        <time>2025-03-13T21:28:05Z</time>
      </trkpt>
      <trkpt lat="47.36579" lon="-0.48978">
        <ele>45</ele>
        <time>2025-03-13T21:28:55Z</time>
      </trkpt>
      <trkpt lat="47.36659" lon="-0.49034">
        <ele>41</ele>
        <time>2025-03-13T21:30:06Z</time>
      </trkpt>
      <trkpt lat="47.36689" lon="-0.49062">
        <ele>40</ele>
        <time>2025-03-13T21:30:34Z</time>
      </trkpt>
      <trkpt lat="47.36742" lon="-0.49144">
        <ele>40</ele>
        <time>2025-03-13T21:31:36Z</time>
      </trkpt>
      <trkpt lat="47.36754" lon="-0.49155">
        <ele>40</ele>
        <time>2025-03-13T21:31:47Z</time>
      </trkpt>
      <trkpt lat="47.36831" lon="-0.49138">
        <ele>38</ele>
        <time>2025-03-13T21:32:49Z</time>
      </trkpt>
      <trkpt lat="47.36923" lon="-0.49105">
        <ele>37</ele>
        <time>2025-03-13T21:34:05Z</time>
      </trkpt>
      <trkpt lat="47.36928" lon="-0.49103">
        <ele>37</ele>
        <time>2025-03-13T21:34:09Z</time>
      </trkpt>
      <trkpt lat="47.3691" lon="-0.4901">
        <ele>36</ele>
        <time>2025-03-13T21:35:02Z</time>
      </trkpt>
      <trkpt lat="47.37001" lon="-0.4897">
        <ele>36</ele>
        <time>2025-03-13T21:36:18Z</time>
      </trkpt>
      <trkpt lat="47.3699" lon="-0.48906">
        <ele>35</ele>
        <time>2025-03-13T21:36:54Z</time>
      </trkpt>
      <trkpt lat="47.37015" lon="-0.48883">
        <ele>34</ele>
        <time>2025-03-13T21:37:17Z</time>
      </trkpt>
      <trkpt lat="47.3705" lon="-0.48837">
        <ele>34</ele>
        <time>2025-03-13T21:37:55Z</time>
      </trkpt>
      <trkpt lat="47.37071" lon="-0.48819">
        <ele>34</ele>
        <time>2025-03-13T21:38:14Z</time>
      </trkpt>
      <trkpt lat="47.3712" lon="-0.48791">
        <ele>35</ele>
        <time>2025-03-13T21:38:56Z</time>
      </trkpt>
      <trkpt lat="47.37158" lon="-0.48777">
        <ele>34</ele>
        <time>2025-03-13T21:39:28Z</time>
      </trkpt>
      <trkpt lat="47.37182" lon="-0.48779">
        <ele>34</ele>
        <time>2025-03-13T21:39:47Z</time>
      </trkpt>
      <trkpt lat="47.37205" lon="-0.48786">
        <ele>33</ele>
        <time>2025-03-13T21:40:06Z</time>
      </trkpt>
      <trkpt lat="47.37299" lon="-0.48821">
        <ele>32</ele>
        <time>2025-03-13T21:41:23Z</time>
      </trkpt>
      <trkpt lat="47.37302" lon="-0.48823">
        <ele>32</ele>
        <time>2025-03-13T21:41:26Z</time>
      </trkpt>
      <trkpt lat="47.37295" lon="-0.48802">
        <ele>32</ele>
        <time>2025-03-13T21:41:38Z</time>
      </trkpt>
      <trkpt lat="47.37288" lon="-0.48767">
        <ele>31</ele>
        <time>2025-03-13T21:41:58Z</time>
      </trkpt>
      <trkpt lat="47.37286" lon="-0.48745">
        <ele>31</ele>
        <time>2025-03-13T21:42:10Z</time>
      </trkpt>
      <trkpt lat="47.37294" lon="-0.48573">
        <ele>29</ele>
        <time>2025-03-13T21:43:44Z</time>
      </trkpt>
      <trkpt lat="47.37294" lon="-0.48582">
        <ele>29</ele>
        <time>2025-03-13T21:43:49Z</time>
      </trkpt>
      <trkpt lat="47.37395" lon="-0.48532">
        <ele>28</ele>
        <time>2025-03-13T21:45:14Z</time>
      </trkpt>
      <trkpt lat="47.37403" lon="-0.4853">
        <ele>28</ele>
        <time>2025-03-13T21:45:20Z</time>
      </trkpt>
      <trkpt lat="47.37431" lon="-0.48522">
        <ele>29</ele>
        <time>2025-03-13T21:45:43Z</time>
      </trkpt>
      <trkpt lat="47.37446" lon="-0.48514">
        <ele>30</ele>
        <time>2025-03-13T21:45:56Z</time>
      </trkpt>
      <trkpt lat="47.37505" lon="-0.48446">
        <ele>33</ele>
        <time>2025-03-13T21:46:56Z</time>
      </trkpt>
      <trkpt lat="47.37509" lon="-0.48458">
        <ele>33</ele>
        <time>2025-03-13T21:47:03Z</time>
      </trkpt>
      <trkpt lat="47.37642" lon="-0.48819">
        <ele>36</ele>
        <time>2025-03-13T21:50:46Z</time>
      </trkpt>
      <trkpt lat="47.37639" lon="-0.48823">
        <ele>36</ele>
        <time>2025-03-13T21:50:49Z</time>
      </trkpt>
      <trkpt lat="47.3761" lon="-0.48853">
        <ele>35</ele>
        <time>2025-03-13T21:51:18Z</time>
      </trkpt>
      <trkpt lat="47.37573" lon="-0.48875">
        <ele>34</ele>
        <time>2025-03-13T21:51:50Z</time>
      </trkpt>
      <trkpt lat="47.37497" lon="-0.48907">
        <ele>30</ele>
        <time>2025-03-13T21:52:53Z</time>
      </trkpt>
      <trkpt lat="47.37499" lon="-0.48917">
        <ele>30</ele>
        <time>2025-03-13T21:52:59Z</time>
      </trkpt>
      <trkpt lat="47.37501" lon="-0.48929">
        <ele>30</ele>
        <time>2025-03-13T21:53:05Z</time>
      </trkpt>
      <trkpt lat="47.37503" lon="-0.48967">
        <ele>30</ele>
        <time>2025-03-13T21:53:26Z</time>
      </trkpt>
      <trkpt lat="47.37515" lon="-0.49013">
        <ele>31</ele>
        <time>2025-03-13T21:53:53Z</time>
      </trkpt>
      <trkpt lat="47.37518" lon="-0.4903">
        <ele>32</ele>
        <time>2025-03-13T21:54:02Z</time>
      </trkpt>
      <trkpt lat="47.37516" lon="-0.49052">
        <ele>32</ele>
        <time>2025-03-13T21:54:14Z</time>
      </trkpt>
      <trkpt lat="47.3751" lon="-0.49083">
        <ele>32</ele>
        <time>2025-03-13T21:54:32Z</time>
      </trkpt>
      <trkpt lat="47.3749" lon="-0.49131">
        <ele>31</ele>
        <time>2025-03-13T21:55:02Z</time>
      </trkpt>
      <trkpt lat="47.37468" lon="-0.49166">
        <ele>30</ele>
        <time>2025-03-13T21:55:28Z</time>
      </trkpt>
      <trkpt lat="47.37455" lon="-0.49197">
        <ele>29</ele>
        <time>2025-03-13T21:55:48Z</time>
      </trkpt>
      <trkpt lat="47.37446" lon="-0.49224">
        <ele>29</ele>
        <time>2025-03-13T21:56:04Z</time>
      </trkpt>
      <trkpt lat="47.37392" lon="-0.4933">
        <ele>29</ele>
        <time>2025-03-13T21:57:16Z</time>
      </trkpt>
      <trkpt lat="47.37371" lon="-0.49385">
        <ele>30</ele>
        <time>2025-03-13T21:57:50Z</time>
      </trkpt>
      <trkpt lat="47.37354" lon="-0.49455">
        <ele>30</ele>
        <time>2025-03-13T21:58:31Z</time>
      </trkpt>
      <trkpt lat="47.37345" lon="-0.49497">
        <ele>30</ele>
        <time>2025-03-13T21:58:55Z</time>
      </trkpt>
      <trkpt lat="47.37337" lon="-0.4953">
        <ele>29</ele>
        <time>2025-03-13T21:59:14Z</time>
      </trkpt>
      <trkpt lat="47.3733" lon="-0.49603">
        <ele>28</ele>
        <time>2025-03-13T21:59:54Z</time>
      </trkpt>
      <trkpt lat="47.37325" lon="-0.49659">
        <ele>28</ele>
        <time>2025-03-13T22:00:24Z</time>
      </trkpt>
      <trkpt lat="47.37327" lon="-0.49711">
        <ele>27</ele>
        <time>2025-03-13T22:00:52Z</time>
      </trkpt>
      <trkpt lat="47.37324" lon="-0.49718">
        <ele>27</ele>
        <time>2025-03-13T22:00:57Z</time>
      </trkpt>
      <trkpt lat="47.37332" lon="-0.49726">
        <ele>27</ele>
        <time>2025-03-13T22:01:05Z</time>
      </trkpt>
      <trkpt lat="47.37335" lon="-0.49734">
        <ele>27</ele>
        <time>2025-03-13T22:01:10Z</time>
      </trkpt>
      <trkpt lat="47.37365" lon="-0.49814">
        <ele>27</ele>
        <time>2025-03-13T22:01:59Z</time>
      </trkpt>
      <trkpt lat="47.37375" lon="-0.49833">
        <ele>27</ele>
        <time>2025-03-13T22:02:12Z</time>
      </trkpt>
      <trkpt lat="47.3741" lon="-0.49874">
        <ele>27</ele>
        <time>2025-03-13T22:02:48Z</time>
      </trkpt>
      <trkpt lat="47.37415" lon="-0.49868">
        <ele>27</ele>
        <time>2025-03-13T22:02:53Z</time>
      </trkpt>
      <trkpt lat="47.3745" lon="-0.49847">
        <ele>30</ele>
        <time>2025-03-13T22:03:23Z</time>
      </trkpt>
      <trkpt lat="47.37492" lon="-0.49838">
        <ele>32</ele>
        <time>2025-03-13T22:03:57Z</time>
      </trkpt>
      <trkpt lat="47.37561" lon="-0.49809">
        <ele>34</ele>
        <time>2025-03-13T22:04:55Z</time>
      </trkpt>
      <trkpt lat="47.37694" lon="-0.49759">
        <ele>38</ele>
        <time>2025-03-13T22:06:45Z</time>
      </trkpt>
      <trkpt lat="47.37933" lon="-0.49679">
        <ele>41</ele>
        <time>2025-03-13T22:10:01Z</time>
      </trkpt>
      <trkpt lat="47.3795" lon="-0.49675">
        <ele>41</ele>
        <time>2025-03-13T22:10:15Z</time>
      </trkpt>
      <trkpt lat="47.3798" lon="-0.49674">
        <ele>41</ele>
        <time>2025-03-13T22:10:39Z</time>
      </trkpt>
      <trkpt lat="47.38014" lon="-0.49668">
        <ele>41</ele>
        <time>2025-03-13T22:11:06Z</time>
      </trkpt>
      <trkpt lat="47.38014" lon="-0.49677">
        <ele>41</ele>
        <time>2025-03-13T22:11:11Z</time>
      </trkpt>
      <trkpt lat="47.38017" lon="-0.49707">
        <ele>41</ele>
        <time>2025-03-13T22:11:28Z</time>
      </trkpt>
      <trkpt lat="47.38023" lon="-0.49734">
        <ele>41</ele>
        <time>2025-03-13T22:11:43Z</time>
      </trkpt>
      <trkpt lat="47.38042" lon="-0.49799">
        <ele>41</ele>
        <time>2025-03-13T22:12:21Z</time>
      </trkpt>
      <trkpt lat="47.38047" lon="-0.49831">
        <ele>40</ele>
        <time>2025-03-13T22:12:39Z</time>
      </trkpt>
      <trkpt lat="47.38048" lon="-0.49836">
        <ele>40</ele>
        <time>2025-03-13T22:12:42Z</time>
      </trkpt>
      <trkpt lat="47.38103" lon="-0.49825">
        <ele>41</ele>
        <time>2025-03-13T22:13:26Z</time>
      </trkpt>
      <trkpt lat="47.38112" lon="-0.4981">
        <ele>42</ele>
        <time>2025-03-13T22:13:37Z</time>
      </trkpt>
      <trkpt lat="47.3811" lon="-0.49814">
        <ele>42</ele>
        <time>2025-03-13T22:13:40Z</time>
      </trkpt>
      <trkpt lat="47.38125" lon="-0.4983">
        <ele>43</ele>
        <time>2025-03-13T22:13:55Z</time>
      </trkpt>
      <trkpt lat="47.38132" lon="-0.49949">
        <ele>42</ele>
        <time>2025-03-13T22:15:00Z</time>
      </trkpt>
      <trkpt lat="47.38129" lon="-0.49985">
        <ele>42</ele>
        <time>2025-03-13T22:15:19Z</time>
      </trkpt>
      <trkpt lat="47.3813" lon="-0.49973">
        <ele>42</ele>
        <time>2025-03-13T22:15:26Z</time>
      </trkpt>
      <trkpt lat="47.38153" lon="-0.4999">
        <ele>43</ele>
        <time>2025-03-13T22:15:46Z</time>
      </trkpt>
      <trkpt lat="47.38144" lon="-0.50112">
        <ele>44</ele>
        <time>2025-03-13T22:16:53Z</time>
      </trkpt>
      <trkpt lat="47.38317" lon="-0.50137">
        <ele>47</ele>
        <time>2025-03-13T22:19:12Z</time>
      </trkpt>
      <trkpt lat="47.38324" lon="-0.50142">
        <ele>48</ele>
        <time>2025-03-13T22:19:18Z</time>
      </trkpt>
      <trkpt lat="47.38328" lon="-0.50149">
        <ele>48</ele>
        <time>2025-03-13T22:19:23Z</time>
      </trkpt>
      <trkpt lat="47.38335" lon="-0.50144">
        <ele>48</ele>
        <time>2025-03-13T22:19:29Z</time>
      </trkpt>
      <trkpt lat="47.38328" lon="-0.50149">
        <ele>48</ele>
        <time>2025-03-13T22:19:36Z</time>
      </trkpt>
      <trkpt lat="47.38332" lon="-0.50167">
        <ele>48</ele>
        <time>2025-03-13T22:19:46Z</time>
      </trkpt>
      <trkpt lat="47.38331" lon="-0.50237">
        <ele>48</ele>
        <time>2025-03-13T22:20:24Z</time>
      </trkpt>
      <trkpt lat="47.38337" lon="-0.50375">
        <ele>50</ele>
        <time>2025-03-13T22:21:39Z</time>
      </trkpt>
      <trkpt lat="47.38341" lon="-0.504">
        <ele>51</ele>
        <time>2025-03-13T22:21:53Z</time>
      </trkpt>
      <trkpt lat="47.38387" lon="-0.50568">
        <ele>50</ele>
        <time>2025-03-13T22:23:31Z</time>
      </trkpt>
      <trkpt lat="47.38386" lon="-0.50563">
        <ele>50</ele>
        <time>2025-03-13T22:23:34Z</time>
      </trkpt>
      <trkpt lat="47.38365" lon="-0.50611">
        <ele>49</ele>
        <time>2025-03-13T22:24:05Z</time>
      </trkpt>
      <trkpt lat="47.38358" lon="-0.50622">
        <ele>49</ele>
        <time>2025-03-13T22:24:13Z</time>
      </trkpt>
      <trkpt lat="47.38327" lon="-0.50644">
        <ele>48</ele>
        <time>2025-03-13T22:24:41Z</time>
      </trkpt>
      <trkpt lat="47.38312" lon="-0.5065">
        <ele>48</ele>
        <time>2025-03-13T22:24:53Z</time>
      </trkpt>
      <trkpt lat="47.38298" lon="-0.50647">
        <ele>48</ele>
        <time>2025-03-13T22:25:04Z</time>
      </trkpt>
      <trkpt lat="47.38253" lon="-0.50624">
        <ele>48</ele>
        <time>2025-03-13T22:25:42Z</time>
      </trkpt>
      <trkpt lat="47.38236" lon="-0.50621">
        <ele>48</ele>
        <time>2025-03-13T22:25:56Z</time>
      </trkpt>
      <trkpt lat="47.38203" lon="-0.50623">
        <ele>46</ele>
        <time>2025-03-13T22:26:23Z</time>
      </trkpt>
      <trkpt lat="47.38101" lon="-0.5064">
        <ele>42</ele>
        <time>2025-03-13T22:27:45Z</time>
      </trkpt>
      <trkpt lat="47.38082" lon="-0.50657">
        <ele>41</ele>
        <time>2025-03-13T22:28:03Z</time>
      </trkpt>
      <trkpt lat="47.3806" lon="-0.50685">
        <ele>40</ele>
        <time>2025-03-13T22:28:26Z</time>
      </trkpt>
      <trkpt lat="47.38063" lon="-0.5069">
        <ele>40</ele>
        <time>2025-03-13T22:28:29Z</time>
      </trkpt>
      <trkpt lat="47.3807" lon="-0.50724">
        <ele>40</ele>
        <time>2025-03-13T22:28:49Z</time>
      </trkpt>
      <trkpt lat="47.38073" lon="-0.50793">
        <ele>40</ele>
        <time>2025-03-13T22:29:26Z</time>
      </trkpt>
      <trkpt lat="47.38069" lon="-0.50847">
        <ele>42</ele>
        <time>2025-03-13T22:29:56Z</time>
      </trkpt>
      <trkpt lat="47.38059" lon="-0.50866">
        <ele>43</ele>
        <time>2025-03-13T22:30:09Z</time>
      </trkpt>
      <trkpt lat="47.38054" lon="-0.50945">
        <ele>47</ele>
        <time>2025-03-13T22:30:52Z</time>
      </trkpt>
      <trkpt lat="47.38044" lon="-0.50988">
        <ele>49</ele>
        <time>2025-03-13T22:31:16Z</time>
      </trkpt>
      <trkpt lat="47.38042" lon="-0.5106">
        <ele>53</ele>
        <time>2025-03-13T22:31:55Z</time>
      </trkpt>
      <trkpt lat="47.38073" lon="-0.51116">
        <ele>55</ele>
        <time>2025-03-13T22:32:35Z</time>
      </trkpt>
      <trkpt lat="47.38087" lon="-0.51201">
        <ele>57</ele>
        <time>2025-03-13T22:33:22Z</time>
      </trkpt>
      <trkpt lat="47.38052" lon="-0.51203">
        <ele>56</ele>
        <time>2025-03-13T22:33:50Z</time>
      </trkpt>
      <trkpt lat="47.3797" lon="-0.51201">
        <ele>54</ele>
        <time>2025-03-13T22:34:56Z</time>
      </trkpt>
      <trkpt lat="47.3792" lon="-0.51212">
        <ele>53</ele>
        <time>2025-03-13T22:35:36Z</time>
      </trkpt>
      <trkpt lat="47.37918" lon="-0.5121">
        <ele>53</ele>
        <time>2025-03-13T22:35:38Z</time>
      </trkpt>
      <trkpt lat="47.3792" lon="-0.51212">
        <ele>53</ele>
        <time>2025-03-13T22:35:40Z</time>
      </trkpt>
      <trkpt lat="47.37876" lon="-0.51238">
        <ele>49</ele>
        <time>2025-03-13T22:36:18Z</time>
      </trkpt>
      <trkpt lat="47.37744" lon="-0.51336">
        <ele>45</ele>
        <time>2025-03-13T22:38:16Z</time>
      </trkpt>
      <trkpt lat="47.37675" lon="-0.51395">
        <ele>46</ele>
        <time>2025-03-13T22:39:20Z</time>
      </trkpt>
      <trkpt lat="47.37497" lon="-0.51496">
        <ele>25</ele>
        <time>2025-03-13T22:41:53Z</time>
      </trkpt>
      <trkpt lat="47.37519" lon="-0.51504">
        <ele>27</ele>
        <time>2025-03-13T22:42:11Z</time>
      </trkpt>
      <trkpt lat="47.37527" lon="-0.51507">
        <ele>28</ele>
        <time>2025-03-13T22:42:18Z</time>
      </trkpt>
      <trkpt lat="47.37525" lon="-0.51514">
        <ele>27</ele>
        <time>2025-03-13T22:42:22Z</time>
      </trkpt>
      <trkpt lat="47.3754" lon="-0.51604">
        <ele>26</ele>
        <time>2025-03-13T22:43:12Z</time>
      </trkpt>
      <trkpt lat="47.37577" lon="-0.51738">
        <ele>24</ele>
        <time>2025-03-13T22:44:31Z</time>
      </trkpt>
      <trkpt lat="47.37591" lon="-0.51771">
        <ele>24</ele>
        <time>2025-03-13T22:44:52Z</time>
      </trkpt>
      <trkpt lat="47.37588" lon="-0.518">
        <ele>23</ele>
        <time>2025-03-13T22:45:08Z</time>
      </trkpt>
      <trkpt lat="47.37547" lon="-0.51855">
        <ele>22</ele>
        <time>2025-03-13T22:45:52Z</time>
      </trkpt>
      <trkpt lat="47.37528" lon="-0.51875">
        <ele>22</ele>
        <time>2025-03-13T22:46:11Z</time>
      </trkpt>
      <trkpt lat="47.37514" lon="-0.51885">
        <ele>23</ele>
        <time>2025-03-13T22:46:23Z</time>
      </trkpt>
      <trkpt lat="47.37509" lon="-0.51895">
        <ele>23</ele>
        <time>2025-03-13T22:46:30Z</time>
      </trkpt>
      <trkpt lat="47.37477" lon="-0.51927">
        <ele>24</ele>
        <time>2025-03-13T22:47:01Z</time>
      </trkpt>
      <trkpt lat="47.37473" lon="-0.51934">
        <ele>25</ele>
        <time>2025-03-13T22:47:06Z</time>
      </trkpt>
      <trkpt lat="47.37468" lon="-0.51948">
        <ele>25</ele>
        <time>2025-03-13T22:47:14Z</time>
      </trkpt>
      <trkpt lat="47.37471" lon="-0.51973">
        <ele>25</ele>
        <time>2025-03-13T22:47:28Z</time>
      </trkpt>
      <trkpt lat="47.37467" lon="-0.51995">
        <ele>26</ele>
        <time>2025-03-13T22:47:40Z</time>
      </trkpt>
      <trkpt lat="47.37447" lon="-0.52071">
        <ele>29</ele>
        <time>2025-03-13T22:48:25Z</time>
      </trkpt>
      <trkpt lat="47.37434" lon="-0.52132">
        <ele>31</ele>
        <time>2025-03-13T22:48:59Z</time>
      </trkpt>
      <trkpt lat="47.37434" lon="-0.52153">
        <ele>32</ele>
        <time>2025-03-13T22:49:11Z</time>
      </trkpt>
      <trkpt lat="47.37439" lon="-0.52166">
        <ele>32</ele>
        <time>2025-03-13T22:49:19Z</time>
      </trkpt>
      <trkpt lat="47.37451" lon="-0.5219">
        <ele>33</ele>
        <time>2025-03-13T22:49:35Z</time>
      </trkpt>
      <trkpt lat="47.37478" lon="-0.52208">
        <ele>33</ele>
        <time>2025-03-13T22:49:59Z</time>
      </trkpt>
      <trkpt lat="47.37493" lon="-0.52215">
        <ele>33</ele>
        <time>2025-03-13T22:50:11Z</time>
      </trkpt>
      <trkpt lat="47.37548" lon="-0.52219">
        <ele>36</ele>
        <time>2025-03-13T22:50:55Z</time>
      </trkpt>
      <trkpt lat="47.37568" lon="-0.52224">
        <ele>37</ele>
        <time>2025-03-13T22:51:12Z</time>
      </trkpt>
      <trkpt lat="47.37631" lon="-0.52258">
        <ele>41</ele>
        <time>2025-03-13T22:52:05Z</time>
      </trkpt>
      <trkpt lat="47.37654" lon="-0.52259">
        <ele>42</ele>
        <time>2025-03-13T22:52:24Z</time>
      </trkpt>
      <trkpt lat="47.37728" lon="-0.52247">
        <ele>43</ele>
        <time>2025-03-13T22:53:23Z</time>
      </trkpt>
      <trkpt lat="47.37733" lon="-0.52259">
        <ele>43</ele>
        <time>2025-03-13T22:53:31Z</time>
      </trkpt>
      <trkpt lat="47.37739" lon="-0.52256">
        <ele>43</ele>
        <time>2025-03-13T22:53:36Z</time>
      </trkpt>
      <trkpt lat="47.37775" lon="-0.52259">
        <ele>43</ele>
        <time>2025-03-13T22:54:05Z</time>
      </trkpt>
      <trkpt lat="47.37784" lon="-0.52253">
        <ele>43</ele>
        <time>2025-03-13T22:54:13Z</time>
      </trkpt>
      <trkpt lat="47.37785" lon="-0.52253">
        <ele>43</ele>
        <time>2025-03-13T22:54:14Z</time>
      </trkpt>
      <trkpt lat="47.37788" lon="-0.52258">
        <ele>43</ele>
        <time>2025-03-13T22:54:17Z</time>
      </trkpt>
      <trkpt lat="47.37799" lon="-0.52313">
        <ele>43</ele>
        <time>2025-03-13T22:54:48Z</time>
      </trkpt>
      <trkpt lat="47.37828" lon="-0.52314">
        <ele>42</ele>
        <time>2025-03-13T22:55:12Z</time>
      </trkpt>
      <trkpt lat="47.37838" lon="-0.52319">
        <ele>42</ele>
        <time>2025-03-13T22:55:20Z</time>
      </trkpt>
      <trkpt lat="47.37839" lon="-0.52318">
        <ele>42</ele>
        <time>2025-03-13T22:55:21Z</time>
      </trkpt>
      <trkpt lat="47.37838" lon="-0.52319">
        <ele>42</ele>
        <time>2025-03-13T22:55:22Z</time>
      </trkpt>
      <trkpt lat="47.37829" lon="-0.52342">
        <ele>42</ele>
        <time>2025-03-13T22:55:36Z</time>
      </trkpt>
      <trkpt lat="47.37789" lon="-0.52383">
        <ele>43</ele>
        <time>2025-03-13T22:56:15Z</time>
      </trkpt>
      <trkpt lat="47.37748" lon="-0.52415">
        <ele>44</ele>
        <time>2025-03-13T22:56:52Z</time>
      </trkpt>
      <trkpt lat="47.37744" lon="-0.52417">
        <ele>44</ele>
        <time>2025-03-13T22:56:56Z</time>
      </trkpt>
      <trkpt lat="47.37754" lon="-0.52478">
        <ele>45</ele>
        <time>2025-03-13T22:57:30Z</time>
      </trkpt>
      <trkpt lat="47.37755" lon="-0.52482">
        <ele>45</ele>
        <time>2025-03-13T22:57:32Z</time>
      </trkpt>
      <trkpt lat="47.3772" lon="-0.52505">
        <ele>45</ele>
        <time>2025-03-13T22:58:03Z</time>
      </trkpt>
      <trkpt lat="47.37645" lon="-0.52543">
        <ele>43</ele>
        <time>2025-03-13T22:59:06Z</time>
      </trkpt>
      <trkpt lat="47.37645" lon="-0.52547">
        <ele>43</ele>
        <time>2025-03-13T22:59:08Z</time>
      </trkpt>
      <trkpt lat="47.37645" lon="-0.52633">
        <ele>43</ele>
        <time>2025-03-13T22:59:55Z</time>
      </trkpt>
      <trkpt lat="47.37646" lon="-0.5281">
        <ele>48</ele>
        <time>2025-03-13T23:01:31Z</time>
      </trkpt>
      <trkpt lat="47.3763" lon="-0.5284">
        <ele>49</ele>
        <time>2025-03-13T23:01:52Z</time>
      </trkpt>
      <trkpt lat="47.37568" lon="-0.52922">
        <ele>50</ele>
        <time>2025-03-13T23:02:58Z</time>
      </trkpt>
      <trkpt lat="47.37556" lon="-0.52932">
        <ele>50</ele>
        <time>2025-03-13T23:03:09Z</time>
      </trkpt>
      <trkpt lat="47.3753" lon="-0.52946">
        <ele>51</ele>
        <time>2025-03-13T23:03:32Z</time>
      </trkpt>
      <trkpt lat="47.37487" lon="-0.52975">
        <ele>53</ele>
        <time>2025-03-13T23:04:09Z</time>
      </trkpt>
      <trkpt lat="47.3747" lon="-0.52992">
        <ele>54</ele>
        <time>2025-03-13T23:04:26Z</time>
      </trkpt>
      <trkpt lat="47.37463" lon="-0.53002">
        <ele>55</ele>
        <time>2025-03-13T23:04:34Z</time>
      </trkpt>
      <trkpt lat="47.37453" lon="-0.53021">
        <ele>55</ele>
        <time>2025-03-13T23:04:47Z</time>
      </trkpt>
      <trkpt lat="47.37443" lon="-0.53049">
        <ele>56</ele>
        <time>2025-03-13T23:05:04Z</time>
      </trkpt>
      <trkpt lat="47.37421" lon="-0.53128">
        <ele>58</ele>
        <time>2025-03-13T23:05:50Z</time>
      </trkpt>
      <trkpt lat="47.37394" lon="-0.532">
        <ele>58</ele>
        <time>2025-03-13T23:06:35Z</time>
      </trkpt>
      <trkpt lat="47.37356" lon="-0.53272">
        <ele>57</ele>
        <time>2025-03-13T23:07:24Z</time>
      </trkpt>
      <trkpt lat="47.3733" lon="-0.53308">
        <ele>57</ele>
        <time>2025-03-13T23:07:53Z</time>
      </trkpt>
      <trkpt lat="47.37296" lon="-0.53347">
        <ele>58</ele>
        <time>2025-03-13T23:08:27Z</time>
      </trkpt>
      <trkpt lat="47.37281" lon="-0.53362">
        <ele>58</ele>
        <time>2025-03-13T23:08:42Z</time>
      </trkpt>
      <trkpt lat="47.37232" lon="-0.53386">
        <ele>59</ele>
        <time>2025-03-13T23:09:23Z</time>
      </trkpt>
      <trkpt lat="47.37192" lon="-0.53398">
        <ele>60</ele>
        <time>2025-03-13T23:09:56Z</time>
      </trkpt>
      <trkpt lat="47.37139" lon="-0.53405">
        <ele>61</ele>
        <time>2025-03-13T23:10:39Z</time>
      </trkpt>
      <trkpt lat="47.37137" lon="-0.53405">
        <ele>61</ele>
        <time>2025-03-13T23:10:40Z</time>
      </trkpt>
      <trkpt lat="47.37107" lon="-0.53403">
        <ele>61</ele>
        <time>2025-03-13T23:11:04Z</time>
      </trkpt>
      <trkpt lat="47.3707" lon="-0.53309">
        <ele>61</ele>
        <time>2025-03-13T23:12:03Z</time>
      </trkpt>
      <trkpt lat="47.37015" lon="-0.53201">
        <ele>60</ele>
        <time>2025-03-13T23:13:16Z</time>
      </trkpt>
      <trkpt lat="47.36995" lon="-0.53172">
        <ele>60</ele>
        <time>2025-03-13T23:13:39Z</time>
      </trkpt>
      <trkpt lat="47.36947" lon="-0.53168">
        <ele>59</ele>
        <time>2025-03-13T23:14:17Z</time>
      </trkpt>
      <trkpt lat="47.36903" lon="-0.53172">
        <ele>58</ele>
        <time>2025-03-13T23:14:53Z</time>
      </trkpt>
      <trkpt lat="47.36877" lon="-0.53169">
        <ele>59</ele>
        <time>2025-03-13T23:15:13Z</time>
      </trkpt>
      <trkpt lat="47.36805" lon="-0.53141">
        <ele>59</ele>
        <time>2025-03-13T23:16:13Z</time>
      </trkpt>
      <trkpt lat="47.36792" lon="-0.53132">
        <ele>59</ele>
        <time>2025-03-13T23:16:25Z</time>
      </trkpt>
      <trkpt lat="47.36784" lon="-0.53119">
        <ele>60</ele>
        <time>2025-03-13T23:16:34Z</time>
      </trkpt>
      <trkpt lat="47.36762" lon="-0.52986">
        <ele>59</ele>
        <time>2025-03-13T23:17:48Z</time>
      </trkpt>
      <trkpt lat="47.36738" lon="-0.52876">
        <ele>60</ele>
        <time>2025-03-13T23:18:51Z</time>
      </trkpt>
      <trkpt lat="47.36739" lon="-0.5285">
        <ele>60</ele>
        <time>2025-03-13T23:19:05Z</time>
      </trkpt>
      <trkpt lat="47.36736" lon="-0.52826">
        <ele>60</ele>
        <time>2025-03-13T23:19:18Z</time>
      </trkpt>
      <trkpt lat="47.36729" lon="-0.52797">
        <ele>60</ele>
        <time>2025-03-13T23:19:35Z</time>
      </trkpt>
      <trkpt lat="47.36715" lon="-0.5275">
        <ele>61</ele>
        <time>2025-03-13T23:20:03Z</time>
      </trkpt>
      <trkpt lat="47.36703" lon="-0.52717">
        <ele>62</ele>
        <time>2025-03-13T23:20:23Z</time>
      </trkpt>
      <trkpt lat="47.3668" lon="-0.5267">
        <ele>63</ele>
        <time>2025-03-13T23:20:55Z</time>
      </trkpt>
      <trkpt lat="47.36649" lon="-0.52621">
        <ele>64</ele>
        <time>2025-03-13T23:21:31Z</time>
      </trkpt>
      <trkpt lat="47.36645" lon="-0.52607">
        <ele>64</ele>
        <time>2025-03-13T23:21:39Z</time>
      </trkpt>
      <trkpt lat="47.36645" lon="-0.526">
        <ele>64</ele>
        <time>2025-03-13T23:21:43Z</time>
      </trkpt>
      <trkpt lat="47.36605" lon="-0.52576">
        <ele>63</ele>
        <time>2025-03-13T23:22:18Z</time>
      </trkpt>
      <trkpt lat="47.36526" lon="-0.52535">
        <ele>60</ele>
        <time>2025-03-13T23:23:25Z</time>
      </trkpt>
      <trkpt lat="47.36511" lon="-0.52531">
        <ele>60</ele>
        <time>2025-03-13T23:23:37Z</time>
      </trkpt>
      <trkpt lat="47.36508" lon="-0.52525">
        <ele>60</ele>
        <time>2025-03-13T23:23:41Z</time>
      </trkpt>
      <trkpt lat="47.36502" lon="-0.52527">
        <ele>59</ele>
        <time>2025-03-13T23:23:46Z</time>
      </trkpt>
      <trkpt lat="47.36494" lon="-0.52518">
        <ele>59</ele>
        <time>2025-03-13T23:23:54Z</time>
      </trkpt>
      <trkpt lat="47.36463" lon="-0.52499">
        <ele>57</ele>
        <time>2025-03-13T23:24:21Z</time>
      </trkpt>
      <trkpt lat="47.36455" lon="-0.52491">
        <ele>56</ele>
        <time>2025-03-13T23:24:29Z</time>
      </trkpt>
      <trkpt lat="47.36449" lon="-0.52485">
        <ele>56</ele>
        <time>2025-03-13T23:24:34Z</time>
      </trkpt>
      <trkpt lat="47.3644" lon="-0.52468">
        <ele>56</ele>
        <time>2025-03-13T23:24:46Z</time>
      </trkpt>
      <trkpt lat="47.36411" lon="-0.52385">
        <ele>54</ele>
        <time>2025-03-13T23:25:37Z</time>
      </trkpt>
      <trkpt lat="47.36408" lon="-0.52344">
        <ele>54</ele>
        <time>2025-03-13T23:25:59Z</time>
      </trkpt>
      <trkpt lat="47.3641" lon="-0.52325">
        <ele>53</ele>
        <time>2025-03-13T23:26:10Z</time>
      </trkpt>
      <trkpt lat="47.36415" lon="-0.52303">
        <ele>53</ele>
        <time>2025-03-13T23:26:22Z</time>
      </trkpt>
      <trkpt lat="47.36408" lon="-0.52301">
        <ele>53</ele>
        <time>2025-03-13T23:26:28Z</time>
        <extensions>
          <visugpx:TrkExtension xmlns:visugpx="https://www.visugpx.com/editgpx/">
            <visugpx:node>1</visugpx:node>
            </visugpx:TrkExtension>
        </extensions>
      </trkpt>
    </trkseg>
  </trk>
  <trk>
    <name><![CDATA[Soulaines bis-20883968_21km]]></name>
    <extensions>
      <line xmlns="http://www.topografix.com/GPX/gpx_style/0/2">
        <color>ff8040</color>
        <width>2</width>
      </line>
    </extensions>
    <trkseg>
      <trkpt lat="47.3642" lon="-0.52304">
        <ele>53</ele>
        <time>2025-03-13T19:17:25Z</time>
      </trkpt>
      <trkpt lat="47.36415" lon="-0.52302">
        <ele>53</ele>
        <time>2025-03-13T19:17:29Z</time>
      </trkpt>
      <trkpt lat="47.3641" lon="-0.52325">
        <ele>53</ele>
        <time>2025-03-13T19:17:42Z</time>
      </trkpt>
      <trkpt lat="47.36408" lon="-0.52344">
        <ele>54</ele>
        <time>2025-03-13T19:17:53Z</time>
      </trkpt>
      <trkpt lat="47.3641" lon="-0.52374">
        <ele>54</ele>
        <time>2025-03-13T19:18:09Z</time>
      </trkpt>
      <trkpt lat="47.36412" lon="-0.52385">
        <ele>54</ele>
        <time>2025-03-13T19:18:15Z</time>
      </trkpt>
      <trkpt lat="47.36441" lon="-0.52468">
        <ele>56</ele>
        <time>2025-03-13T19:19:06Z</time>
      </trkpt>
      <trkpt lat="47.36443" lon="-0.52474">
        <ele>56</ele>
        <time>2025-03-13T19:19:09Z</time>
      </trkpt>
      <trkpt lat="47.36449" lon="-0.52485">
        <ele>56</ele>
        <time>2025-03-13T19:19:17Z</time>
      </trkpt>
      <trkpt lat="47.36446" lon="-0.52487">
        <ele>56</ele>
        <time>2025-03-13T19:19:20Z</time>
      </trkpt>
      <trkpt lat="47.36409" lon="-0.52509">
        <ele>54</ele>
        <time>2025-03-13T19:19:52Z</time>
      </trkpt>
      <trkpt lat="47.36375" lon="-0.52521">
        <ele>53</ele>
        <time>2025-03-13T19:20:20Z</time>
      </trkpt>
      <trkpt lat="47.3633" lon="-0.52516">
        <ele>52</ele>
        <time>2025-03-13T19:20:56Z</time>
      </trkpt>
      <trkpt lat="47.36251" lon="-0.52497">
        <ele>50</ele>
        <time>2025-03-13T19:22:00Z</time>
      </trkpt>
      <trkpt lat="47.36245" lon="-0.52496">
        <ele>50</ele>
        <time>2025-03-13T19:22:05Z</time>
      </trkpt>
      <trkpt lat="47.36238" lon="-0.52519">
        <ele>50</ele>
        <time>2025-03-13T19:22:18Z</time>
      </trkpt>
      <trkpt lat="47.36224" lon="-0.52565">
        <ele>51</ele>
        <time>2025-03-13T19:22:46Z</time>
      </trkpt>
      <trkpt lat="47.36216" lon="-0.52601">
        <ele>52</ele>
        <time>2025-03-13T19:23:06Z</time>
      </trkpt>
      <trkpt lat="47.36187" lon="-0.5269">
        <ele>54</ele>
        <time>2025-03-13T19:24:00Z</time>
      </trkpt>
      <trkpt lat="47.36093" lon="-0.52939">
        <ele>65</ele>
        <time>2025-03-13T19:26:34Z</time>
      </trkpt>
      <trkpt lat="47.36085" lon="-0.52982">
        <ele>66</ele>
        <time>2025-03-13T19:26:59Z</time>
      </trkpt>
      <trkpt lat="47.36071" lon="-0.53075">
        <ele>71</ele>
        <time>2025-03-13T19:27:50Z</time>
      </trkpt>
      <trkpt lat="47.36063" lon="-0.53121">
        <ele>73</ele>
        <time>2025-03-13T19:28:16Z</time>
      </trkpt>
      <trkpt lat="47.36045" lon="-0.53193">
        <ele>75</ele>
        <time>2025-03-13T19:28:58Z</time>
      </trkpt>
      <trkpt lat="47.36005" lon="-0.53311">
        <ele>78</ele>
        <time>2025-03-13T19:30:09Z</time>
      </trkpt>
      <trkpt lat="47.35987" lon="-0.53387">
        <ele>80</ele>
        <time>2025-03-13T19:30:53Z</time>
      </trkpt>
      <trkpt lat="47.35987" lon="-0.53389">
        <ele>80</ele>
        <time>2025-03-13T19:30:54Z</time>
      </trkpt>
      <trkpt lat="47.35987" lon="-0.53387">
        <ele>80</ele>
        <time>2025-03-13T19:30:55Z</time>
      </trkpt>
      <trkpt lat="47.35942" lon="-0.53371">
        <ele>80</ele>
        <time>2025-03-13T19:31:32Z</time>
      </trkpt>
      <trkpt lat="47.35896" lon="-0.53359">
        <ele>80</ele>
        <time>2025-03-13T19:32:10Z</time>
      </trkpt>
      <trkpt lat="47.35825" lon="-0.5333">
        <ele>80</ele>
        <time>2025-03-13T19:33:09Z</time>
      </trkpt>
      <trkpt lat="47.35763" lon="-0.53307">
        <ele>78</ele>
        <time>2025-03-13T19:34:00Z</time>
      </trkpt>
      <trkpt lat="47.35712" lon="-0.53296">
        <ele>78</ele>
        <time>2025-03-13T19:34:41Z</time>
      </trkpt>
      <trkpt lat="47.35705" lon="-0.53296">
        <ele>79</ele>
        <time>2025-03-13T19:34:47Z</time>
      </trkpt>
      <trkpt lat="47.35675" lon="-0.53293">
        <ele>79</ele>
        <time>2025-03-13T19:35:11Z</time>
      </trkpt>
      <trkpt lat="47.35618" lon="-0.53277">
        <ele>80</ele>
        <time>2025-03-13T19:35:57Z</time>
      </trkpt>
      <trkpt lat="47.35605" lon="-0.53271">
        <ele>80</ele>
        <time>2025-03-13T19:36:08Z</time>
      </trkpt>
      <trkpt lat="47.3558" lon="-0.53257">
        <ele>81</ele>
        <time>2025-03-13T19:36:29Z</time>
      </trkpt>
      <trkpt lat="47.35533" lon="-0.53229">
        <ele>81</ele>
        <time>2025-03-13T19:37:10Z</time>
      </trkpt>
      <trkpt lat="47.35495" lon="-0.53212">
        <ele>80</ele>
        <time>2025-03-13T19:37:42Z</time>
      </trkpt>
      <trkpt lat="47.35492" lon="-0.53207">
        <ele>80</ele>
        <time>2025-03-13T19:37:45Z</time>
      </trkpt>
      <trkpt lat="47.35443" lon="-0.5319">
        <ele>79</ele>
        <time>2025-03-13T19:38:26Z</time>
      </trkpt>
      <trkpt lat="47.35373" lon="-0.53177">
        <ele>79</ele>
        <time>2025-03-13T19:39:22Z</time>
      </trkpt>
      <trkpt lat="47.35295" lon="-0.53156">
        <ele>79</ele>
        <time>2025-03-13T19:40:26Z</time>
      </trkpt>
      <trkpt lat="47.35227" lon="-0.5313">
        <ele>79</ele>
        <time>2025-03-13T19:41:22Z</time>
      </trkpt>
      <trkpt lat="47.35185" lon="-0.53102">
        <ele>78</ele>
        <time>2025-03-13T19:41:59Z</time>
      </trkpt>
      <trkpt lat="47.35149" lon="-0.53068">
        <ele>77</ele>
        <time>2025-03-13T19:42:33Z</time>
      </trkpt>
      <trkpt lat="47.35131" lon="-0.53048">
        <ele>77</ele>
        <time>2025-03-13T19:42:51Z</time>
      </trkpt>
      <trkpt lat="47.35154" lon="-0.53011">
        <ele>78</ele>
        <time>2025-03-13T19:43:18Z</time>
      </trkpt>
      <trkpt lat="47.35158" lon="-0.53003">
        <ele>78</ele>
        <time>2025-03-13T19:43:24Z</time>
      </trkpt>
      <trkpt lat="47.35158" lon="-0.52994">
        <ele>78</ele>
        <time>2025-03-13T19:43:29Z</time>
      </trkpt>
      <trkpt lat="47.35163" lon="-0.52992">
        <ele>78</ele>
        <time>2025-03-13T19:43:33Z</time>
      </trkpt>
      <trkpt lat="47.35158" lon="-0.52994">
        <ele>78</ele>
        <time>2025-03-13T19:43:37Z</time>
      </trkpt>
      <trkpt lat="47.35149" lon="-0.52996">
        <ele>78</ele>
        <time>2025-03-13T19:43:44Z</time>
      </trkpt>
      <trkpt lat="47.35137" lon="-0.52997">
        <ele>77</ele>
        <time>2025-03-13T19:43:54Z</time>
      </trkpt>
      <trkpt lat="47.35011" lon="-0.52998">
        <ele>75</ele>
        <time>2025-03-13T19:45:35Z</time>
      </trkpt>
      <trkpt lat="47.35003" lon="-0.52998">
        <ele>75</ele>
        <time>2025-03-13T19:45:41Z</time>
      </trkpt>
      <trkpt lat="47.34885" lon="-0.53001">
        <ele>79</ele>
        <time>2025-03-13T19:47:16Z</time>
      </trkpt>
      <trkpt lat="47.34857" lon="-0.53003">
        <ele>80</ele>
        <time>2025-03-13T19:47:38Z</time>
      </trkpt>
      <trkpt lat="47.34824" lon="-0.53008">
        <ele>80</ele>
        <time>2025-03-13T19:48:05Z</time>
      </trkpt>
      <trkpt lat="47.34819" lon="-0.53009">
        <ele>80</ele>
        <time>2025-03-13T19:48:09Z</time>
      </trkpt>
      <trkpt lat="47.34718" lon="-0.53027">
        <ele>82</ele>
        <time>2025-03-13T19:49:30Z</time>
      </trkpt>
      <trkpt lat="47.34691" lon="-0.5303">
        <ele>82</ele>
        <time>2025-03-13T19:49:52Z</time>
      </trkpt>
      <trkpt lat="47.34677" lon="-0.53029">
        <ele>83</ele>
        <time>2025-03-13T19:50:03Z</time>
      </trkpt>
      <trkpt lat="47.34336" lon="-0.52977">
        <ele>90</ele>
        <time>2025-03-13T19:54:38Z</time>
      </trkpt>
      <trkpt lat="47.34311" lon="-0.52972">
        <ele>91</ele>
        <time>2025-03-13T19:54:58Z</time>
      </trkpt>
      <trkpt lat="47.34301" lon="-0.52969">
        <ele>91</ele>
        <time>2025-03-13T19:55:06Z</time>
      </trkpt>
      <trkpt lat="47.34298" lon="-0.52968">
        <ele>91</ele>
        <time>2025-03-13T19:55:08Z</time>
      </trkpt>
      <trkpt lat="47.34286" lon="-0.52959">
        <ele>91</ele>
        <time>2025-03-13T19:55:19Z</time>
      </trkpt>
      <trkpt lat="47.34278" lon="-0.52954">
        <ele>92</ele>
        <time>2025-03-13T19:55:26Z</time>
      </trkpt>
      <trkpt lat="47.34273" lon="-0.52952">
        <ele>92</ele>
        <time>2025-03-13T19:55:30Z</time>
      </trkpt>
      <trkpt lat="47.34273" lon="-0.52937">
        <ele>92</ele>
        <time>2025-03-13T19:55:38Z</time>
      </trkpt>
      <trkpt lat="47.3427" lon="-0.5292">
        <ele>92</ele>
        <time>2025-03-13T19:55:48Z</time>
      </trkpt>
      <trkpt lat="47.34252" lon="-0.52842">
        <ele>92</ele>
        <time>2025-03-13T19:56:33Z</time>
      </trkpt>
      <trkpt lat="47.34222" lon="-0.52724">
        <ele>91</ele>
        <time>2025-03-13T19:57:41Z</time>
      </trkpt>
      <trkpt lat="47.3418" lon="-0.52558">
        <ele>89</ele>
        <time>2025-03-13T19:59:17Z</time>
      </trkpt>
      <trkpt lat="47.34175" lon="-0.52536">
        <ele>88</ele>
        <time>2025-03-13T19:59:30Z</time>
      </trkpt>
      <trkpt lat="47.34174" lon="-0.52519">
        <ele>88</ele>
        <time>2025-03-13T19:59:39Z</time>
      </trkpt>
      <trkpt lat="47.34176" lon="-0.5249">
        <ele>87</ele>
        <time>2025-03-13T19:59:55Z</time>
      </trkpt>
      <trkpt lat="47.34183" lon="-0.52416">
        <ele>87</ele>
        <time>2025-03-13T20:00:35Z</time>
      </trkpt>
      <trkpt lat="47.34184" lon="-0.52389">
        <ele>87</ele>
        <time>2025-03-13T20:00:50Z</time>
      </trkpt>
      <trkpt lat="47.34184" lon="-0.52356">
        <ele>87</ele>
        <time>2025-03-13T20:01:08Z</time>
      </trkpt>
      <trkpt lat="47.34185" lon="-0.5234">
        <ele>87</ele>
        <time>2025-03-13T20:01:17Z</time>
      </trkpt>
      <trkpt lat="47.34182" lon="-0.52335">
        <ele>87</ele>
        <time>2025-03-13T20:01:20Z</time>
      </trkpt>
      <trkpt lat="47.34039" lon="-0.51873">
        <ele>93</ele>
        <time>2025-03-13T20:05:56Z</time>
      </trkpt>
      <trkpt lat="47.34036" lon="-0.51862">
        <ele>93</ele>
        <time>2025-03-13T20:06:02Z</time>
      </trkpt>
      <trkpt lat="47.33986" lon="-0.51708">
        <ele>94</ele>
        <time>2025-03-13T20:07:35Z</time>
      </trkpt>
      <trkpt lat="47.3397" lon="-0.51654">
        <ele>92</ele>
        <time>2025-03-13T20:08:07Z</time>
      </trkpt>
      <trkpt lat="47.33959" lon="-0.51605">
        <ele>90</ele>
        <time>2025-03-13T20:08:35Z</time>
      </trkpt>
      <trkpt lat="47.33951" lon="-0.51564">
        <ele>89</ele>
        <time>2025-03-13T20:08:58Z</time>
      </trkpt>
      <trkpt lat="47.33926" lon="-0.51382">
        <ele>87</ele>
        <time>2025-03-13T20:10:39Z</time>
      </trkpt>
      <trkpt lat="47.33924" lon="-0.51344">
        <ele>87</ele>
        <time>2025-03-13T20:11:00Z</time>
      </trkpt>
      <trkpt lat="47.33924" lon="-0.51252">
        <ele>86</ele>
        <time>2025-03-13T20:11:49Z</time>
      </trkpt>
      <trkpt lat="47.33922" lon="-0.51239">
        <ele>86</ele>
        <time>2025-03-13T20:11:57Z</time>
      </trkpt>
      <trkpt lat="47.3392" lon="-0.51227">
        <ele>85</ele>
        <time>2025-03-13T20:12:03Z</time>
      </trkpt>
      <trkpt lat="47.33957" lon="-0.51219">
        <ele>85</ele>
        <time>2025-03-13T20:12:33Z</time>
      </trkpt>
      <trkpt lat="47.34047" lon="-0.51185">
        <ele>82</ele>
        <time>2025-03-13T20:13:48Z</time>
      </trkpt>
      <trkpt lat="47.34055" lon="-0.51174">
        <ele>82</ele>
        <time>2025-03-13T20:13:56Z</time>
      </trkpt>
      <trkpt lat="47.34057" lon="-0.51142">
        <ele>81</ele>
        <time>2025-03-13T20:14:14Z</time>
      </trkpt>
      <trkpt lat="47.34078" lon="-0.51075">
        <ele>78</ele>
        <time>2025-03-13T20:14:54Z</time>
      </trkpt>
      <trkpt lat="47.34088" lon="-0.5107">
        <ele>78</ele>
        <time>2025-03-13T20:15:02Z</time>
      </trkpt>
      <trkpt lat="47.3412" lon="-0.51108">
        <ele>78</ele>
        <time>2025-03-13T20:15:35Z</time>
      </trkpt>
      <trkpt lat="47.34189" lon="-0.50985">
        <ele>74</ele>
        <time>2025-03-13T20:17:02Z</time>
      </trkpt>
      <trkpt lat="47.34208" lon="-0.50969">
        <ele>73</ele>
        <time>2025-03-13T20:17:19Z</time>
      </trkpt>
      <trkpt lat="47.34279" lon="-0.50959">
        <ele>71</ele>
        <time>2025-03-13T20:18:17Z</time>
      </trkpt>
      <trkpt lat="47.34407" lon="-0.50955">
        <ele>70</ele>
        <time>2025-03-13T20:19:59Z</time>
      </trkpt>
      <trkpt lat="47.34466" lon="-0.50959">
        <ele>71</ele>
        <time>2025-03-13T20:20:46Z</time>
      </trkpt>
      <trkpt lat="47.34495" lon="-0.50956">
        <ele>71</ele>
        <time>2025-03-13T20:21:10Z</time>
      </trkpt>
      <trkpt lat="47.34521" lon="-0.50924">
        <ele>71</ele>
        <time>2025-03-13T20:21:37Z</time>
      </trkpt>
      <trkpt lat="47.3455" lon="-0.50871">
        <ele>73</ele>
        <time>2025-03-13T20:22:14Z</time>
      </trkpt>
      <trkpt lat="47.34589" lon="-0.50848">
        <ele>73</ele>
        <time>2025-03-13T20:22:47Z</time>
      </trkpt>
      <trkpt lat="47.34618" lon="-0.5083">
        <ele>71</ele>
        <time>2025-03-13T20:23:13Z</time>
      </trkpt>
      <trkpt lat="47.34627" lon="-0.50817">
        <ele>70</ele>
        <time>2025-03-13T20:23:23Z</time>
      </trkpt>
      <trkpt lat="47.34651" lon="-0.50801">
        <ele>68</ele>
        <time>2025-03-13T20:23:44Z</time>
      </trkpt>
      <trkpt lat="47.34716" lon="-0.50776">
        <ele>68</ele>
        <time>2025-03-13T20:24:37Z</time>
      </trkpt>
      <trkpt lat="47.34736" lon="-0.50777">
        <ele>68</ele>
        <time>2025-03-13T20:24:53Z</time>
      </trkpt>
      <trkpt lat="47.34796" lon="-0.5074">
        <ele>68</ele>
        <time>2025-03-13T20:25:46Z</time>
      </trkpt>
      <trkpt lat="47.34819" lon="-0.5072">
        <ele>69</ele>
        <time>2025-03-13T20:26:07Z</time>
      </trkpt>
      <trkpt lat="47.34822" lon="-0.50718">
        <ele>69</ele>
        <time>2025-03-13T20:26:10Z</time>
      </trkpt>
      <trkpt lat="47.34836" lon="-0.50699">
        <ele>69</ele>
        <time>2025-03-13T20:26:25Z</time>
      </trkpt>
      <trkpt lat="47.3486" lon="-0.5063">
        <ele>67</ele>
        <time>2025-03-13T20:27:07Z</time>
      </trkpt>
      <trkpt lat="47.34878" lon="-0.50598">
        <ele>65</ele>
        <time>2025-03-13T20:27:29Z</time>
      </trkpt>
      <trkpt lat="47.34898" lon="-0.50582">
        <ele>64</ele>
        <time>2025-03-13T20:27:48Z</time>
      </trkpt>
      <trkpt lat="47.34915" lon="-0.50573">
        <ele>64</ele>
        <time>2025-03-13T20:28:02Z</time>
      </trkpt>
      <trkpt lat="47.34935" lon="-0.50554">
        <ele>63</ele>
        <time>2025-03-13T20:28:21Z</time>
      </trkpt>
      <trkpt lat="47.35" lon="-0.50469">
        <ele>61</ele>
        <time>2025-03-13T20:29:31Z</time>
      </trkpt>
      <trkpt lat="47.35032" lon="-0.50426">
        <ele>59</ele>
        <time>2025-03-13T20:30:05Z</time>
      </trkpt>
      <trkpt lat="47.35091" lon="-0.50329">
        <ele>59</ele>
        <time>2025-03-13T20:31:16Z</time>
      </trkpt>
      <trkpt lat="47.351" lon="-0.50318">
        <ele>58</ele>
        <time>2025-03-13T20:31:25Z</time>
      </trkpt>
      <trkpt lat="47.35103" lon="-0.50316">
        <ele>58</ele>
        <time>2025-03-13T20:31:28Z</time>
      </trkpt>
      <trkpt lat="47.35107" lon="-0.50308">
        <ele>58</ele>
        <time>2025-03-13T20:31:33Z</time>
      </trkpt>
      <trkpt lat="47.35118" lon="-0.50274">
        <ele>58</ele>
        <time>2025-03-13T20:31:54Z</time>
      </trkpt>
      <trkpt lat="47.35127" lon="-0.50253">
        <ele>57</ele>
        <time>2025-03-13T20:32:07Z</time>
      </trkpt>
      <trkpt lat="47.35135" lon="-0.50204">
        <ele>56</ele>
        <time>2025-03-13T20:32:35Z</time>
      </trkpt>
      <trkpt lat="47.35121" lon="-0.50165">
        <ele>55</ele>
        <time>2025-03-13T20:32:59Z</time>
      </trkpt>
      <trkpt lat="47.35118" lon="-0.50152">
        <ele>54</ele>
        <time>2025-03-13T20:33:06Z</time>
      </trkpt>
      <trkpt lat="47.35119" lon="-0.50096">
        <ele>53</ele>
        <time>2025-03-13T20:33:36Z</time>
      </trkpt>
      <trkpt lat="47.35118" lon="-0.50064">
        <ele>52</ele>
        <time>2025-03-13T20:33:54Z</time>
      </trkpt>
      <trkpt lat="47.351" lon="-0.49937">
        <ele>50</ele>
        <time>2025-03-13T20:35:04Z</time>
      </trkpt>
      <trkpt lat="47.35096" lon="-0.49876">
        <ele>48</ele>
        <time>2025-03-13T20:35:37Z</time>
      </trkpt>
      <trkpt lat="47.3509" lon="-0.49817">
        <ele>47</ele>
        <time>2025-03-13T20:36:10Z</time>
      </trkpt>
      <trkpt lat="47.35092" lon="-0.49807">
        <ele>47</ele>
        <time>2025-03-13T20:36:15Z</time>
      </trkpt>
      <trkpt lat="47.35116" lon="-0.49784">
        <ele>46</ele>
        <time>2025-03-13T20:36:38Z</time>
      </trkpt>
      <trkpt lat="47.35119" lon="-0.49775">
        <ele>46</ele>
        <time>2025-03-13T20:36:44Z</time>
      </trkpt>
      <trkpt lat="47.35117" lon="-0.49763">
        <ele>46</ele>
        <time>2025-03-13T20:36:51Z</time>
      </trkpt>
      <trkpt lat="47.35103" lon="-0.49717">
        <ele>45</ele>
        <time>2025-03-13T20:37:18Z</time>
      </trkpt>
      <trkpt lat="47.35103" lon="-0.49697">
        <ele>45</ele>
        <time>2025-03-13T20:37:29Z</time>
      </trkpt>
      <trkpt lat="47.35112" lon="-0.49666">
        <ele>45</ele>
        <time>2025-03-13T20:37:47Z</time>
      </trkpt>
      <trkpt lat="47.35114" lon="-0.49664">
        <ele>45</ele>
        <time>2025-03-13T20:37:49Z</time>
      </trkpt>
      <trkpt lat="47.35117" lon="-0.4966">
        <ele>46</ele>
        <time>2025-03-13T20:37:52Z</time>
      </trkpt>
      <trkpt lat="47.3515" lon="-0.49616">
        <ele>48</ele>
        <time>2025-03-13T20:38:28Z</time>
      </trkpt>
      <trkpt lat="47.35159" lon="-0.49597">
        <ele>49</ele>
        <time>2025-03-13T20:38:40Z</time>
      </trkpt>
      <trkpt lat="47.35163" lon="-0.49566">
        <ele>50</ele>
        <time>2025-03-13T20:38:58Z</time>
      </trkpt>
      <trkpt lat="47.35166" lon="-0.49522">
        <ele>51</ele>
        <time>2025-03-13T20:39:22Z</time>
      </trkpt>
      <trkpt lat="47.35176" lon="-0.49474">
        <ele>54</ele>
        <time>2025-03-13T20:39:49Z</time>
      </trkpt>
      <trkpt lat="47.35196" lon="-0.49428">
        <ele>56</ele>
        <time>2025-03-13T20:40:18Z</time>
      </trkpt>
      <trkpt lat="47.35201" lon="-0.49428">
        <ele>56</ele>
        <time>2025-03-13T20:40:22Z</time>
      </trkpt>
      <trkpt lat="47.35211" lon="-0.49429">
        <ele>56</ele>
        <time>2025-03-13T20:40:30Z</time>
      </trkpt>
      <trkpt lat="47.3523" lon="-0.49424">
        <ele>57</ele>
        <time>2025-03-13T20:40:46Z</time>
      </trkpt>
      <trkpt lat="47.35253" lon="-0.49412">
        <ele>57</ele>
        <time>2025-03-13T20:41:05Z</time>
      </trkpt>
      <trkpt lat="47.35284" lon="-0.49407">
        <ele>53</ele>
        <time>2025-03-13T20:41:30Z</time>
      </trkpt>
      <trkpt lat="47.35311" lon="-0.49404">
        <ele>50</ele>
        <time>2025-03-13T20:41:52Z</time>
      </trkpt>
      <trkpt lat="47.35342" lon="-0.49402">
        <ele>47</ele>
        <time>2025-03-13T20:42:17Z</time>
      </trkpt>
      <trkpt lat="47.35357" lon="-0.49404">
        <ele>47</ele>
        <time>2025-03-13T20:42:29Z</time>
      </trkpt>
      <trkpt lat="47.35378" lon="-0.49413">
        <ele>46</ele>
        <time>2025-03-13T20:42:46Z</time>
      </trkpt>
      <trkpt lat="47.35399" lon="-0.49438">
        <ele>46</ele>
        <time>2025-03-13T20:43:08Z</time>
      </trkpt>
      <trkpt lat="47.35425" lon="-0.49481">
        <ele>46</ele>
        <time>2025-03-13T20:43:39Z</time>
      </trkpt>
      <trkpt lat="47.35462" lon="-0.4953">
        <ele>46</ele>
        <time>2025-03-13T20:44:19Z</time>
      </trkpt>
      <trkpt lat="47.35464" lon="-0.49532">
        <ele>46</ele>
        <time>2025-03-13T20:44:21Z</time>
      </trkpt>
      <trkpt lat="47.35473" lon="-0.49544">
        <ele>46</ele>
        <time>2025-03-13T20:44:31Z</time>
      </trkpt>
      <trkpt lat="47.35504" lon="-0.49573">
        <ele>46</ele>
        <time>2025-03-13T20:45:00Z</time>
      </trkpt>
      <trkpt lat="47.3553" lon="-0.49603">
        <ele>48</ele>
        <time>2025-03-13T20:45:27Z</time>
      </trkpt>
      <trkpt lat="47.3555" lon="-0.49633">
        <ele>50</ele>
        <time>2025-03-13T20:45:49Z</time>
      </trkpt>
      <trkpt lat="47.35588" lon="-0.49706">
        <ele>56</ele>
        <time>2025-03-13T20:46:39Z</time>
      </trkpt>
      <trkpt lat="47.35635" lon="-0.49764">
        <ele>60</ele>
        <time>2025-03-13T20:47:28Z</time>
      </trkpt>
      <trkpt lat="47.35652" lon="-0.49764">
        <ele>61</ele>
        <time>2025-03-13T20:47:42Z</time>
      </trkpt>
      <trkpt lat="47.35683" lon="-0.49765">
        <ele>61</ele>
        <time>2025-03-13T20:48:07Z</time>
      </trkpt>
      <trkpt lat="47.35704" lon="-0.4976">
        <ele>60</ele>
        <time>2025-03-13T20:48:24Z</time>
      </trkpt>
      <trkpt lat="47.35732" lon="-0.49733">
        <ele>58</ele>
        <time>2025-03-13T20:48:51Z</time>
      </trkpt>
      <trkpt lat="47.35812" lon="-0.49649">
        <ele>54</ele>
        <time>2025-03-13T20:50:09Z</time>
      </trkpt>
      <trkpt lat="47.35882" lon="-0.49571">
        <ele>52</ele>
        <time>2025-03-13T20:51:19Z</time>
      </trkpt>
      <trkpt lat="47.35891" lon="-0.49561">
        <ele>52</ele>
        <time>2025-03-13T20:51:29Z</time>
      </trkpt>
      <trkpt lat="47.35974" lon="-0.49493">
        <ele>48</ele>
        <time>2025-03-13T20:52:45Z</time>
      </trkpt>
      <trkpt lat="47.35997" lon="-0.49489">
        <ele>47</ele>
        <time>2025-03-13T20:53:03Z</time>
      </trkpt>
      <trkpt lat="47.36024" lon="-0.49474">
        <ele>47</ele>
        <time>2025-03-13T20:53:26Z</time>
      </trkpt>
      <trkpt lat="47.36071" lon="-0.49406">
        <ele>45</ele>
        <time>2025-03-13T20:54:19Z</time>
      </trkpt>
      <trkpt lat="47.36113" lon="-0.49332">
        <ele>45</ele>
        <time>2025-03-13T20:55:11Z</time>
      </trkpt>
      <trkpt lat="47.36129" lon="-0.49334">
        <ele>46</ele>
        <time>2025-03-13T20:55:24Z</time>
      </trkpt>
      <trkpt lat="47.36229" lon="-0.49334">
        <ele>50</ele>
        <time>2025-03-13T20:56:44Z</time>
      </trkpt>
      <trkpt lat="47.36253" lon="-0.49338">
        <ele>51</ele>
        <time>2025-03-13T20:57:03Z</time>
      </trkpt>
      <trkpt lat="47.36257" lon="-0.49339">
        <ele>51</ele>
        <time>2025-03-13T20:57:07Z</time>
      </trkpt>
      <trkpt lat="47.36253" lon="-0.49338">
        <ele>51</ele>
        <time>2025-03-13T20:57:10Z</time>
      </trkpt>
      <trkpt lat="47.36303" lon="-0.4914">
        <ele>47</ele>
        <time>2025-03-13T20:59:05Z</time>
      </trkpt>
      <trkpt lat="47.36322" lon="-0.49071">
        <ele>46</ele>
        <time>2025-03-13T20:59:45Z</time>
      </trkpt>
      <trkpt lat="47.36327" lon="-0.49034">
        <ele>46</ele>
        <time>2025-03-13T21:00:05Z</time>
      </trkpt>
      <trkpt lat="47.36328" lon="-0.4897">
        <ele>46</ele>
        <time>2025-03-13T21:00:40Z</time>
      </trkpt>
      <trkpt lat="47.36333" lon="-0.48945">
        <ele>47</ele>
        <time>2025-03-13T21:00:54Z</time>
      </trkpt>
      <trkpt lat="47.36385" lon="-0.48811">
        <ele>45</ele>
        <time>2025-03-13T21:02:18Z</time>
      </trkpt>
      <trkpt lat="47.36438" lon="-0.48848">
        <ele>45</ele>
        <time>2025-03-13T21:03:05Z</time>
      </trkpt>
      <trkpt lat="47.36527" lon="-0.48926">
        <ele>46</ele>
        <time>2025-03-13T21:04:28Z</time>
      </trkpt>
      <trkpt lat="47.3658" lon="-0.48977">
        <ele>45</ele>
        <time>2025-03-13T21:05:18Z</time>
      </trkpt>
      <trkpt lat="47.36596" lon="-0.48989">
        <ele>45</ele>
        <time>2025-03-13T21:05:33Z</time>
      </trkpt>
      <trkpt lat="47.36659" lon="-0.49034">
        <ele>41</ele>
        <time>2025-03-13T21:06:29Z</time>
      </trkpt>
      <trkpt lat="47.36689" lon="-0.49062">
        <ele>40</ele>
        <time>2025-03-13T21:06:57Z</time>
      </trkpt>
      <trkpt lat="47.36711" lon="-0.49093">
        <ele>40</ele>
        <time>2025-03-13T21:07:22Z</time>
      </trkpt>
      <trkpt lat="47.36743" lon="-0.49144">
        <ele>40</ele>
        <time>2025-03-13T21:07:59Z</time>
      </trkpt>
      <trkpt lat="47.36755" lon="-0.49154">
        <ele>40</ele>
        <time>2025-03-13T21:08:10Z</time>
      </trkpt>
      <trkpt lat="47.36832" lon="-0.49137">
        <ele>38</ele>
        <time>2025-03-13T21:09:13Z</time>
      </trkpt>
      <trkpt lat="47.36875" lon="-0.49122">
        <ele>37</ele>
        <time>2025-03-13T21:09:48Z</time>
      </trkpt>
      <trkpt lat="47.36928" lon="-0.49102">
        <ele>37</ele>
        <time>2025-03-13T21:10:32Z</time>
      </trkpt>
      <trkpt lat="47.36911" lon="-0.4901">
        <ele>36</ele>
        <time>2025-03-13T21:11:24Z</time>
      </trkpt>
      <trkpt lat="47.37001" lon="-0.4897">
        <ele>36</ele>
        <time>2025-03-13T21:12:39Z</time>
      </trkpt>
      <trkpt lat="47.37001" lon="-0.48969">
        <ele>36</ele>
        <time>2025-03-13T21:12:39Z</time>
      </trkpt>
      <trkpt lat="47.3699" lon="-0.48905">
        <ele>35</ele>
        <time>2025-03-13T21:13:15Z</time>
      </trkpt>
      <trkpt lat="47.37015" lon="-0.48883">
        <ele>34</ele>
        <time>2025-03-13T21:13:39Z</time>
      </trkpt>
      <trkpt lat="47.37032" lon="-0.48863">
        <ele>34</ele>
        <time>2025-03-13T21:13:56Z</time>
      </trkpt>
      <trkpt lat="47.37051" lon="-0.48836">
        <ele>34</ele>
        <time>2025-03-13T21:14:17Z</time>
      </trkpt>
      <trkpt lat="47.37071" lon="-0.48819">
        <ele>34</ele>
        <time>2025-03-13T21:14:36Z</time>
      </trkpt>
      <trkpt lat="47.37121" lon="-0.48791">
        <ele>35</ele>
        <time>2025-03-13T21:15:18Z</time>
      </trkpt>
      <trkpt lat="47.37158" lon="-0.48777">
        <ele>34</ele>
        <time>2025-03-13T21:15:49Z</time>
      </trkpt>
      <trkpt lat="47.37182" lon="-0.48779">
        <ele>34</ele>
        <time>2025-03-13T21:16:08Z</time>
      </trkpt>
      <trkpt lat="47.37206" lon="-0.48785">
        <ele>33</ele>
        <time>2025-03-13T21:16:28Z</time>
      </trkpt>
      <trkpt lat="47.37302" lon="-0.48822">
        <ele>32</ele>
        <time>2025-03-13T21:17:47Z</time>
      </trkpt>
      <trkpt lat="47.37303" lon="-0.48822">
        <ele>32</ele>
        <time>2025-03-13T21:17:48Z</time>
      </trkpt>
      <trkpt lat="47.37302" lon="-0.48822">
        <ele>32</ele>
        <time>2025-03-13T21:17:49Z</time>
      </trkpt>
      <trkpt lat="47.37296" lon="-0.48801">
        <ele>32</ele>
        <time>2025-03-13T21:18:01Z</time>
      </trkpt>
      <trkpt lat="47.37289" lon="-0.48766">
        <ele>31</ele>
        <time>2025-03-13T21:18:21Z</time>
      </trkpt>
      <trkpt lat="47.37286" lon="-0.48744">
        <ele>31</ele>
        <time>2025-03-13T21:18:33Z</time>
      </trkpt>
      <trkpt lat="47.37287" lon="-0.48718">
        <ele>31</ele>
        <time>2025-03-13T21:18:47Z</time>
      </trkpt>
      <trkpt lat="47.37288" lon="-0.48684">
        <ele>31</ele>
        <time>2025-03-13T21:19:06Z</time>
      </trkpt>
      <trkpt lat="47.37294" lon="-0.48581">
        <ele>29</ele>
        <time>2025-03-13T21:20:02Z</time>
      </trkpt>
      <trkpt lat="47.37395" lon="-0.48531">
        <ele>28</ele>
        <time>2025-03-13T21:21:27Z</time>
      </trkpt>
      <trkpt lat="47.37404" lon="-0.4853">
        <ele>28</ele>
        <time>2025-03-13T21:21:34Z</time>
      </trkpt>
      <trkpt lat="47.37432" lon="-0.48522">
        <ele>29</ele>
        <time>2025-03-13T21:21:57Z</time>
      </trkpt>
      <trkpt lat="47.37447" lon="-0.48513">
        <ele>30</ele>
        <time>2025-03-13T21:22:10Z</time>
      </trkpt>
      <trkpt lat="47.37459" lon="-0.48499">
        <ele>31</ele>
        <time>2025-03-13T21:22:22Z</time>
      </trkpt>
      <trkpt lat="47.37505" lon="-0.48446">
        <ele>33</ele>
        <time>2025-03-13T21:23:09Z</time>
      </trkpt>
      <trkpt lat="47.37509" lon="-0.48457">
        <ele>33</ele>
        <time>2025-03-13T21:23:16Z</time>
      </trkpt>
      <trkpt lat="47.37584" lon="-0.48658">
        <ele>38</ele>
        <time>2025-03-13T21:25:20Z</time>
      </trkpt>
      <trkpt lat="47.37643" lon="-0.48818">
        <ele>36</ele>
        <time>2025-03-13T21:26:59Z</time>
      </trkpt>
      <trkpt lat="47.37634" lon="-0.4883">
        <ele>36</ele>
        <time>2025-03-13T21:27:09Z</time>
      </trkpt>
      <trkpt lat="47.37611" lon="-0.48852">
        <ele>35</ele>
        <time>2025-03-13T21:27:31Z</time>
      </trkpt>
      <trkpt lat="47.37574" lon="-0.48874">
        <ele>34</ele>
        <time>2025-03-13T21:28:02Z</time>
      </trkpt>
      <trkpt lat="47.37498" lon="-0.48907">
        <ele>30</ele>
        <time>2025-03-13T21:29:06Z</time>
      </trkpt>
      <trkpt lat="47.37501" lon="-0.48928">
        <ele>30</ele>
        <time>2025-03-13T21:29:18Z</time>
      </trkpt>
      <trkpt lat="47.37503" lon="-0.48966">
        <ele>30</ele>
        <time>2025-03-13T21:29:38Z</time>
      </trkpt>
      <trkpt lat="47.37516" lon="-0.49012">
        <ele>31</ele>
        <time>2025-03-13T21:30:05Z</time>
      </trkpt>
      <trkpt lat="47.37519" lon="-0.49029">
        <ele>32</ele>
        <time>2025-03-13T21:30:15Z</time>
      </trkpt>
      <trkpt lat="47.37517" lon="-0.49052">
        <ele>32</ele>
        <time>2025-03-13T21:30:27Z</time>
      </trkpt>
      <trkpt lat="47.37511" lon="-0.49082">
        <ele>32</ele>
        <time>2025-03-13T21:30:44Z</time>
      </trkpt>
      <trkpt lat="47.37501" lon="-0.49107">
        <ele>31</ele>
        <time>2025-03-13T21:31:00Z</time>
      </trkpt>
      <trkpt lat="47.3749" lon="-0.49131">
        <ele>31</ele>
        <time>2025-03-13T21:31:16Z</time>
      </trkpt>
      <trkpt lat="47.37469" lon="-0.49166">
        <ele>30</ele>
        <time>2025-03-13T21:31:41Z</time>
      </trkpt>
      <trkpt lat="47.37455" lon="-0.49196">
        <ele>29</ele>
        <time>2025-03-13T21:32:01Z</time>
      </trkpt>
      <trkpt lat="47.37447" lon="-0.49223">
        <ele>29</ele>
        <time>2025-03-13T21:32:17Z</time>
      </trkpt>
      <trkpt lat="47.37392" lon="-0.4933">
        <ele>29</ele>
        <time>2025-03-13T21:33:30Z</time>
      </trkpt>
      <trkpt lat="47.37371" lon="-0.49385">
        <ele>30</ele>
        <time>2025-03-13T21:34:04Z</time>
      </trkpt>
      <trkpt lat="47.37354" lon="-0.49454">
        <ele>30</ele>
        <time>2025-03-13T21:34:44Z</time>
      </trkpt>
      <trkpt lat="47.37346" lon="-0.49496">
        <ele>30</ele>
        <time>2025-03-13T21:35:07Z</time>
      </trkpt>
      <trkpt lat="47.37338" lon="-0.49529">
        <ele>29</ele>
        <time>2025-03-13T21:35:26Z</time>
      </trkpt>
      <trkpt lat="47.3733" lon="-0.49603">
        <ele>28</ele>
        <time>2025-03-13T21:36:07Z</time>
      </trkpt>
      <trkpt lat="47.37325" lon="-0.49658">
        <ele>28</ele>
        <time>2025-03-13T21:36:37Z</time>
      </trkpt>
      <trkpt lat="47.37328" lon="-0.49711">
        <ele>27</ele>
        <time>2025-03-13T21:37:06Z</time>
      </trkpt>
      <trkpt lat="47.37325" lon="-0.49718">
        <ele>27</ele>
        <time>2025-03-13T21:37:10Z</time>
      </trkpt>
      <trkpt lat="47.37328" lon="-0.4972">
        <ele>27</ele>
        <time>2025-03-13T21:37:13Z</time>
      </trkpt>
      <trkpt lat="47.37332" lon="-0.49726">
        <ele>27</ele>
        <time>2025-03-13T21:37:18Z</time>
      </trkpt>
      <trkpt lat="47.37336" lon="-0.49734">
        <ele>27</ele>
        <time>2025-03-13T21:37:23Z</time>
      </trkpt>
      <trkpt lat="47.37363" lon="-0.49806">
        <ele>27</ele>
        <time>2025-03-13T21:38:08Z</time>
      </trkpt>
      <trkpt lat="47.37366" lon="-0.49813">
        <ele>27</ele>
        <time>2025-03-13T21:38:12Z</time>
      </trkpt>
      <trkpt lat="47.37376" lon="-0.49833">
        <ele>27</ele>
        <time>2025-03-13T21:38:26Z</time>
      </trkpt>
      <trkpt lat="47.37387" lon="-0.49847">
        <ele>27</ele>
        <time>2025-03-13T21:38:37Z</time>
      </trkpt>
      <trkpt lat="47.37394" lon="-0.49856">
        <ele>27</ele>
        <time>2025-03-13T21:38:45Z</time>
      </trkpt>
      <trkpt lat="47.3741" lon="-0.49873">
        <ele>27</ele>
        <time>2025-03-13T21:39:01Z</time>
      </trkpt>
      <trkpt lat="47.37414" lon="-0.49868">
        <ele>27</ele>
        <time>2025-03-13T21:39:05Z</time>
      </trkpt>
      <trkpt lat="47.37451" lon="-0.49847">
        <ele>30</ele>
        <time>2025-03-13T21:39:36Z</time>
      </trkpt>
      <trkpt lat="47.37461" lon="-0.49844">
        <ele>30</ele>
        <time>2025-03-13T21:39:45Z</time>
      </trkpt>
      <trkpt lat="47.37484" lon="-0.4984">
        <ele>32</ele>
        <time>2025-03-13T21:40:03Z</time>
      </trkpt>
      <trkpt lat="47.37493" lon="-0.49837">
        <ele>33</ele>
        <time>2025-03-13T21:40:11Z</time>
      </trkpt>
      <trkpt lat="47.37553" lon="-0.49813">
        <ele>34</ele>
        <time>2025-03-13T21:41:00Z</time>
      </trkpt>
      <trkpt lat="47.37561" lon="-0.49809">
        <ele>34</ele>
        <time>2025-03-13T21:41:07Z</time>
      </trkpt>
      <trkpt lat="47.37694" lon="-0.49759">
        <ele>38</ele>
        <time>2025-03-13T21:42:57Z</time>
      </trkpt>
      <trkpt lat="47.37747" lon="-0.4974">
        <ele>38</ele>
        <time>2025-03-13T21:43:41Z</time>
      </trkpt>
      <trkpt lat="47.37834" lon="-0.49712">
        <ele>38</ele>
        <time>2025-03-13T21:44:52Z</time>
      </trkpt>
      <trkpt lat="47.37933" lon="-0.49678">
        <ele>41</ele>
        <time>2025-03-13T21:46:13Z</time>
      </trkpt>
      <trkpt lat="47.37933" lon="-0.49663">
        <ele>41</ele>
        <time>2025-03-13T21:46:21Z</time>
      </trkpt>
      <trkpt lat="47.37928" lon="-0.49527">
        <ele>42</ele>
        <time>2025-03-13T21:47:35Z</time>
      </trkpt>
      <trkpt lat="47.37926" lon="-0.49492">
        <ele>42</ele>
        <time>2025-03-13T21:47:54Z</time>
      </trkpt>
      <trkpt lat="47.37922" lon="-0.49451">
        <ele>43</ele>
        <time>2025-03-13T21:48:17Z</time>
      </trkpt>
      <trkpt lat="47.3792" lon="-0.49441">
        <ele>43</ele>
        <time>2025-03-13T21:48:22Z</time>
      </trkpt>
      <trkpt lat="47.37918" lon="-0.4934">
        <ele>44</ele>
        <time>2025-03-13T21:49:17Z</time>
      </trkpt>
      <trkpt lat="47.37922" lon="-0.49262">
        <ele>45</ele>
        <time>2025-03-13T21:50:00Z</time>
      </trkpt>
      <trkpt lat="47.37926" lon="-0.49243">
        <ele>45</ele>
        <time>2025-03-13T21:50:10Z</time>
      </trkpt>
      <trkpt lat="47.37963" lon="-0.49128">
        <ele>46</ele>
        <time>2025-03-13T21:51:19Z</time>
      </trkpt>
      <trkpt lat="47.37973" lon="-0.49101">
        <ele>46</ele>
        <time>2025-03-13T21:51:36Z</time>
      </trkpt>
      <trkpt lat="47.38014" lon="-0.48933">
        <ele>46</ele>
        <time>2025-03-13T21:53:13Z</time>
      </trkpt>
      <trkpt lat="47.38019" lon="-0.4891">
        <ele>46</ele>
        <time>2025-03-13T21:53:26Z</time>
      </trkpt>
      <trkpt lat="47.3802" lon="-0.48891">
        <ele>46</ele>
        <time>2025-03-13T21:53:36Z</time>
      </trkpt>
      <trkpt lat="47.38009" lon="-0.48796">
        <ele>45</ele>
        <time>2025-03-13T21:54:29Z</time>
      </trkpt>
      <trkpt lat="47.38005" lon="-0.48699">
        <ele>45</ele>
        <time>2025-03-13T21:55:21Z</time>
      </trkpt>
      <trkpt lat="47.38005" lon="-0.48687">
        <ele>45</ele>
        <time>2025-03-13T21:55:28Z</time>
      </trkpt>
      <trkpt lat="47.38007" lon="-0.48652">
        <ele>46</ele>
        <time>2025-03-13T21:55:47Z</time>
      </trkpt>
      <trkpt lat="47.38006" lon="-0.48646">
        <ele>46</ele>
        <time>2025-03-13T21:55:50Z</time>
      </trkpt>
      <trkpt lat="47.37969" lon="-0.48426">
        <ele>52</ele>
        <time>2025-03-13T21:57:53Z</time>
      </trkpt>
      <trkpt lat="47.37955" lon="-0.48381">
        <ele>52</ele>
        <time>2025-03-13T21:58:20Z</time>
      </trkpt>
      <trkpt lat="47.37924" lon="-0.48216">
        <ele>57</ele>
        <time>2025-03-13T21:59:53Z</time>
      </trkpt>
      <trkpt lat="47.37972" lon="-0.48193">
        <ele>59</ele>
        <time>2025-03-13T22:00:33Z</time>
      </trkpt>
      <trkpt lat="47.37986" lon="-0.48195">
        <ele>59</ele>
        <time>2025-03-13T22:00:44Z</time>
      </trkpt>
      <trkpt lat="47.38052" lon="-0.48258">
        <ele>57</ele>
        <time>2025-03-13T22:01:47Z</time>
      </trkpt>
      <trkpt lat="47.38094" lon="-0.48332">
        <ele>56</ele>
        <time>2025-03-13T22:02:40Z</time>
      </trkpt>
      <trkpt lat="47.38113" lon="-0.48373">
        <ele>55</ele>
        <time>2025-03-13T22:03:07Z</time>
      </trkpt>
      <trkpt lat="47.38129" lon="-0.48405">
        <ele>54</ele>
        <time>2025-03-13T22:03:28Z</time>
      </trkpt>
      <trkpt lat="47.38155" lon="-0.48488">
        <ele>53</ele>
        <time>2025-03-13T22:04:18Z</time>
      </trkpt>
      <trkpt lat="47.38176" lon="-0.48597">
        <ele>53</ele>
        <time>2025-03-13T22:05:19Z</time>
      </trkpt>
      <trkpt lat="47.38176" lon="-0.48608">
        <ele>53</ele>
        <time>2025-03-13T22:05:25Z</time>
      </trkpt>
      <trkpt lat="47.38176" lon="-0.4861">
        <ele>53</ele>
        <time>2025-03-13T22:05:26Z</time>
      </trkpt>
      <trkpt lat="47.38174" lon="-0.48628">
        <ele>53</ele>
        <time>2025-03-13T22:05:36Z</time>
      </trkpt>
      <trkpt lat="47.38178" lon="-0.48668">
        <ele>52</ele>
        <time>2025-03-13T22:05:58Z</time>
      </trkpt>
      <trkpt lat="47.38188" lon="-0.4874">
        <ele>52</ele>
        <time>2025-03-13T22:06:38Z</time>
      </trkpt>
      <trkpt lat="47.38203" lon="-0.48806">
        <ele>51</ele>
        <time>2025-03-13T22:07:16Z</time>
      </trkpt>
      <trkpt lat="47.38208" lon="-0.48846">
        <ele>50</ele>
        <time>2025-03-13T22:07:38Z</time>
      </trkpt>
      <trkpt lat="47.38213" lon="-0.48915">
        <ele>51</ele>
        <time>2025-03-13T22:08:15Z</time>
      </trkpt>
      <trkpt lat="47.38215" lon="-0.48967">
        <ele>52</ele>
        <time>2025-03-13T22:08:44Z</time>
      </trkpt>
      <trkpt lat="47.38235" lon="-0.49058">
        <ele>52</ele>
        <time>2025-03-13T22:09:35Z</time>
      </trkpt>
      <trkpt lat="47.38244" lon="-0.49107">
        <ele>52</ele>
        <time>2025-03-13T22:10:03Z</time>
      </trkpt>
      <trkpt lat="47.38254" lon="-0.49162">
        <ele>51</ele>
        <time>2025-03-13T22:10:34Z</time>
      </trkpt>
      <trkpt lat="47.3826" lon="-0.4919">
        <ele>51</ele>
        <time>2025-03-13T22:10:50Z</time>
      </trkpt>
      <trkpt lat="47.38268" lon="-0.49271">
        <ele>52</ele>
        <time>2025-03-13T22:11:34Z</time>
      </trkpt>
      <trkpt lat="47.3827" lon="-0.49303">
        <ele>52</ele>
        <time>2025-03-13T22:11:52Z</time>
      </trkpt>
      <trkpt lat="47.38271" lon="-0.4931">
        <ele>52</ele>
        <time>2025-03-13T22:11:55Z</time>
      </trkpt>
      <trkpt lat="47.38273" lon="-0.49315">
        <ele>52</ele>
        <time>2025-03-13T22:11:59Z</time>
      </trkpt>
      <trkpt lat="47.38279" lon="-0.49326">
        <ele>53</ele>
        <time>2025-03-13T22:12:06Z</time>
      </trkpt>
      <trkpt lat="47.38285" lon="-0.49332">
        <ele>53</ele>
        <time>2025-03-13T22:12:12Z</time>
      </trkpt>
      <trkpt lat="47.38289" lon="-0.49334">
        <ele>53</ele>
        <time>2025-03-13T22:12:15Z</time>
      </trkpt>
      <trkpt lat="47.38296" lon="-0.49336">
        <ele>53</ele>
        <time>2025-03-13T22:12:21Z</time>
      </trkpt>
      <trkpt lat="47.38321" lon="-0.49335">
        <ele>54</ele>
        <time>2025-03-13T22:12:41Z</time>
      </trkpt>
      <trkpt lat="47.38326" lon="-0.49336">
        <ele>54</ele>
        <time>2025-03-13T22:12:45Z</time>
      </trkpt>
      <trkpt lat="47.38335" lon="-0.49343">
        <ele>54</ele>
        <time>2025-03-13T22:12:53Z</time>
      </trkpt>
      <trkpt lat="47.38334" lon="-0.4935">
        <ele>54</ele>
        <time>2025-03-13T22:12:57Z</time>
      </trkpt>
      <trkpt lat="47.38325" lon="-0.49401">
        <ele>54</ele>
        <time>2025-03-13T22:13:26Z</time>
      </trkpt>
      <trkpt lat="47.38325" lon="-0.49424">
        <ele>54</ele>
        <time>2025-03-13T22:13:38Z</time>
      </trkpt>
      <trkpt lat="47.38357" lon="-0.49481">
        <ele>54</ele>
        <time>2025-03-13T22:14:18Z</time>
      </trkpt>
      <trkpt lat="47.38377" lon="-0.49507">
        <ele>54</ele>
        <time>2025-03-13T22:14:40Z</time>
      </trkpt>
      <trkpt lat="47.38393" lon="-0.49525">
        <ele>54</ele>
        <time>2025-03-13T22:14:56Z</time>
      </trkpt>
      <trkpt lat="47.38396" lon="-0.49533">
        <ele>54</ele>
        <time>2025-03-13T22:15:01Z</time>
      </trkpt>
      <trkpt lat="47.384" lon="-0.49547">
        <ele>54</ele>
        <time>2025-03-13T22:15:09Z</time>
      </trkpt>
      <trkpt lat="47.38418" lon="-0.49541">
        <ele>55</ele>
        <time>2025-03-13T22:15:24Z</time>
      </trkpt>
      <trkpt lat="47.38503" lon="-0.4953">
        <ele>56</ele>
        <time>2025-03-13T22:16:32Z</time>
      </trkpt>
      <trkpt lat="47.38512" lon="-0.49525">
        <ele>56</ele>
        <time>2025-03-13T22:16:40Z</time>
      </trkpt>
      <trkpt lat="47.38515" lon="-0.49521">
        <ele>56</ele>
        <time>2025-03-13T22:16:43Z</time>
      </trkpt>
      <trkpt lat="47.38518" lon="-0.49526">
        <ele>55</ele>
        <time>2025-03-13T22:16:47Z</time>
      </trkpt>
      <trkpt lat="47.38522" lon="-0.49539">
        <ele>55</ele>
        <time>2025-03-13T22:16:54Z</time>
      </trkpt>
      <trkpt lat="47.38523" lon="-0.49547">
        <ele>55</ele>
        <time>2025-03-13T22:16:59Z</time>
      </trkpt>
      <trkpt lat="47.38524" lon="-0.49558">
        <ele>55</ele>
        <time>2025-03-13T22:17:05Z</time>
      </trkpt>
      <trkpt lat="47.38528" lon="-0.49631">
        <ele>54</ele>
        <time>2025-03-13T22:17:45Z</time>
      </trkpt>
      <trkpt lat="47.38531" lon="-0.4965">
        <ele>54</ele>
        <time>2025-03-13T22:17:55Z</time>
      </trkpt>
      <trkpt lat="47.38532" lon="-0.49657">
        <ele>54</ele>
        <time>2025-03-13T22:17:59Z</time>
      </trkpt>
      <trkpt lat="47.38555" lon="-0.49793">
        <ele>54</ele>
        <time>2025-03-13T22:19:15Z</time>
      </trkpt>
      <trkpt lat="47.38564" lon="-0.49839">
        <ele>54</ele>
        <time>2025-03-13T22:19:41Z</time>
      </trkpt>
      <trkpt lat="47.38569" lon="-0.49865">
        <ele>53</ele>
        <time>2025-03-13T22:19:56Z</time>
      </trkpt>
      <trkpt lat="47.38581" lon="-0.49919">
        <ele>53</ele>
        <time>2025-03-13T22:20:26Z</time>
      </trkpt>
      <trkpt lat="47.38583" lon="-0.49941">
        <ele>53</ele>
        <time>2025-03-13T22:20:39Z</time>
      </trkpt>
      <trkpt lat="47.38582" lon="-0.50067">
        <ele>51</ele>
        <time>2025-03-13T22:21:47Z</time>
      </trkpt>
      <trkpt lat="47.38571" lon="-0.50075">
        <ele>51</ele>
        <time>2025-03-13T22:21:57Z</time>
      </trkpt>
      <trkpt lat="47.38563" lon="-0.5008">
        <ele>51</ele>
        <time>2025-03-13T22:22:04Z</time>
      </trkpt>
      <trkpt lat="47.38546" lon="-0.5008">
        <ele>51</ele>
        <time>2025-03-13T22:22:17Z</time>
      </trkpt>
      <trkpt lat="47.38491" lon="-0.50085">
        <ele>52</ele>
        <time>2025-03-13T22:23:01Z</time>
      </trkpt>
      <trkpt lat="47.38441" lon="-0.50096">
        <ele>51</ele>
        <time>2025-03-13T22:23:42Z</time>
      </trkpt>
      <trkpt lat="47.38365" lon="-0.50122">
        <ele>48</ele>
        <time>2025-03-13T22:24:44Z</time>
      </trkpt>
      <trkpt lat="47.38333" lon="-0.50146">
        <ele>48</ele>
        <time>2025-03-13T22:25:13Z</time>
      </trkpt>
      <trkpt lat="47.38329" lon="-0.50148">
        <ele>48</ele>
        <time>2025-03-13T22:25:16Z</time>
      </trkpt>
      <trkpt lat="47.38332" lon="-0.50166">
        <ele>48</ele>
        <time>2025-03-13T22:25:26Z</time>
      </trkpt>
      <trkpt lat="47.38331" lon="-0.50236">
        <ele>48</ele>
        <time>2025-03-13T22:26:04Z</time>
      </trkpt>
      <trkpt lat="47.38337" lon="-0.50374">
        <ele>50</ele>
        <time>2025-03-13T22:27:19Z</time>
      </trkpt>
      <trkpt lat="47.38342" lon="-0.504">
        <ele>51</ele>
        <time>2025-03-13T22:27:34Z</time>
      </trkpt>
      <trkpt lat="47.3838" lon="-0.50537">
        <ele>51</ele>
        <time>2025-03-13T22:28:54Z</time>
      </trkpt>
      <trkpt lat="47.38381" lon="-0.50544">
        <ele>51</ele>
        <time>2025-03-13T22:28:58Z</time>
      </trkpt>
      <trkpt lat="47.38382" lon="-0.50557">
        <ele>50</ele>
        <time>2025-03-13T22:29:05Z</time>
      </trkpt>
      <trkpt lat="47.38386" lon="-0.50569">
        <ele>50</ele>
        <time>2025-03-13T22:29:13Z</time>
      </trkpt>
      <trkpt lat="47.38383" lon="-0.50572">
        <ele>50</ele>
        <time>2025-03-13T22:29:15Z</time>
      </trkpt>
      <trkpt lat="47.38365" lon="-0.5061">
        <ele>49</ele>
        <time>2025-03-13T22:29:41Z</time>
      </trkpt>
      <trkpt lat="47.38358" lon="-0.50621">
        <ele>49</ele>
        <time>2025-03-13T22:29:49Z</time>
      </trkpt>
      <trkpt lat="47.38327" lon="-0.50643">
        <ele>48</ele>
        <time>2025-03-13T22:30:16Z</time>
      </trkpt>
      <trkpt lat="47.38316" lon="-0.50649">
        <ele>48</ele>
        <time>2025-03-13T22:30:26Z</time>
      </trkpt>
      <trkpt lat="47.38308" lon="-0.50649">
        <ele>48</ele>
        <time>2025-03-13T22:30:32Z</time>
      </trkpt>
      <trkpt lat="47.38299" lon="-0.50646">
        <ele>48</ele>
        <time>2025-03-13T22:30:39Z</time>
      </trkpt>
      <trkpt lat="47.38254" lon="-0.50624">
        <ele>48</ele>
        <time>2025-03-13T22:31:17Z</time>
      </trkpt>
      <trkpt lat="47.38236" lon="-0.50621">
        <ele>48</ele>
        <time>2025-03-13T22:31:32Z</time>
      </trkpt>
      <trkpt lat="47.38204" lon="-0.50623">
        <ele>46</ele>
        <time>2025-03-13T22:31:58Z</time>
      </trkpt>
      <trkpt lat="47.38113" lon="-0.50637">
        <ele>43</ele>
        <time>2025-03-13T22:33:11Z</time>
      </trkpt>
      <trkpt lat="47.38102" lon="-0.5064">
        <ele>42</ele>
        <time>2025-03-13T22:33:20Z</time>
      </trkpt>
      <trkpt lat="47.38082" lon="-0.50656">
        <ele>41</ele>
        <time>2025-03-13T22:33:38Z</time>
      </trkpt>
      <trkpt lat="47.38061" lon="-0.50685">
        <ele>40</ele>
        <time>2025-03-13T22:34:01Z</time>
      </trkpt>
      <trkpt lat="47.3806" lon="-0.50685">
        <ele>40</ele>
        <time>2025-03-13T22:34:02Z</time>
      </trkpt>
      <trkpt lat="47.38051" lon="-0.50689">
        <ele>40</ele>
        <time>2025-03-13T22:34:09Z</time>
      </trkpt>
      <trkpt lat="47.37998" lon="-0.50692">
        <ele>40</ele>
        <time>2025-03-13T22:34:52Z</time>
      </trkpt>
      <trkpt lat="47.3794" lon="-0.50709">
        <ele>38</ele>
        <time>2025-03-13T22:35:39Z</time>
      </trkpt>
      <trkpt lat="47.37937" lon="-0.50712">
        <ele>38</ele>
        <time>2025-03-13T22:35:42Z</time>
      </trkpt>
      <trkpt lat="47.3797" lon="-0.50773">
        <ele>39</ele>
        <time>2025-03-13T22:36:24Z</time>
      </trkpt>
      <trkpt lat="47.37985" lon="-0.50799">
        <ele>40</ele>
        <time>2025-03-13T22:36:43Z</time>
      </trkpt>
      <trkpt lat="47.37992" lon="-0.50808">
        <ele>41</ele>
        <time>2025-03-13T22:36:50Z</time>
      </trkpt>
      <trkpt lat="47.3799" lon="-0.50813">
        <ele>41</ele>
        <time>2025-03-13T22:36:53Z</time>
      </trkpt>
      <trkpt lat="47.37982" lon="-0.50831">
        <ele>41</ele>
        <time>2025-03-13T22:37:05Z</time>
      </trkpt>
      <trkpt lat="47.37968" lon="-0.50894">
        <ele>43</ele>
        <time>2025-03-13T22:37:41Z</time>
      </trkpt>
      <trkpt lat="47.37958" lon="-0.50938">
        <ele>46</ele>
        <time>2025-03-13T22:38:06Z</time>
      </trkpt>
      <trkpt lat="47.37955" lon="-0.50948">
        <ele>46</ele>
        <time>2025-03-13T22:38:12Z</time>
      </trkpt>
      <trkpt lat="47.37949" lon="-0.5096">
        <ele>47</ele>
        <time>2025-03-13T22:38:20Z</time>
      </trkpt>
      <trkpt lat="47.37935" lon="-0.50984">
        <ele>49</ele>
        <time>2025-03-13T22:38:37Z</time>
      </trkpt>
      <trkpt lat="47.3791" lon="-0.51012">
        <ele>50</ele>
        <time>2025-03-13T22:39:03Z</time>
      </trkpt>
      <trkpt lat="47.37904" lon="-0.51021">
        <ele>50</ele>
        <time>2025-03-13T22:39:09Z</time>
      </trkpt>
      <trkpt lat="47.379" lon="-0.5104">
        <ele>51</ele>
        <time>2025-03-13T22:39:20Z</time>
      </trkpt>
      <trkpt lat="47.37894" lon="-0.51114">
        <ele>52</ele>
        <time>2025-03-13T22:40:01Z</time>
      </trkpt>
      <trkpt lat="47.37895" lon="-0.5115">
        <ele>52</ele>
        <time>2025-03-13T22:40:20Z</time>
      </trkpt>
      <trkpt lat="47.37899" lon="-0.51171">
        <ele>52</ele>
        <time>2025-03-13T22:40:32Z</time>
      </trkpt>
      <trkpt lat="47.37905" lon="-0.51188">
        <ele>52</ele>
        <time>2025-03-13T22:40:42Z</time>
      </trkpt>
      <trkpt lat="47.3792" lon="-0.51212">
        <ele>53</ele>
        <time>2025-03-13T22:41:00Z</time>
      </trkpt>
      <trkpt lat="47.37876" lon="-0.51238">
        <ele>49</ele>
        <time>2025-03-13T22:41:38Z</time>
      </trkpt>
      <trkpt lat="47.37745" lon="-0.51335">
        <ele>45</ele>
        <time>2025-03-13T22:43:35Z</time>
      </trkpt>
      <trkpt lat="47.37675" lon="-0.51394">
        <ele>46</ele>
        <time>2025-03-13T22:44:40Z</time>
      </trkpt>
      <trkpt lat="47.37498" lon="-0.51495">
        <ele>25</ele>
        <time>2025-03-13T22:47:12Z</time>
      </trkpt>
      <trkpt lat="47.37521" lon="-0.51504">
        <ele>27</ele>
        <time>2025-03-13T22:47:31Z</time>
      </trkpt>
      <trkpt lat="47.37527" lon="-0.51506">
        <ele>28</ele>
        <time>2025-03-13T22:47:36Z</time>
      </trkpt>
      <trkpt lat="47.37526" lon="-0.51514">
        <ele>28</ele>
        <time>2025-03-13T22:47:40Z</time>
      </trkpt>
      <trkpt lat="47.37541" lon="-0.51604">
        <ele>26</ele>
        <time>2025-03-13T22:48:30Z</time>
      </trkpt>
      <trkpt lat="47.37555" lon="-0.51652">
        <ele>27</ele>
        <time>2025-03-13T22:48:59Z</time>
      </trkpt>
      <trkpt lat="47.37577" lon="-0.51738">
        <ele>24</ele>
        <time>2025-03-13T22:49:49Z</time>
      </trkpt>
      <trkpt lat="47.37592" lon="-0.5177">
        <ele>24</ele>
        <time>2025-03-13T22:50:10Z</time>
      </trkpt>
      <trkpt lat="47.37589" lon="-0.51799">
        <ele>23</ele>
        <time>2025-03-13T22:50:26Z</time>
      </trkpt>
      <trkpt lat="47.37547" lon="-0.51855">
        <ele>22</ele>
        <time>2025-03-13T22:51:11Z</time>
      </trkpt>
      <trkpt lat="47.37529" lon="-0.51875">
        <ele>22</ele>
        <time>2025-03-13T22:51:29Z</time>
      </trkpt>
      <trkpt lat="47.37515" lon="-0.51885">
        <ele>23</ele>
        <time>2025-03-13T22:51:41Z</time>
      </trkpt>
      <trkpt lat="47.3751" lon="-0.51895">
        <ele>23</ele>
        <time>2025-03-13T22:51:48Z</time>
      </trkpt>
      <trkpt lat="47.37478" lon="-0.51926">
        <ele>24</ele>
        <time>2025-03-13T22:52:19Z</time>
      </trkpt>
      <trkpt lat="47.37473" lon="-0.51933">
        <ele>25</ele>
        <time>2025-03-13T22:52:24Z</time>
      </trkpt>
      <trkpt lat="47.37469" lon="-0.51948">
        <ele>25</ele>
        <time>2025-03-13T22:52:33Z</time>
      </trkpt>
      <trkpt lat="47.37471" lon="-0.51973">
        <ele>25</ele>
        <time>2025-03-13T22:52:47Z</time>
      </trkpt>
      <trkpt lat="47.37468" lon="-0.51995">
        <ele>26</ele>
        <time>2025-03-13T22:52:59Z</time>
      </trkpt>
      <trkpt lat="47.37447" lon="-0.52071">
        <ele>29</ele>
        <time>2025-03-13T22:53:43Z</time>
      </trkpt>
      <trkpt lat="47.37434" lon="-0.52131">
        <ele>31</ele>
        <time>2025-03-13T22:54:18Z</time>
      </trkpt>
      <trkpt lat="47.37434" lon="-0.52152">
        <ele>32</ele>
        <time>2025-03-13T22:54:29Z</time>
      </trkpt>
      <trkpt lat="47.37439" lon="-0.52165">
        <ele>32</ele>
        <time>2025-03-13T22:54:37Z</time>
      </trkpt>
      <trkpt lat="47.37451" lon="-0.52189">
        <ele>33</ele>
        <time>2025-03-13T22:54:53Z</time>
      </trkpt>
      <trkpt lat="47.37479" lon="-0.52208">
        <ele>33</ele>
        <time>2025-03-13T22:55:18Z</time>
      </trkpt>
      <trkpt lat="47.37493" lon="-0.52215">
        <ele>33</ele>
        <time>2025-03-13T22:55:30Z</time>
      </trkpt>
      <trkpt lat="47.37519" lon="-0.52218">
        <ele>35</ele>
        <time>2025-03-13T22:55:51Z</time>
      </trkpt>
      <trkpt lat="47.37548" lon="-0.52219">
        <ele>36</ele>
        <time>2025-03-13T22:56:14Z</time>
      </trkpt>
      <trkpt lat="47.37569" lon="-0.52223">
        <ele>37</ele>
        <time>2025-03-13T22:56:31Z</time>
      </trkpt>
      <trkpt lat="47.37631" lon="-0.52257">
        <ele>41</ele>
        <time>2025-03-13T22:57:24Z</time>
      </trkpt>
      <trkpt lat="47.37654" lon="-0.52259">
        <ele>42</ele>
        <time>2025-03-13T22:57:42Z</time>
      </trkpt>
      <trkpt lat="47.37684" lon="-0.52255">
        <ele>43</ele>
        <time>2025-03-13T22:58:06Z</time>
      </trkpt>
      <trkpt lat="47.37729" lon="-0.52246">
        <ele>43</ele>
        <time>2025-03-13T22:58:43Z</time>
      </trkpt>
      <trkpt lat="47.37733" lon="-0.52258">
        <ele>43</ele>
        <time>2025-03-13T22:58:50Z</time>
      </trkpt>
      <trkpt lat="47.3774" lon="-0.52256">
        <ele>43</ele>
        <time>2025-03-13T22:58:56Z</time>
      </trkpt>
      <trkpt lat="47.37776" lon="-0.52258">
        <ele>43</ele>
        <time>2025-03-13T22:59:24Z</time>
      </trkpt>
      <trkpt lat="47.37783" lon="-0.52255">
        <ele>43</ele>
        <time>2025-03-13T22:59:30Z</time>
      </trkpt>
      <trkpt lat="47.37786" lon="-0.52252">
        <ele>43</ele>
        <time>2025-03-13T22:59:33Z</time>
      </trkpt>
      <trkpt lat="47.37788" lon="-0.52258">
        <ele>43</ele>
        <time>2025-03-13T22:59:37Z</time>
      </trkpt>
      <trkpt lat="47.378" lon="-0.52312">
        <ele>43</ele>
        <time>2025-03-13T23:00:08Z</time>
      </trkpt>
      <trkpt lat="47.37828" lon="-0.52314">
        <ele>42</ele>
        <time>2025-03-13T23:00:30Z</time>
      </trkpt>
      <trkpt lat="47.37839" lon="-0.52318">
        <ele>42</ele>
        <time>2025-03-13T23:00:39Z</time>
      </trkpt>
      <trkpt lat="47.37836" lon="-0.52323">
        <ele>42</ele>
        <time>2025-03-13T23:00:43Z</time>
      </trkpt>
      <trkpt lat="47.37829" lon="-0.52341">
        <ele>42</ele>
        <time>2025-03-13T23:00:54Z</time>
      </trkpt>
      <trkpt lat="47.3779" lon="-0.52382">
        <ele>43</ele>
        <time>2025-03-13T23:01:32Z</time>
      </trkpt>
      <trkpt lat="47.37745" lon="-0.52417">
        <ele>44</ele>
        <time>2025-03-13T23:02:13Z</time>
      </trkpt>
      <trkpt lat="47.37746" lon="-0.52424">
        <ele>44</ele>
        <time>2025-03-13T23:02:17Z</time>
      </trkpt>
      <trkpt lat="47.37755" lon="-0.52481">
        <ele>45</ele>
        <time>2025-03-13T23:02:49Z</time>
      </trkpt>
      <trkpt lat="47.3772" lon="-0.52505">
        <ele>45</ele>
        <time>2025-03-13T23:03:20Z</time>
      </trkpt>
      <trkpt lat="47.37656" lon="-0.52539">
        <ele>43</ele>
        <time>2025-03-13T23:04:14Z</time>
      </trkpt>
      <trkpt lat="47.37645" lon="-0.52543">
        <ele>43</ele>
        <time>2025-03-13T23:04:23Z</time>
      </trkpt>
      <trkpt lat="47.37646" lon="-0.5255">
        <ele>43</ele>
        <time>2025-03-13T23:04:27Z</time>
      </trkpt>
      <trkpt lat="47.37646" lon="-0.52633">
        <ele>43</ele>
        <time>2025-03-13T23:05:12Z</time>
      </trkpt>
      <trkpt lat="47.37645" lon="-0.52717">
        <ele>45</ele>
        <time>2025-03-13T23:05:58Z</time>
      </trkpt>
      <trkpt lat="47.37647" lon="-0.52809">
        <ele>48</ele>
        <time>2025-03-13T23:06:48Z</time>
      </trkpt>
      <trkpt lat="47.3763" lon="-0.52839">
        <ele>49</ele>
        <time>2025-03-13T23:07:09Z</time>
      </trkpt>
      <trkpt lat="47.37568" lon="-0.52922">
        <ele>50</ele>
        <time>2025-03-13T23:08:16Z</time>
      </trkpt>
      <trkpt lat="47.37556" lon="-0.52932">
        <ele>50</ele>
        <time>2025-03-13T23:08:27Z</time>
      </trkpt>
      <trkpt lat="47.3753" lon="-0.52945">
        <ele>51</ele>
        <time>2025-03-13T23:08:49Z</time>
      </trkpt>
      <trkpt lat="47.37488" lon="-0.52974">
        <ele>53</ele>
        <time>2025-03-13T23:09:26Z</time>
      </trkpt>
      <trkpt lat="47.37478" lon="-0.52982">
        <ele>54</ele>
        <time>2025-03-13T23:09:35Z</time>
      </trkpt>
      <trkpt lat="47.3747" lon="-0.52991">
        <ele>54</ele>
        <time>2025-03-13T23:09:43Z</time>
      </trkpt>
      <trkpt lat="47.37464" lon="-0.53001">
        <ele>55</ele>
        <time>2025-03-13T23:09:50Z</time>
      </trkpt>
      <trkpt lat="47.37453" lon="-0.53021">
        <ele>55</ele>
        <time>2025-03-13T23:10:04Z</time>
      </trkpt>
      <trkpt lat="47.37444" lon="-0.53049">
        <ele>56</ele>
        <time>2025-03-13T23:10:21Z</time>
      </trkpt>
      <trkpt lat="47.37422" lon="-0.53127">
        <ele>58</ele>
        <time>2025-03-13T23:11:07Z</time>
      </trkpt>
      <trkpt lat="47.37409" lon="-0.53163">
        <ele>59</ele>
        <time>2025-03-13T23:11:29Z</time>
      </trkpt>
      <trkpt lat="47.37394" lon="-0.53199">
        <ele>58</ele>
        <time>2025-03-13T23:11:52Z</time>
      </trkpt>
      <trkpt lat="47.37371" lon="-0.53246">
        <ele>58</ele>
        <time>2025-03-13T23:12:23Z</time>
      </trkpt>
      <trkpt lat="47.37357" lon="-0.53271">
        <ele>57</ele>
        <time>2025-03-13T23:12:41Z</time>
      </trkpt>
      <trkpt lat="47.37331" lon="-0.53308">
        <ele>57</ele>
        <time>2025-03-13T23:13:10Z</time>
      </trkpt>
      <trkpt lat="47.37313" lon="-0.53327">
        <ele>58</ele>
        <time>2025-03-13T23:13:28Z</time>
      </trkpt>
      <trkpt lat="47.37297" lon="-0.53347">
        <ele>58</ele>
        <time>2025-03-13T23:13:44Z</time>
      </trkpt>
      <trkpt lat="47.37281" lon="-0.53362">
        <ele>58</ele>
        <time>2025-03-13T23:14:00Z</time>
      </trkpt>
      <trkpt lat="47.37258" lon="-0.53374">
        <ele>59</ele>
        <time>2025-03-13T23:14:19Z</time>
      </trkpt>
      <trkpt lat="47.37232" lon="-0.53385">
        <ele>59</ele>
        <time>2025-03-13T23:14:41Z</time>
      </trkpt>
      <trkpt lat="47.37193" lon="-0.53398">
        <ele>60</ele>
        <time>2025-03-13T23:15:13Z</time>
      </trkpt>
      <trkpt lat="47.37171" lon="-0.53402">
        <ele>60</ele>
        <time>2025-03-13T23:15:30Z</time>
      </trkpt>
      <trkpt lat="47.3714" lon="-0.53404">
        <ele>61</ele>
        <time>2025-03-13T23:15:55Z</time>
      </trkpt>
      <trkpt lat="47.37114" lon="-0.53403">
        <ele>61</ele>
        <time>2025-03-13T23:16:16Z</time>
      </trkpt>
      <trkpt lat="47.37108" lon="-0.53403">
        <ele>61</ele>
        <time>2025-03-13T23:16:21Z</time>
      </trkpt>
      <trkpt lat="47.3707" lon="-0.53309">
        <ele>61</ele>
        <time>2025-03-13T23:17:20Z</time>
      </trkpt>
      <trkpt lat="47.37045" lon="-0.53258">
        <ele>60</ele>
        <time>2025-03-13T23:17:54Z</time>
      </trkpt>
      <trkpt lat="47.37015" lon="-0.532">
        <ele>60</ele>
        <time>2025-03-13T23:18:34Z</time>
      </trkpt>
      <trkpt lat="47.36995" lon="-0.53171">
        <ele>60</ele>
        <time>2025-03-13T23:18:56Z</time>
      </trkpt>
      <trkpt lat="47.36947" lon="-0.53168">
        <ele>59</ele>
        <time>2025-03-13T23:19:35Z</time>
      </trkpt>
      <trkpt lat="47.36904" lon="-0.53172">
        <ele>58</ele>
        <time>2025-03-13T23:20:09Z</time>
      </trkpt>
      <trkpt lat="47.36877" lon="-0.53168">
        <ele>59</ele>
        <time>2025-03-13T23:20:31Z</time>
      </trkpt>
      <trkpt lat="47.36805" lon="-0.5314">
        <ele>59</ele>
        <time>2025-03-13T23:21:31Z</time>
      </trkpt>
      <trkpt lat="47.36793" lon="-0.53131">
        <ele>59</ele>
        <time>2025-03-13T23:21:42Z</time>
      </trkpt>
      <trkpt lat="47.36788" lon="-0.53124">
        <ele>59</ele>
        <time>2025-03-13T23:21:47Z</time>
      </trkpt>
      <trkpt lat="47.36783" lon="-0.53112">
        <ele>59</ele>
        <time>2025-03-13T23:21:55Z</time>
      </trkpt>
      <trkpt lat="47.36758" lon="-0.52955">
        <ele>59</ele>
        <time>2025-03-13T23:23:22Z</time>
      </trkpt>
      <trkpt lat="47.36739" lon="-0.52876">
        <ele>60</ele>
        <time>2025-03-13T23:24:08Z</time>
      </trkpt>
      <trkpt lat="47.3674" lon="-0.52864">
        <ele>60</ele>
        <time>2025-03-13T23:24:14Z</time>
      </trkpt>
      <trkpt lat="47.36739" lon="-0.5285">
        <ele>60</ele>
        <time>2025-03-13T23:24:22Z</time>
      </trkpt>
      <trkpt lat="47.36736" lon="-0.52833">
        <ele>60</ele>
        <time>2025-03-13T23:24:31Z</time>
      </trkpt>
      <trkpt lat="47.36715" lon="-0.52762">
        <ele>61</ele>
        <time>2025-03-13T23:25:13Z</time>
      </trkpt>
      <trkpt lat="47.3671" lon="-0.52737">
        <ele>61</ele>
        <time>2025-03-13T23:25:27Z</time>
      </trkpt>
      <trkpt lat="47.36703" lon="-0.52716">
        <ele>62</ele>
        <time>2025-03-13T23:25:40Z</time>
      </trkpt>
      <trkpt lat="47.36696" lon="-0.52701">
        <ele>62</ele>
        <time>2025-03-13T23:25:50Z</time>
      </trkpt>
      <trkpt lat="47.36691" lon="-0.52688">
        <ele>62</ele>
        <time>2025-03-13T23:25:58Z</time>
      </trkpt>
      <trkpt lat="47.36681" lon="-0.5267">
        <ele>63</ele>
        <time>2025-03-13T23:26:11Z</time>
      </trkpt>
      <trkpt lat="47.3665" lon="-0.5262">
        <ele>64</ele>
        <time>2025-03-13T23:26:48Z</time>
      </trkpt>
      <trkpt lat="47.36647" lon="-0.52615">
        <ele>64</ele>
        <time>2025-03-13T23:26:51Z</time>
      </trkpt>
      <trkpt lat="47.36646" lon="-0.52606">
        <ele>64</ele>
        <time>2025-03-13T23:26:56Z</time>
      </trkpt>
      <trkpt lat="47.36646" lon="-0.526">
        <ele>64</ele>
        <time>2025-03-13T23:26:59Z</time>
      </trkpt>
      <trkpt lat="47.36605" lon="-0.52576">
        <ele>63</ele>
        <time>2025-03-13T23:27:35Z</time>
      </trkpt>
      <trkpt lat="47.36526" lon="-0.52534">
        <ele>60</ele>
        <time>2025-03-13T23:28:42Z</time>
      </trkpt>
      <trkpt lat="47.36512" lon="-0.52531">
        <ele>60</ele>
        <time>2025-03-13T23:28:53Z</time>
      </trkpt>
      <trkpt lat="47.36511" lon="-0.52528">
        <ele>60</ele>
        <time>2025-03-13T23:28:55Z</time>
      </trkpt>
      <trkpt lat="47.36508" lon="-0.52524">
        <ele>60</ele>
        <time>2025-03-13T23:28:58Z</time>
      </trkpt>
      <trkpt lat="47.36506" lon="-0.52524">
        <ele>59</ele>
        <time>2025-03-13T23:29:00Z</time>
      </trkpt>
      <trkpt lat="47.36503" lon="-0.52526">
        <ele>59</ele>
        <time>2025-03-13T23:29:03Z</time>
      </trkpt>
      <trkpt lat="47.36495" lon="-0.52518">
        <ele>59</ele>
        <time>2025-03-13T23:29:10Z</time>
      </trkpt>
      <trkpt lat="47.36484" lon="-0.52511">
        <ele>58</ele>
        <time>2025-03-13T23:29:20Z</time>
      </trkpt>
      <trkpt lat="47.36463" lon="-0.52499">
        <ele>57</ele>
        <time>2025-03-13T23:29:38Z</time>
      </trkpt>
      <trkpt lat="47.36454" lon="-0.52491">
        <ele>56</ele>
        <time>2025-03-13T23:29:46Z</time>
      </trkpt>
      <trkpt lat="47.36449" lon="-0.52485">
        <ele>56</ele>
        <time>2025-03-13T23:29:51Z</time>
      </trkpt>
      <trkpt lat="47.36443" lon="-0.52474">
        <ele>56</ele>
        <time>2025-03-13T23:29:59Z</time>
      </trkpt>
      <trkpt lat="47.36441" lon="-0.52468">
        <ele>56</ele>
        <time>2025-03-13T23:30:03Z</time>
      </trkpt>
      <trkpt lat="47.36412" lon="-0.52385">
        <ele>54</ele>
        <time>2025-03-13T23:30:53Z</time>
      </trkpt>
      <trkpt lat="47.3641" lon="-0.52374">
        <ele>54</ele>
        <time>2025-03-13T23:31:00Z</time>
      </trkpt>
      <trkpt lat="47.36408" lon="-0.52344">
        <ele>54</ele>
        <time>2025-03-13T23:31:16Z</time>
      </trkpt>
      <trkpt lat="47.3641" lon="-0.52325">
        <ele>53</ele>
        <time>2025-03-13T23:31:26Z</time>
      </trkpt>
      <trkpt lat="47.36413" lon="-0.52313">
        <ele>53</ele>
        <time>2025-03-13T23:31:33Z</time>
        <extensions>
          <visugpx:TrkExtension xmlns:visugpx="https://www.visugpx.com/editgpx/">
            <visugpx:node>1</visugpx:node>
            </visugpx:TrkExtension>
        </extensions>
      </trkpt>
    </trkseg>
  </trk>
  <trk>
    <name><![CDATA[Soulaines ter-20884331_19.6km]]></name>
    <extensions>
      <line xmlns="http://www.topografix.com/GPX/gpx_style/0/2">
        <color>FF0000</color>
        <opacity>0.65</opacity>
        <width>6</width>
      </line>
    </extensions>
    <trkseg>
      <trkpt lat="47.36431" lon="-0.5244">
        <ele>55</ele>
        <time>2025-03-13T19:22:59Z</time>
      </trkpt>
      <trkpt lat="47.36441" lon="-0.52468">
        <ele>56</ele>
        <time>2025-03-13T19:23:16Z</time>
      </trkpt>
      <trkpt lat="47.36443" lon="-0.52474">
        <ele>56</ele>
        <time>2025-03-13T19:23:20Z</time>
      </trkpt>
      <trkpt lat="47.36449" lon="-0.52485">
        <ele>56</ele>
        <time>2025-03-13T19:23:27Z</time>
      </trkpt>
      <trkpt lat="47.36409" lon="-0.52509">
        <ele>54</ele>
        <time>2025-03-13T19:24:02Z</time>
      </trkpt>
      <trkpt lat="47.36375" lon="-0.52521">
        <ele>53</ele>
        <time>2025-03-13T19:24:30Z</time>
      </trkpt>
      <trkpt lat="47.36368" lon="-0.5252">
        <ele>53</ele>
        <time>2025-03-13T19:24:36Z</time>
      </trkpt>
      <trkpt lat="47.3633" lon="-0.52516">
        <ele>52</ele>
        <time>2025-03-13T19:25:06Z</time>
      </trkpt>
      <trkpt lat="47.36245" lon="-0.52496">
        <ele>50</ele>
        <time>2025-03-13T19:26:15Z</time>
      </trkpt>
      <trkpt lat="47.36238" lon="-0.52519">
        <ele>50</ele>
        <time>2025-03-13T19:26:29Z</time>
      </trkpt>
      <trkpt lat="47.36224" lon="-0.52565">
        <ele>51</ele>
        <time>2025-03-13T19:26:56Z</time>
      </trkpt>
      <trkpt lat="47.36216" lon="-0.52601">
        <ele>52</ele>
        <time>2025-03-13T19:27:17Z</time>
      </trkpt>
      <trkpt lat="47.36187" lon="-0.5269">
        <ele>54</ele>
        <time>2025-03-13T19:28:10Z</time>
      </trkpt>
      <trkpt lat="47.36093" lon="-0.52939">
        <ele>65</ele>
        <time>2025-03-13T19:30:45Z</time>
      </trkpt>
      <trkpt lat="47.36092" lon="-0.52947">
        <ele>65</ele>
        <time>2025-03-13T19:30:49Z</time>
      </trkpt>
      <trkpt lat="47.36085" lon="-0.52982">
        <ele>66</ele>
        <time>2025-03-13T19:31:09Z</time>
      </trkpt>
      <trkpt lat="47.36071" lon="-0.53075">
        <ele>71</ele>
        <time>2025-03-13T19:32:01Z</time>
      </trkpt>
      <trkpt lat="47.36063" lon="-0.53121">
        <ele>73</ele>
        <time>2025-03-13T19:32:26Z</time>
      </trkpt>
      <trkpt lat="47.36045" lon="-0.53193">
        <ele>75</ele>
        <time>2025-03-13T19:33:08Z</time>
      </trkpt>
      <trkpt lat="47.36005" lon="-0.53311">
        <ele>78</ele>
        <time>2025-03-13T19:34:20Z</time>
      </trkpt>
      <trkpt lat="47.35987" lon="-0.53387">
        <ele>80</ele>
        <time>2025-03-13T19:35:03Z</time>
      </trkpt>
      <trkpt lat="47.35984" lon="-0.53386">
        <ele>80</ele>
        <time>2025-03-13T19:35:06Z</time>
      </trkpt>
      <trkpt lat="47.35942" lon="-0.53371">
        <ele>80</ele>
        <time>2025-03-13T19:35:40Z</time>
      </trkpt>
      <trkpt lat="47.35896" lon="-0.53359">
        <ele>80</ele>
        <time>2025-03-13T19:36:18Z</time>
      </trkpt>
      <trkpt lat="47.35825" lon="-0.5333">
        <ele>80</ele>
        <time>2025-03-13T19:37:17Z</time>
      </trkpt>
      <trkpt lat="47.35763" lon="-0.53307">
        <ele>78</ele>
        <time>2025-03-13T19:38:08Z</time>
      </trkpt>
      <trkpt lat="47.35712" lon="-0.53296">
        <ele>78</ele>
        <time>2025-03-13T19:38:49Z</time>
      </trkpt>
      <trkpt lat="47.35705" lon="-0.53296">
        <ele>79</ele>
        <time>2025-03-13T19:38:55Z</time>
      </trkpt>
      <trkpt lat="47.35675" lon="-0.53293">
        <ele>79</ele>
        <time>2025-03-13T19:39:19Z</time>
      </trkpt>
      <trkpt lat="47.35618" lon="-0.53277">
        <ele>80</ele>
        <time>2025-03-13T19:40:05Z</time>
      </trkpt>
      <trkpt lat="47.35605" lon="-0.53271">
        <ele>80</ele>
        <time>2025-03-13T19:40:16Z</time>
      </trkpt>
      <trkpt lat="47.3558" lon="-0.53257">
        <ele>81</ele>
        <time>2025-03-13T19:40:38Z</time>
      </trkpt>
      <trkpt lat="47.35533" lon="-0.53229">
        <ele>81</ele>
        <time>2025-03-13T19:41:18Z</time>
      </trkpt>
      <trkpt lat="47.35495" lon="-0.53212">
        <ele>80</ele>
        <time>2025-03-13T19:41:50Z</time>
      </trkpt>
      <trkpt lat="47.35492" lon="-0.53207">
        <ele>80</ele>
        <time>2025-03-13T19:41:54Z</time>
      </trkpt>
      <trkpt lat="47.35443" lon="-0.5319">
        <ele>79</ele>
        <time>2025-03-13T19:42:34Z</time>
      </trkpt>
      <trkpt lat="47.35365" lon="-0.53175">
        <ele>79</ele>
        <time>2025-03-13T19:43:37Z</time>
      </trkpt>
      <trkpt lat="47.35295" lon="-0.53156">
        <ele>79</ele>
        <time>2025-03-13T19:44:34Z</time>
      </trkpt>
      <trkpt lat="47.35227" lon="-0.5313">
        <ele>79</ele>
        <time>2025-03-13T19:45:30Z</time>
      </trkpt>
      <trkpt lat="47.35185" lon="-0.53102">
        <ele>78</ele>
        <time>2025-03-13T19:46:07Z</time>
      </trkpt>
      <trkpt lat="47.35151" lon="-0.5307">
        <ele>77</ele>
        <time>2025-03-13T19:46:39Z</time>
      </trkpt>
      <trkpt lat="47.35131" lon="-0.53048">
        <ele>77</ele>
        <time>2025-03-13T19:46:59Z</time>
      </trkpt>
      <trkpt lat="47.35154" lon="-0.53011">
        <ele>78</ele>
        <time>2025-03-13T19:47:27Z</time>
      </trkpt>
      <trkpt lat="47.35158" lon="-0.53003">
        <ele>78</ele>
        <time>2025-03-13T19:47:32Z</time>
      </trkpt>
      <trkpt lat="47.35158" lon="-0.52994">
        <ele>78</ele>
        <time>2025-03-13T19:47:37Z</time>
      </trkpt>
      <trkpt lat="47.35166" lon="-0.5299">
        <ele>78</ele>
        <time>2025-03-13T19:47:44Z</time>
      </trkpt>
      <trkpt lat="47.35158" lon="-0.52994">
        <ele>78</ele>
        <time>2025-03-13T19:47:50Z</time>
      </trkpt>
      <trkpt lat="47.35149" lon="-0.52996">
        <ele>78</ele>
        <time>2025-03-13T19:47:58Z</time>
      </trkpt>
      <trkpt lat="47.35137" lon="-0.52997">
        <ele>77</ele>
        <time>2025-03-13T19:48:07Z</time>
      </trkpt>
      <trkpt lat="47.35011" lon="-0.52998">
        <ele>75</ele>
        <time>2025-03-13T19:49:48Z</time>
      </trkpt>
      <trkpt lat="47.35003" lon="-0.52998">
        <ele>75</ele>
        <time>2025-03-13T19:49:55Z</time>
      </trkpt>
      <trkpt lat="47.34885" lon="-0.53001">
        <ele>79</ele>
        <time>2025-03-13T19:51:29Z</time>
      </trkpt>
      <trkpt lat="47.34857" lon="-0.53003">
        <ele>80</ele>
        <time>2025-03-13T19:51:51Z</time>
      </trkpt>
      <trkpt lat="47.34824" lon="-0.53008">
        <ele>80</ele>
        <time>2025-03-13T19:52:18Z</time>
      </trkpt>
      <trkpt lat="47.34819" lon="-0.53009">
        <ele>80</ele>
        <time>2025-03-13T19:52:22Z</time>
      </trkpt>
      <trkpt lat="47.34718" lon="-0.53027">
        <ele>82</ele>
        <time>2025-03-13T19:53:44Z</time>
      </trkpt>
      <trkpt lat="47.34691" lon="-0.5303">
        <ele>82</ele>
        <time>2025-03-13T19:54:05Z</time>
      </trkpt>
      <trkpt lat="47.34677" lon="-0.53029">
        <ele>83</ele>
        <time>2025-03-13T19:54:16Z</time>
      </trkpt>
      <trkpt lat="47.34336" lon="-0.52977">
        <ele>90</ele>
        <time>2025-03-13T19:58:51Z</time>
      </trkpt>
      <trkpt lat="47.34311" lon="-0.52972">
        <ele>91</ele>
        <time>2025-03-13T19:59:11Z</time>
      </trkpt>
      <trkpt lat="47.34301" lon="-0.52969">
        <ele>91</ele>
        <time>2025-03-13T19:59:19Z</time>
      </trkpt>
      <trkpt lat="47.34298" lon="-0.52968">
        <ele>91</ele>
        <time>2025-03-13T19:59:22Z</time>
      </trkpt>
      <trkpt lat="47.34278" lon="-0.52954">
        <ele>92</ele>
        <time>2025-03-13T19:59:39Z</time>
      </trkpt>
      <trkpt lat="47.34275" lon="-0.52953">
        <ele>92</ele>
        <time>2025-03-13T19:59:42Z</time>
      </trkpt>
      <trkpt lat="47.34273" lon="-0.52952">
        <ele>92</ele>
        <time>2025-03-13T19:59:44Z</time>
      </trkpt>
      <trkpt lat="47.34273" lon="-0.52937">
        <ele>92</ele>
        <time>2025-03-13T19:59:52Z</time>
      </trkpt>
      <trkpt lat="47.3427" lon="-0.5292">
        <ele>92</ele>
        <time>2025-03-13T20:00:01Z</time>
      </trkpt>
      <trkpt lat="47.34252" lon="-0.52842">
        <ele>92</ele>
        <time>2025-03-13T20:00:46Z</time>
      </trkpt>
      <trkpt lat="47.34222" lon="-0.52724">
        <ele>91</ele>
        <time>2025-03-13T20:01:54Z</time>
      </trkpt>
      <trkpt lat="47.3418" lon="-0.52558">
        <ele>89</ele>
        <time>2025-03-13T20:03:31Z</time>
      </trkpt>
      <trkpt lat="47.34175" lon="-0.52536">
        <ele>88</ele>
        <time>2025-03-13T20:03:43Z</time>
      </trkpt>
      <trkpt lat="47.34174" lon="-0.52519">
        <ele>88</ele>
        <time>2025-03-13T20:03:52Z</time>
      </trkpt>
      <trkpt lat="47.34176" lon="-0.5249">
        <ele>87</ele>
        <time>2025-03-13T20:04:08Z</time>
      </trkpt>
      <trkpt lat="47.34183" lon="-0.52416">
        <ele>87</ele>
        <time>2025-03-13T20:04:49Z</time>
      </trkpt>
      <trkpt lat="47.34184" lon="-0.52389">
        <ele>87</ele>
        <time>2025-03-13T20:05:03Z</time>
      </trkpt>
      <trkpt lat="47.34184" lon="-0.52356">
        <ele>87</ele>
        <time>2025-03-13T20:05:21Z</time>
      </trkpt>
      <trkpt lat="47.34185" lon="-0.52344">
        <ele>87</ele>
        <time>2025-03-13T20:05:28Z</time>
      </trkpt>
      <trkpt lat="47.34185" lon="-0.5234">
        <ele>87</ele>
        <time>2025-03-13T20:05:30Z</time>
      </trkpt>
      <trkpt lat="47.34182" lon="-0.52335">
        <ele>87</ele>
        <time>2025-03-13T20:05:34Z</time>
      </trkpt>
      <trkpt lat="47.34039" lon="-0.51873">
        <ele>93</ele>
        <time>2025-03-13T20:10:09Z</time>
      </trkpt>
      <trkpt lat="47.34036" lon="-0.51862">
        <ele>93</ele>
        <time>2025-03-13T20:10:16Z</time>
      </trkpt>
      <trkpt lat="47.33986" lon="-0.51708">
        <ele>94</ele>
        <time>2025-03-13T20:11:48Z</time>
      </trkpt>
      <trkpt lat="47.3397" lon="-0.51654">
        <ele>92</ele>
        <time>2025-03-13T20:12:20Z</time>
      </trkpt>
      <trkpt lat="47.33959" lon="-0.51605">
        <ele>90</ele>
        <time>2025-03-13T20:12:48Z</time>
      </trkpt>
      <trkpt lat="47.33951" lon="-0.51564">
        <ele>89</ele>
        <time>2025-03-13T20:13:11Z</time>
      </trkpt>
      <trkpt lat="47.33926" lon="-0.51382">
        <ele>87</ele>
        <time>2025-03-13T20:14:52Z</time>
      </trkpt>
      <trkpt lat="47.33924" lon="-0.51344">
        <ele>87</ele>
        <time>2025-03-13T20:15:13Z</time>
      </trkpt>
      <trkpt lat="47.33924" lon="-0.51252">
        <ele>86</ele>
        <time>2025-03-13T20:16:03Z</time>
      </trkpt>
      <trkpt lat="47.33921" lon="-0.51233">
        <ele>85</ele>
        <time>2025-03-13T20:16:13Z</time>
      </trkpt>
      <trkpt lat="47.3392" lon="-0.51227">
        <ele>85</ele>
        <time>2025-03-13T20:16:17Z</time>
      </trkpt>
      <trkpt lat="47.33957" lon="-0.51219">
        <ele>85</ele>
        <time>2025-03-13T20:16:47Z</time>
      </trkpt>
      <trkpt lat="47.34047" lon="-0.51185">
        <ele>82</ele>
        <time>2025-03-13T20:18:01Z</time>
      </trkpt>
      <trkpt lat="47.34055" lon="-0.51174">
        <ele>82</ele>
        <time>2025-03-13T20:18:10Z</time>
      </trkpt>
      <trkpt lat="47.34057" lon="-0.51142">
        <ele>81</ele>
        <time>2025-03-13T20:18:27Z</time>
      </trkpt>
      <trkpt lat="47.34078" lon="-0.51075">
        <ele>78</ele>
        <time>2025-03-13T20:19:07Z</time>
      </trkpt>
      <trkpt lat="47.34088" lon="-0.5107">
        <ele>78</ele>
        <time>2025-03-13T20:19:16Z</time>
      </trkpt>
      <trkpt lat="47.3412" lon="-0.51108">
        <ele>78</ele>
        <time>2025-03-13T20:19:49Z</time>
      </trkpt>
      <trkpt lat="47.34189" lon="-0.50985">
        <ele>74</ele>
        <time>2025-03-13T20:21:15Z</time>
      </trkpt>
      <trkpt lat="47.34208" lon="-0.50969">
        <ele>73</ele>
        <time>2025-03-13T20:21:33Z</time>
      </trkpt>
      <trkpt lat="47.34279" lon="-0.50959">
        <ele>71</ele>
        <time>2025-03-13T20:22:30Z</time>
      </trkpt>
      <trkpt lat="47.34407" lon="-0.50955">
        <ele>70</ele>
        <time>2025-03-13T20:24:12Z</time>
      </trkpt>
      <trkpt lat="47.34466" lon="-0.50959">
        <ele>71</ele>
        <time>2025-03-13T20:25:00Z</time>
      </trkpt>
      <trkpt lat="47.34495" lon="-0.50956">
        <ele>71</ele>
        <time>2025-03-13T20:25:23Z</time>
      </trkpt>
      <trkpt lat="47.34521" lon="-0.50924">
        <ele>71</ele>
        <time>2025-03-13T20:25:50Z</time>
      </trkpt>
      <trkpt lat="47.34547" lon="-0.50878">
        <ele>72</ele>
        <time>2025-03-13T20:26:23Z</time>
      </trkpt>
      <trkpt lat="47.3455" lon="-0.50871">
        <ele>73</ele>
        <time>2025-03-13T20:26:27Z</time>
      </trkpt>
      <trkpt lat="47.34589" lon="-0.50848">
        <ele>73</ele>
        <time>2025-03-13T20:27:01Z</time>
      </trkpt>
      <trkpt lat="47.34618" lon="-0.5083">
        <ele>71</ele>
        <time>2025-03-13T20:27:26Z</time>
      </trkpt>
      <trkpt lat="47.34627" lon="-0.50817">
        <ele>70</ele>
        <time>2025-03-13T20:27:36Z</time>
      </trkpt>
      <trkpt lat="47.34651" lon="-0.50801">
        <ele>68</ele>
        <time>2025-03-13T20:27:57Z</time>
      </trkpt>
      <trkpt lat="47.34716" lon="-0.50776">
        <ele>68</ele>
        <time>2025-03-13T20:28:51Z</time>
      </trkpt>
      <trkpt lat="47.34736" lon="-0.50777">
        <ele>68</ele>
        <time>2025-03-13T20:29:07Z</time>
      </trkpt>
      <trkpt lat="47.34796" lon="-0.5074">
        <ele>68</ele>
        <time>2025-03-13T20:29:59Z</time>
      </trkpt>
      <trkpt lat="47.34822" lon="-0.50718">
        <ele>69</ele>
        <time>2025-03-13T20:30:23Z</time>
      </trkpt>
      <trkpt lat="47.34836" lon="-0.50699">
        <ele>69</ele>
        <time>2025-03-13T20:30:38Z</time>
      </trkpt>
      <trkpt lat="47.3486" lon="-0.5063">
        <ele>67</ele>
        <time>2025-03-13T20:31:20Z</time>
      </trkpt>
      <trkpt lat="47.34878" lon="-0.50598">
        <ele>65</ele>
        <time>2025-03-13T20:31:43Z</time>
      </trkpt>
      <trkpt lat="47.34898" lon="-0.50582">
        <ele>64</ele>
        <time>2025-03-13T20:32:01Z</time>
      </trkpt>
      <trkpt lat="47.34915" lon="-0.50573">
        <ele>64</ele>
        <time>2025-03-13T20:32:16Z</time>
      </trkpt>
      <trkpt lat="47.34935" lon="-0.50554">
        <ele>63</ele>
        <time>2025-03-13T20:32:35Z</time>
      </trkpt>
      <trkpt lat="47.35" lon="-0.50469">
        <ele>61</ele>
        <time>2025-03-13T20:33:44Z</time>
      </trkpt>
      <trkpt lat="47.35032" lon="-0.50426">
        <ele>59</ele>
        <time>2025-03-13T20:34:19Z</time>
      </trkpt>
      <trkpt lat="47.35091" lon="-0.50329">
        <ele>59</ele>
        <time>2025-03-13T20:35:29Z</time>
      </trkpt>
      <trkpt lat="47.351" lon="-0.50318">
        <ele>58</ele>
        <time>2025-03-13T20:35:39Z</time>
      </trkpt>
      <trkpt lat="47.35103" lon="-0.50316">
        <ele>58</ele>
        <time>2025-03-13T20:35:41Z</time>
      </trkpt>
      <trkpt lat="47.35107" lon="-0.50308">
        <ele>58</ele>
        <time>2025-03-13T20:35:47Z</time>
      </trkpt>
      <trkpt lat="47.35118" lon="-0.50274">
        <ele>58</ele>
        <time>2025-03-13T20:36:07Z</time>
      </trkpt>
      <trkpt lat="47.35127" lon="-0.50253">
        <ele>57</ele>
        <time>2025-03-13T20:36:21Z</time>
      </trkpt>
      <trkpt lat="47.35135" lon="-0.50204">
        <ele>56</ele>
        <time>2025-03-13T20:36:48Z</time>
      </trkpt>
      <trkpt lat="47.35138" lon="-0.50205">
        <ele>56</ele>
        <time>2025-03-13T20:36:51Z</time>
      </trkpt>
      <trkpt lat="47.35135" lon="-0.50204">
        <ele>56</ele>
        <time>2025-03-13T20:36:53Z</time>
      </trkpt>
      <trkpt lat="47.35121" lon="-0.50165">
        <ele>55</ele>
        <time>2025-03-13T20:37:17Z</time>
      </trkpt>
      <trkpt lat="47.35118" lon="-0.50152">
        <ele>54</ele>
        <time>2025-03-13T20:37:24Z</time>
      </trkpt>
      <trkpt lat="47.35119" lon="-0.50096">
        <ele>53</ele>
        <time>2025-03-13T20:37:55Z</time>
      </trkpt>
      <trkpt lat="47.35118" lon="-0.50064">
        <ele>52</ele>
        <time>2025-03-13T20:38:12Z</time>
      </trkpt>
      <trkpt lat="47.351" lon="-0.49937">
        <ele>50</ele>
        <time>2025-03-13T20:39:23Z</time>
      </trkpt>
      <trkpt lat="47.35096" lon="-0.49876">
        <ele>48</ele>
        <time>2025-03-13T20:39:56Z</time>
      </trkpt>
      <trkpt lat="47.3509" lon="-0.49817">
        <ele>47</ele>
        <time>2025-03-13T20:40:28Z</time>
      </trkpt>
      <trkpt lat="47.3509" lon="-0.49816">
        <ele>47</ele>
        <time>2025-03-13T20:40:29Z</time>
      </trkpt>
      <trkpt lat="47.35092" lon="-0.49807">
        <ele>47</ele>
        <time>2025-03-13T20:40:34Z</time>
      </trkpt>
      <trkpt lat="47.35116" lon="-0.49784">
        <ele>46</ele>
        <time>2025-03-13T20:40:57Z</time>
      </trkpt>
      <trkpt lat="47.35119" lon="-0.49775">
        <ele>46</ele>
        <time>2025-03-13T20:41:02Z</time>
      </trkpt>
      <trkpt lat="47.35117" lon="-0.49763">
        <ele>46</ele>
        <time>2025-03-13T20:41:09Z</time>
      </trkpt>
      <trkpt lat="47.35103" lon="-0.49717">
        <ele>45</ele>
        <time>2025-03-13T20:41:36Z</time>
      </trkpt>
      <trkpt lat="47.35103" lon="-0.49697">
        <ele>45</ele>
        <time>2025-03-13T20:41:47Z</time>
      </trkpt>
      <trkpt lat="47.35112" lon="-0.49666">
        <ele>45</ele>
        <time>2025-03-13T20:42:05Z</time>
      </trkpt>
      <trkpt lat="47.35114" lon="-0.49664">
        <ele>45</ele>
        <time>2025-03-13T20:42:07Z</time>
      </trkpt>
      <trkpt lat="47.35117" lon="-0.4966">
        <ele>46</ele>
        <time>2025-03-13T20:42:11Z</time>
      </trkpt>
      <trkpt lat="47.3515" lon="-0.49616">
        <ele>48</ele>
        <time>2025-03-13T20:42:46Z</time>
      </trkpt>
      <trkpt lat="47.35159" lon="-0.49597">
        <ele>49</ele>
        <time>2025-03-13T20:42:59Z</time>
      </trkpt>
      <trkpt lat="47.35163" lon="-0.49566">
        <ele>50</ele>
        <time>2025-03-13T20:43:16Z</time>
      </trkpt>
      <trkpt lat="47.35166" lon="-0.49522">
        <ele>51</ele>
        <time>2025-03-13T20:43:40Z</time>
      </trkpt>
      <trkpt lat="47.35176" lon="-0.49474">
        <ele>54</ele>
        <time>2025-03-13T20:44:07Z</time>
      </trkpt>
      <trkpt lat="47.35196" lon="-0.49428">
        <ele>56</ele>
        <time>2025-03-13T20:44:37Z</time>
      </trkpt>
      <trkpt lat="47.35211" lon="-0.49429">
        <ele>56</ele>
        <time>2025-03-13T20:44:49Z</time>
      </trkpt>
      <trkpt lat="47.3523" lon="-0.49424">
        <ele>57</ele>
        <time>2025-03-13T20:45:04Z</time>
      </trkpt>
      <trkpt lat="47.35253" lon="-0.49412">
        <ele>57</ele>
        <time>2025-03-13T20:45:24Z</time>
      </trkpt>
      <trkpt lat="47.35311" lon="-0.49404">
        <ele>50</ele>
        <time>2025-03-13T20:46:10Z</time>
      </trkpt>
      <trkpt lat="47.35342" lon="-0.49402">
        <ele>47</ele>
        <time>2025-03-13T20:46:35Z</time>
      </trkpt>
      <trkpt lat="47.35357" lon="-0.49404">
        <ele>47</ele>
        <time>2025-03-13T20:46:47Z</time>
      </trkpt>
      <trkpt lat="47.35369" lon="-0.49409">
        <ele>46</ele>
        <time>2025-03-13T20:46:57Z</time>
      </trkpt>
      <trkpt lat="47.35378" lon="-0.49413">
        <ele>46</ele>
        <time>2025-03-13T20:47:05Z</time>
      </trkpt>
      <trkpt lat="47.35399" lon="-0.49438">
        <ele>46</ele>
        <time>2025-03-13T20:47:26Z</time>
      </trkpt>
      <trkpt lat="47.35425" lon="-0.49481">
        <ele>46</ele>
        <time>2025-03-13T20:47:58Z</time>
      </trkpt>
      <trkpt lat="47.35462" lon="-0.4953">
        <ele>46</ele>
        <time>2025-03-13T20:48:37Z</time>
      </trkpt>
      <trkpt lat="47.35464" lon="-0.49532">
        <ele>46</ele>
        <time>2025-03-13T20:48:39Z</time>
      </trkpt>
      <trkpt lat="47.35473" lon="-0.49544">
        <ele>46</ele>
        <time>2025-03-13T20:48:49Z</time>
      </trkpt>
      <trkpt lat="47.35504" lon="-0.49573">
        <ele>46</ele>
        <time>2025-03-13T20:49:19Z</time>
      </trkpt>
      <trkpt lat="47.3553" lon="-0.49603">
        <ele>48</ele>
        <time>2025-03-13T20:49:45Z</time>
      </trkpt>
      <trkpt lat="47.3555" lon="-0.49633">
        <ele>50</ele>
        <time>2025-03-13T20:50:08Z</time>
      </trkpt>
      <trkpt lat="47.35588" lon="-0.49706">
        <ele>56</ele>
        <time>2025-03-13T20:50:58Z</time>
      </trkpt>
      <trkpt lat="47.35635" lon="-0.49764">
        <ele>60</ele>
        <time>2025-03-13T20:51:47Z</time>
      </trkpt>
      <trkpt lat="47.35683" lon="-0.49765">
        <ele>61</ele>
        <time>2025-03-13T20:52:25Z</time>
      </trkpt>
      <trkpt lat="47.35698" lon="-0.49761">
        <ele>60</ele>
        <time>2025-03-13T20:52:37Z</time>
      </trkpt>
      <trkpt lat="47.35704" lon="-0.4976">
        <ele>60</ele>
        <time>2025-03-13T20:52:42Z</time>
      </trkpt>
      <trkpt lat="47.35732" lon="-0.49733">
        <ele>58</ele>
        <time>2025-03-13T20:53:09Z</time>
      </trkpt>
      <trkpt lat="47.35812" lon="-0.49649">
        <ele>54</ele>
        <time>2025-03-13T20:54:28Z</time>
      </trkpt>
      <trkpt lat="47.35882" lon="-0.49571">
        <ele>52</ele>
        <time>2025-03-13T20:55:38Z</time>
      </trkpt>
      <trkpt lat="47.35891" lon="-0.49561">
        <ele>52</ele>
        <time>2025-03-13T20:55:47Z</time>
      </trkpt>
      <trkpt lat="47.35974" lon="-0.49493">
        <ele>48</ele>
        <time>2025-03-13T20:57:03Z</time>
      </trkpt>
      <trkpt lat="47.35997" lon="-0.49489">
        <ele>47</ele>
        <time>2025-03-13T20:57:21Z</time>
      </trkpt>
      <trkpt lat="47.36024" lon="-0.49474">
        <ele>47</ele>
        <time>2025-03-13T20:57:44Z</time>
      </trkpt>
      <trkpt lat="47.36071" lon="-0.49406">
        <ele>45</ele>
        <time>2025-03-13T20:58:37Z</time>
      </trkpt>
      <trkpt lat="47.36113" lon="-0.49332">
        <ele>45</ele>
        <time>2025-03-13T20:59:30Z</time>
      </trkpt>
      <trkpt lat="47.36129" lon="-0.49334">
        <ele>46</ele>
        <time>2025-03-13T20:59:42Z</time>
      </trkpt>
      <trkpt lat="47.36229" lon="-0.49334">
        <ele>50</ele>
        <time>2025-03-13T21:01:02Z</time>
      </trkpt>
      <trkpt lat="47.36253" lon="-0.49338">
        <ele>51</ele>
        <time>2025-03-13T21:01:22Z</time>
      </trkpt>
      <trkpt lat="47.36256" lon="-0.49339">
        <ele>51</ele>
        <time>2025-03-13T21:01:24Z</time>
      </trkpt>
      <trkpt lat="47.36253" lon="-0.49338">
        <ele>51</ele>
        <time>2025-03-13T21:01:27Z</time>
      </trkpt>
      <trkpt lat="47.36303" lon="-0.4914">
        <ele>47</ele>
        <time>2025-03-13T21:03:21Z</time>
      </trkpt>
      <trkpt lat="47.36322" lon="-0.49071">
        <ele>46</ele>
        <time>2025-03-13T21:04:02Z</time>
      </trkpt>
      <trkpt lat="47.36327" lon="-0.49034">
        <ele>46</ele>
        <time>2025-03-13T21:04:22Z</time>
      </trkpt>
      <trkpt lat="47.36328" lon="-0.4897">
        <ele>46</ele>
        <time>2025-03-13T21:04:57Z</time>
      </trkpt>
      <trkpt lat="47.36333" lon="-0.48945">
        <ele>47</ele>
        <time>2025-03-13T21:05:11Z</time>
      </trkpt>
      <trkpt lat="47.36385" lon="-0.48811">
        <ele>45</ele>
        <time>2025-03-13T21:06:35Z</time>
      </trkpt>
      <trkpt lat="47.36387" lon="-0.48812">
        <ele>45</ele>
        <time>2025-03-13T21:06:37Z</time>
      </trkpt>
      <trkpt lat="47.36438" lon="-0.48848">
        <ele>45</ele>
        <time>2025-03-13T21:07:22Z</time>
      </trkpt>
      <trkpt lat="47.36527" lon="-0.48926">
        <ele>46</ele>
        <time>2025-03-13T21:08:45Z</time>
      </trkpt>
      <trkpt lat="47.3658" lon="-0.48977">
        <ele>45</ele>
        <time>2025-03-13T21:09:35Z</time>
      </trkpt>
      <trkpt lat="47.36659" lon="-0.49034">
        <ele>41</ele>
        <time>2025-03-13T21:10:46Z</time>
      </trkpt>
      <trkpt lat="47.36689" lon="-0.49062">
        <ele>40</ele>
        <time>2025-03-13T21:11:14Z</time>
      </trkpt>
      <trkpt lat="47.36711" lon="-0.49093">
        <ele>40</ele>
        <time>2025-03-13T21:11:38Z</time>
      </trkpt>
      <trkpt lat="47.36743" lon="-0.49144">
        <ele>40</ele>
        <time>2025-03-13T21:12:16Z</time>
      </trkpt>
      <trkpt lat="47.36755" lon="-0.49154">
        <ele>40</ele>
        <time>2025-03-13T21:12:27Z</time>
      </trkpt>
      <trkpt lat="47.36832" lon="-0.49137">
        <ele>38</ele>
        <time>2025-03-13T21:13:30Z</time>
      </trkpt>
      <trkpt lat="47.36875" lon="-0.49122">
        <ele>37</ele>
        <time>2025-03-13T21:14:05Z</time>
      </trkpt>
      <trkpt lat="47.36928" lon="-0.49102">
        <ele>37</ele>
        <time>2025-03-13T21:14:49Z</time>
      </trkpt>
      <trkpt lat="47.36911" lon="-0.4901">
        <ele>36</ele>
        <time>2025-03-13T21:15:40Z</time>
      </trkpt>
      <trkpt lat="47.37001" lon="-0.4897">
        <ele>36</ele>
        <time>2025-03-13T21:16:56Z</time>
      </trkpt>
      <trkpt lat="47.3699" lon="-0.48905">
        <ele>35</ele>
        <time>2025-03-13T21:17:32Z</time>
      </trkpt>
      <trkpt lat="47.36999" lon="-0.48897">
        <ele>35</ele>
        <time>2025-03-13T21:17:40Z</time>
      </trkpt>
      <trkpt lat="47.37015" lon="-0.48883">
        <ele>34</ele>
        <time>2025-03-13T21:17:55Z</time>
      </trkpt>
      <trkpt lat="47.37032" lon="-0.48863">
        <ele>34</ele>
        <time>2025-03-13T21:18:13Z</time>
      </trkpt>
      <trkpt lat="47.37051" lon="-0.48836">
        <ele>34</ele>
        <time>2025-03-13T21:18:34Z</time>
      </trkpt>
      <trkpt lat="47.37071" lon="-0.48819">
        <ele>34</ele>
        <time>2025-03-13T21:18:52Z</time>
      </trkpt>
      <trkpt lat="47.37121" lon="-0.48791">
        <ele>35</ele>
        <time>2025-03-13T21:19:35Z</time>
      </trkpt>
      <trkpt lat="47.37158" lon="-0.48777">
        <ele>34</ele>
        <time>2025-03-13T21:20:06Z</time>
      </trkpt>
      <trkpt lat="47.37182" lon="-0.48779">
        <ele>34</ele>
        <time>2025-03-13T21:20:25Z</time>
      </trkpt>
      <trkpt lat="47.37206" lon="-0.48785">
        <ele>33</ele>
        <time>2025-03-13T21:20:44Z</time>
      </trkpt>
      <trkpt lat="47.37302" lon="-0.48822">
        <ele>32</ele>
        <time>2025-03-13T21:22:04Z</time>
      </trkpt>
      <trkpt lat="47.37296" lon="-0.48801">
        <ele>32</ele>
        <time>2025-03-13T21:22:16Z</time>
      </trkpt>
      <trkpt lat="47.37289" lon="-0.48766">
        <ele>31</ele>
        <time>2025-03-13T21:22:36Z</time>
      </trkpt>
      <trkpt lat="47.37286" lon="-0.48744">
        <ele>31</ele>
        <time>2025-03-13T21:22:48Z</time>
      </trkpt>
      <trkpt lat="47.37287" lon="-0.48718">
        <ele>31</ele>
        <time>2025-03-13T21:23:02Z</time>
      </trkpt>
      <trkpt lat="47.37288" lon="-0.48684">
        <ele>31</ele>
        <time>2025-03-13T21:23:21Z</time>
      </trkpt>
      <trkpt lat="47.37294" lon="-0.48581">
        <ele>29</ele>
        <time>2025-03-13T21:24:17Z</time>
      </trkpt>
      <trkpt lat="47.37395" lon="-0.48531">
        <ele>28</ele>
        <time>2025-03-13T21:25:42Z</time>
      </trkpt>
      <trkpt lat="47.37404" lon="-0.4853">
        <ele>28</ele>
        <time>2025-03-13T21:25:49Z</time>
      </trkpt>
      <trkpt lat="47.37432" lon="-0.48522">
        <ele>29</ele>
        <time>2025-03-13T21:26:12Z</time>
      </trkpt>
      <trkpt lat="47.37447" lon="-0.48513">
        <ele>30</ele>
        <time>2025-03-13T21:26:25Z</time>
      </trkpt>
      <trkpt lat="47.37459" lon="-0.48499">
        <ele>31</ele>
        <time>2025-03-13T21:26:37Z</time>
      </trkpt>
      <trkpt lat="47.37505" lon="-0.48446">
        <ele>33</ele>
        <time>2025-03-13T21:27:24Z</time>
      </trkpt>
      <trkpt lat="47.37511" lon="-0.48461">
        <ele>34</ele>
        <time>2025-03-13T21:27:34Z</time>
      </trkpt>
      <trkpt lat="47.37584" lon="-0.48658">
        <ele>38</ele>
        <time>2025-03-13T21:29:35Z</time>
      </trkpt>
      <trkpt lat="47.37643" lon="-0.48818">
        <ele>36</ele>
        <time>2025-03-13T21:31:14Z</time>
      </trkpt>
      <trkpt lat="47.37645" lon="-0.48815">
        <ele>36</ele>
        <time>2025-03-13T21:31:16Z</time>
      </trkpt>
      <trkpt lat="47.37643" lon="-0.48818">
        <ele>36</ele>
        <time>2025-03-13T21:31:19Z</time>
      </trkpt>
      <trkpt lat="47.37634" lon="-0.4883">
        <ele>36</ele>
        <time>2025-03-13T21:31:28Z</time>
      </trkpt>
      <trkpt lat="47.37611" lon="-0.48852">
        <ele>35</ele>
        <time>2025-03-13T21:31:50Z</time>
      </trkpt>
      <trkpt lat="47.37574" lon="-0.48874">
        <ele>34</ele>
        <time>2025-03-13T21:32:22Z</time>
      </trkpt>
      <trkpt lat="47.37504" lon="-0.48904">
        <ele>30</ele>
        <time>2025-03-13T21:33:21Z</time>
      </trkpt>
      <trkpt lat="47.37498" lon="-0.48907">
        <ele>30</ele>
        <time>2025-03-13T21:33:26Z</time>
      </trkpt>
      <trkpt lat="47.37501" lon="-0.48928">
        <ele>30</ele>
        <time>2025-03-13T21:33:37Z</time>
      </trkpt>
      <trkpt lat="47.37503" lon="-0.48966">
        <ele>30</ele>
        <time>2025-03-13T21:33:58Z</time>
      </trkpt>
      <trkpt lat="47.37516" lon="-0.49012">
        <ele>31</ele>
        <time>2025-03-13T21:34:25Z</time>
      </trkpt>
      <trkpt lat="47.37519" lon="-0.49029">
        <ele>32</ele>
        <time>2025-03-13T21:34:35Z</time>
      </trkpt>
      <trkpt lat="47.37517" lon="-0.49052">
        <ele>32</ele>
        <time>2025-03-13T21:34:47Z</time>
      </trkpt>
      <trkpt lat="47.37511" lon="-0.49082">
        <ele>32</ele>
        <time>2025-03-13T21:35:04Z</time>
      </trkpt>
      <trkpt lat="47.37501" lon="-0.49107">
        <ele>31</ele>
        <time>2025-03-13T21:35:20Z</time>
      </trkpt>
      <trkpt lat="47.3749" lon="-0.49131">
        <ele>31</ele>
        <time>2025-03-13T21:35:36Z</time>
      </trkpt>
      <trkpt lat="47.37469" lon="-0.49166">
        <ele>30</ele>
        <time>2025-03-13T21:36:01Z</time>
      </trkpt>
      <trkpt lat="47.37455" lon="-0.49196">
        <ele>29</ele>
        <time>2025-03-13T21:36:21Z</time>
      </trkpt>
      <trkpt lat="47.37447" lon="-0.49223">
        <ele>29</ele>
        <time>2025-03-13T21:36:37Z</time>
      </trkpt>
      <trkpt lat="47.37392" lon="-0.4933">
        <ele>29</ele>
        <time>2025-03-13T21:37:49Z</time>
      </trkpt>
      <trkpt lat="47.37371" lon="-0.49385">
        <ele>30</ele>
        <time>2025-03-13T21:38:24Z</time>
      </trkpt>
      <trkpt lat="47.37354" lon="-0.49454">
        <ele>30</ele>
        <time>2025-03-13T21:39:04Z</time>
      </trkpt>
      <trkpt lat="47.37346" lon="-0.49496">
        <ele>30</ele>
        <time>2025-03-13T21:39:27Z</time>
      </trkpt>
      <trkpt lat="47.37338" lon="-0.49529">
        <ele>29</ele>
        <time>2025-03-13T21:39:46Z</time>
      </trkpt>
      <trkpt lat="47.3733" lon="-0.49603">
        <ele>28</ele>
        <time>2025-03-13T21:40:27Z</time>
      </trkpt>
      <trkpt lat="47.37325" lon="-0.49658">
        <ele>28</ele>
        <time>2025-03-13T21:40:57Z</time>
      </trkpt>
      <trkpt lat="47.37328" lon="-0.49711">
        <ele>27</ele>
        <time>2025-03-13T21:41:26Z</time>
      </trkpt>
      <trkpt lat="47.37325" lon="-0.49718">
        <ele>27</ele>
        <time>2025-03-13T21:41:30Z</time>
      </trkpt>
      <trkpt lat="47.37328" lon="-0.4972">
        <ele>27</ele>
        <time>2025-03-13T21:41:33Z</time>
      </trkpt>
      <trkpt lat="47.37332" lon="-0.49726">
        <ele>27</ele>
        <time>2025-03-13T21:41:37Z</time>
      </trkpt>
      <trkpt lat="47.37336" lon="-0.49734">
        <ele>27</ele>
        <time>2025-03-13T21:41:43Z</time>
      </trkpt>
      <trkpt lat="47.3736" lon="-0.498">
        <ele>27</ele>
        <time>2025-03-13T21:42:23Z</time>
      </trkpt>
      <trkpt lat="47.37366" lon="-0.49813">
        <ele>27</ele>
        <time>2025-03-13T21:42:32Z</time>
      </trkpt>
      <trkpt lat="47.37376" lon="-0.49833">
        <ele>27</ele>
        <time>2025-03-13T21:42:45Z</time>
      </trkpt>
      <trkpt lat="47.37387" lon="-0.49847">
        <ele>27</ele>
        <time>2025-03-13T21:42:57Z</time>
      </trkpt>
      <trkpt lat="47.37394" lon="-0.49856">
        <ele>27</ele>
        <time>2025-03-13T21:43:05Z</time>
      </trkpt>
      <trkpt lat="47.3741" lon="-0.49873">
        <ele>27</ele>
        <time>2025-03-13T21:43:20Z</time>
      </trkpt>
      <trkpt lat="47.37412" lon="-0.49875">
        <ele>27</ele>
        <time>2025-03-13T21:43:22Z</time>
      </trkpt>
      <trkpt lat="47.3741" lon="-0.49873">
        <ele>27</ele>
        <time>2025-03-13T21:43:24Z</time>
      </trkpt>
      <trkpt lat="47.37414" lon="-0.49868">
        <ele>27</ele>
        <time>2025-03-13T21:43:28Z</time>
      </trkpt>
      <trkpt lat="47.37451" lon="-0.49847">
        <ele>30</ele>
        <time>2025-03-13T21:44:00Z</time>
      </trkpt>
      <trkpt lat="47.37461" lon="-0.49844">
        <ele>30</ele>
        <time>2025-03-13T21:44:08Z</time>
      </trkpt>
      <trkpt lat="47.37484" lon="-0.4984">
        <ele>32</ele>
        <time>2025-03-13T21:44:27Z</time>
      </trkpt>
      <trkpt lat="47.37493" lon="-0.49837">
        <ele>33</ele>
        <time>2025-03-13T21:44:34Z</time>
      </trkpt>
      <trkpt lat="47.37553" lon="-0.49813">
        <ele>34</ele>
        <time>2025-03-13T21:45:24Z</time>
      </trkpt>
      <trkpt lat="47.37561" lon="-0.49809">
        <ele>34</ele>
        <time>2025-03-13T21:45:31Z</time>
      </trkpt>
      <trkpt lat="47.37694" lon="-0.49759">
        <ele>38</ele>
        <time>2025-03-13T21:47:21Z</time>
      </trkpt>
      <trkpt lat="47.37747" lon="-0.4974">
        <ele>38</ele>
        <time>2025-03-13T21:48:04Z</time>
      </trkpt>
      <trkpt lat="47.37834" lon="-0.49712">
        <ele>38</ele>
        <time>2025-03-13T21:49:16Z</time>
      </trkpt>
      <trkpt lat="47.37933" lon="-0.49678">
        <ele>41</ele>
        <time>2025-03-13T21:50:37Z</time>
      </trkpt>
      <trkpt lat="47.3795" lon="-0.49675">
        <ele>41</ele>
        <time>2025-03-13T21:50:51Z</time>
      </trkpt>
      <trkpt lat="47.3798" lon="-0.49674">
        <ele>41</ele>
        <time>2025-03-13T21:51:15Z</time>
      </trkpt>
      <trkpt lat="47.38014" lon="-0.49668">
        <ele>41</ele>
        <time>2025-03-13T21:51:42Z</time>
      </trkpt>
      <trkpt lat="47.38067" lon="-0.49657">
        <ele>43</ele>
        <time>2025-03-13T21:52:25Z</time>
      </trkpt>
      <trkpt lat="47.38088" lon="-0.49655">
        <ele>43</ele>
        <time>2025-03-13T21:52:42Z</time>
      </trkpt>
      <trkpt lat="47.38124" lon="-0.49652">
        <ele>45</ele>
        <time>2025-03-13T21:53:11Z</time>
      </trkpt>
      <trkpt lat="47.38157" lon="-0.49647">
        <ele>46</ele>
        <time>2025-03-13T21:53:37Z</time>
      </trkpt>
      <trkpt lat="47.38193" lon="-0.49639">
        <ele>48</ele>
        <time>2025-03-13T21:54:06Z</time>
      </trkpt>
      <trkpt lat="47.38286" lon="-0.49605">
        <ele>52</ele>
        <time>2025-03-13T21:55:23Z</time>
      </trkpt>
      <trkpt lat="47.38326" lon="-0.49587">
        <ele>53</ele>
        <time>2025-03-13T21:55:57Z</time>
      </trkpt>
      <trkpt lat="47.384" lon="-0.49547">
        <ele>54</ele>
        <time>2025-03-13T21:57:00Z</time>
      </trkpt>
      <trkpt lat="47.38418" lon="-0.49541">
        <ele>55</ele>
        <time>2025-03-13T21:57:14Z</time>
      </trkpt>
      <trkpt lat="47.38503" lon="-0.4953">
        <ele>56</ele>
        <time>2025-03-13T21:58:23Z</time>
      </trkpt>
      <trkpt lat="47.38512" lon="-0.49525">
        <ele>56</ele>
        <time>2025-03-13T21:58:30Z</time>
      </trkpt>
      <trkpt lat="47.38515" lon="-0.49521">
        <ele>56</ele>
        <time>2025-03-13T21:58:34Z</time>
      </trkpt>
      <trkpt lat="47.38518" lon="-0.49526">
        <ele>55</ele>
        <time>2025-03-13T21:58:37Z</time>
      </trkpt>
      <trkpt lat="47.38522" lon="-0.49539">
        <ele>55</ele>
        <time>2025-03-13T21:58:45Z</time>
      </trkpt>
      <trkpt lat="47.38524" lon="-0.49558">
        <ele>55</ele>
        <time>2025-03-13T21:58:55Z</time>
      </trkpt>
      <trkpt lat="47.38528" lon="-0.49631">
        <ele>54</ele>
        <time>2025-03-13T21:59:35Z</time>
      </trkpt>
      <trkpt lat="47.38531" lon="-0.4965">
        <ele>54</ele>
        <time>2025-03-13T21:59:46Z</time>
      </trkpt>
      <trkpt lat="47.38532" lon="-0.49657">
        <ele>54</ele>
        <time>2025-03-13T21:59:50Z</time>
      </trkpt>
      <trkpt lat="47.38555" lon="-0.49793">
        <ele>54</ele>
        <time>2025-03-13T22:01:06Z</time>
      </trkpt>
      <trkpt lat="47.38564" lon="-0.49839">
        <ele>54</ele>
        <time>2025-03-13T22:01:32Z</time>
      </trkpt>
      <trkpt lat="47.38569" lon="-0.49865">
        <ele>53</ele>
        <time>2025-03-13T22:01:46Z</time>
      </trkpt>
      <trkpt lat="47.38581" lon="-0.49919">
        <ele>53</ele>
        <time>2025-03-13T22:02:17Z</time>
      </trkpt>
      <trkpt lat="47.38583" lon="-0.49941">
        <ele>53</ele>
        <time>2025-03-13T22:02:29Z</time>
      </trkpt>
      <trkpt lat="47.38582" lon="-0.50065">
        <ele>51</ele>
        <time>2025-03-13T22:03:36Z</time>
      </trkpt>
      <trkpt lat="47.38582" lon="-0.50067">
        <ele>51</ele>
        <time>2025-03-13T22:03:37Z</time>
      </trkpt>
      <trkpt lat="47.38574" lon="-0.50074">
        <ele>51</ele>
        <time>2025-03-13T22:03:45Z</time>
      </trkpt>
      <trkpt lat="47.38563" lon="-0.5008">
        <ele>51</ele>
        <time>2025-03-13T22:03:54Z</time>
      </trkpt>
      <trkpt lat="47.38546" lon="-0.5008">
        <ele>51</ele>
        <time>2025-03-13T22:04:08Z</time>
      </trkpt>
      <trkpt lat="47.38491" lon="-0.50085">
        <ele>52</ele>
        <time>2025-03-13T22:04:52Z</time>
      </trkpt>
      <trkpt lat="47.38441" lon="-0.50096">
        <ele>51</ele>
        <time>2025-03-13T22:05:32Z</time>
      </trkpt>
      <trkpt lat="47.38365" lon="-0.50122">
        <ele>48</ele>
        <time>2025-03-13T22:06:35Z</time>
      </trkpt>
      <trkpt lat="47.38332" lon="-0.50147">
        <ele>48</ele>
        <time>2025-03-13T22:07:05Z</time>
      </trkpt>
      <trkpt lat="47.38329" lon="-0.50148">
        <ele>48</ele>
        <time>2025-03-13T22:07:07Z</time>
      </trkpt>
      <trkpt lat="47.38332" lon="-0.50166">
        <ele>48</ele>
        <time>2025-03-13T22:07:17Z</time>
      </trkpt>
      <trkpt lat="47.38331" lon="-0.50236">
        <ele>48</ele>
        <time>2025-03-13T22:07:55Z</time>
      </trkpt>
      <trkpt lat="47.38337" lon="-0.50374">
        <ele>50</ele>
        <time>2025-03-13T22:09:10Z</time>
      </trkpt>
      <trkpt lat="47.38342" lon="-0.504">
        <ele>51</ele>
        <time>2025-03-13T22:09:25Z</time>
      </trkpt>
      <trkpt lat="47.3838" lon="-0.50537">
        <ele>51</ele>
        <time>2025-03-13T22:10:45Z</time>
      </trkpt>
      <trkpt lat="47.38381" lon="-0.50544">
        <ele>51</ele>
        <time>2025-03-13T22:10:49Z</time>
      </trkpt>
      <trkpt lat="47.38382" lon="-0.50557">
        <ele>50</ele>
        <time>2025-03-13T22:10:56Z</time>
      </trkpt>
      <trkpt lat="47.38386" lon="-0.50569">
        <ele>50</ele>
        <time>2025-03-13T22:11:03Z</time>
      </trkpt>
      <trkpt lat="47.38383" lon="-0.50572">
        <ele>50</ele>
        <time>2025-03-13T22:11:06Z</time>
      </trkpt>
      <trkpt lat="47.38365" lon="-0.5061">
        <ele>49</ele>
        <time>2025-03-13T22:11:31Z</time>
      </trkpt>
      <trkpt lat="47.38358" lon="-0.50621">
        <ele>49</ele>
        <time>2025-03-13T22:11:39Z</time>
      </trkpt>
      <trkpt lat="47.38327" lon="-0.50643">
        <ele>48</ele>
        <time>2025-03-13T22:12:07Z</time>
      </trkpt>
      <trkpt lat="47.38316" lon="-0.50649">
        <ele>48</ele>
        <time>2025-03-13T22:12:16Z</time>
      </trkpt>
      <trkpt lat="47.38308" lon="-0.50649">
        <ele>48</ele>
        <time>2025-03-13T22:12:23Z</time>
      </trkpt>
      <trkpt lat="47.38299" lon="-0.50646">
        <ele>48</ele>
        <time>2025-03-13T22:12:30Z</time>
      </trkpt>
      <trkpt lat="47.38254" lon="-0.50624">
        <ele>48</ele>
        <time>2025-03-13T22:13:08Z</time>
      </trkpt>
      <trkpt lat="47.38236" lon="-0.50621">
        <ele>48</ele>
        <time>2025-03-13T22:13:23Z</time>
      </trkpt>
      <trkpt lat="47.38204" lon="-0.50623">
        <ele>46</ele>
        <time>2025-03-13T22:13:48Z</time>
      </trkpt>
      <trkpt lat="47.38153" lon="-0.50631">
        <ele>44</ele>
        <time>2025-03-13T22:14:29Z</time>
      </trkpt>
      <trkpt lat="47.38102" lon="-0.5064">
        <ele>42</ele>
        <time>2025-03-13T22:15:10Z</time>
      </trkpt>
      <trkpt lat="47.38082" lon="-0.50656">
        <ele>41</ele>
        <time>2025-03-13T22:15:29Z</time>
      </trkpt>
      <trkpt lat="47.38061" lon="-0.50685">
        <ele>40</ele>
        <time>2025-03-13T22:15:52Z</time>
      </trkpt>
      <trkpt lat="47.38066" lon="-0.50695">
        <ele>40</ele>
        <time>2025-03-13T22:15:58Z</time>
      </trkpt>
      <trkpt lat="47.38068" lon="-0.50837">
        <ele>41</ele>
        <time>2025-03-13T22:17:15Z</time>
      </trkpt>
      <trkpt lat="47.38052" lon="-0.50858">
        <ele>42</ele>
        <time>2025-03-13T22:17:33Z</time>
      </trkpt>
      <trkpt lat="47.38042" lon="-0.51034">
        <ele>52</ele>
        <time>2025-03-13T22:19:08Z</time>
      </trkpt>
      <trkpt lat="47.38072" lon="-0.51128">
        <ele>55</ele>
        <time>2025-03-13T22:20:05Z</time>
      </trkpt>
      <trkpt lat="47.38049" lon="-0.51197">
        <ele>56</ele>
        <time>2025-03-13T22:20:46Z</time>
      </trkpt>
      <trkpt lat="47.3792" lon="-0.51212">
        <ele>53</ele>
        <time>2025-03-13T22:22:30Z</time>
      </trkpt>
      <trkpt lat="47.37876" lon="-0.51238">
        <ele>49</ele>
        <time>2025-03-13T22:23:08Z</time>
      </trkpt>
      <trkpt lat="47.37745" lon="-0.51335">
        <ele>45</ele>
        <time>2025-03-13T22:25:05Z</time>
      </trkpt>
      <trkpt lat="47.37675" lon="-0.51394">
        <ele>46</ele>
        <time>2025-03-13T22:26:10Z</time>
      </trkpt>
      <trkpt lat="47.37498" lon="-0.51495">
        <ele>25</ele>
        <time>2025-03-13T22:28:42Z</time>
      </trkpt>
      <trkpt lat="47.37512" lon="-0.51501">
        <ele>26</ele>
        <time>2025-03-13T22:28:53Z</time>
      </trkpt>
      <trkpt lat="47.37527" lon="-0.51506">
        <ele>28</ele>
        <time>2025-03-13T22:29:06Z</time>
      </trkpt>
      <trkpt lat="47.37526" lon="-0.51514">
        <ele>28</ele>
        <time>2025-03-13T22:29:10Z</time>
      </trkpt>
      <trkpt lat="47.37541" lon="-0.51604">
        <ele>26</ele>
        <time>2025-03-13T22:30:00Z</time>
      </trkpt>
      <trkpt lat="47.37555" lon="-0.51652">
        <ele>27</ele>
        <time>2025-03-13T22:30:29Z</time>
      </trkpt>
      <trkpt lat="47.37577" lon="-0.51738">
        <ele>24</ele>
        <time>2025-03-13T22:31:19Z</time>
      </trkpt>
      <trkpt lat="47.37592" lon="-0.5177">
        <ele>24</ele>
        <time>2025-03-13T22:31:40Z</time>
      </trkpt>
      <trkpt lat="47.37589" lon="-0.51799">
        <ele>23</ele>
        <time>2025-03-13T22:31:56Z</time>
      </trkpt>
      <trkpt lat="47.37547" lon="-0.51855">
        <ele>22</ele>
        <time>2025-03-13T22:32:41Z</time>
      </trkpt>
      <trkpt lat="47.37529" lon="-0.51875">
        <ele>22</ele>
        <time>2025-03-13T22:32:59Z</time>
      </trkpt>
      <trkpt lat="47.37515" lon="-0.51885">
        <ele>23</ele>
        <time>2025-03-13T22:33:11Z</time>
      </trkpt>
      <trkpt lat="47.3751" lon="-0.51895">
        <ele>23</ele>
        <time>2025-03-13T22:33:18Z</time>
      </trkpt>
      <trkpt lat="47.37478" lon="-0.51926">
        <ele>24</ele>
        <time>2025-03-13T22:33:49Z</time>
      </trkpt>
      <trkpt lat="47.37473" lon="-0.51933">
        <ele>25</ele>
        <time>2025-03-13T22:33:54Z</time>
      </trkpt>
      <trkpt lat="47.37469" lon="-0.51948">
        <ele>25</ele>
        <time>2025-03-13T22:34:03Z</time>
      </trkpt>
      <trkpt lat="47.37471" lon="-0.51973">
        <ele>25</ele>
        <time>2025-03-13T22:34:17Z</time>
      </trkpt>
      <trkpt lat="47.3747" lon="-0.51981">
        <ele>26</ele>
        <time>2025-03-13T22:34:21Z</time>
      </trkpt>
      <trkpt lat="47.37468" lon="-0.51995">
        <ele>26</ele>
        <time>2025-03-13T22:34:29Z</time>
      </trkpt>
      <trkpt lat="47.37447" lon="-0.52071">
        <ele>29</ele>
        <time>2025-03-13T22:35:13Z</time>
      </trkpt>
      <trkpt lat="47.37434" lon="-0.52131">
        <ele>31</ele>
        <time>2025-03-13T22:35:47Z</time>
      </trkpt>
      <trkpt lat="47.37434" lon="-0.52152">
        <ele>32</ele>
        <time>2025-03-13T22:35:59Z</time>
      </trkpt>
      <trkpt lat="47.37439" lon="-0.52165">
        <ele>32</ele>
        <time>2025-03-13T22:36:07Z</time>
      </trkpt>
      <trkpt lat="47.37451" lon="-0.52189">
        <ele>33</ele>
        <time>2025-03-13T22:36:23Z</time>
      </trkpt>
      <trkpt lat="47.37479" lon="-0.52208">
        <ele>33</ele>
        <time>2025-03-13T22:36:48Z</time>
      </trkpt>
      <trkpt lat="47.37493" lon="-0.52215">
        <ele>33</ele>
        <time>2025-03-13T22:37:00Z</time>
      </trkpt>
      <trkpt lat="47.37519" lon="-0.52218">
        <ele>35</ele>
        <time>2025-03-13T22:37:21Z</time>
      </trkpt>
      <trkpt lat="47.37548" lon="-0.52219">
        <ele>36</ele>
        <time>2025-03-13T22:37:44Z</time>
      </trkpt>
      <trkpt lat="47.37569" lon="-0.52223">
        <ele>37</ele>
        <time>2025-03-13T22:38:01Z</time>
      </trkpt>
      <trkpt lat="47.37631" lon="-0.52257">
        <ele>41</ele>
        <time>2025-03-13T22:38:54Z</time>
      </trkpt>
      <trkpt lat="47.37649" lon="-0.52258">
        <ele>42</ele>
        <time>2025-03-13T22:39:08Z</time>
      </trkpt>
      <trkpt lat="47.37654" lon="-0.52259">
        <ele>42</ele>
        <time>2025-03-13T22:39:12Z</time>
      </trkpt>
      <trkpt lat="47.37684" lon="-0.52255">
        <ele>43</ele>
        <time>2025-03-13T22:39:36Z</time>
      </trkpt>
      <trkpt lat="47.37729" lon="-0.52246">
        <ele>43</ele>
        <time>2025-03-13T22:40:13Z</time>
      </trkpt>
      <trkpt lat="47.37733" lon="-0.52258">
        <ele>43</ele>
        <time>2025-03-13T22:40:20Z</time>
      </trkpt>
      <trkpt lat="47.3774" lon="-0.52256">
        <ele>43</ele>
        <time>2025-03-13T22:40:26Z</time>
      </trkpt>
      <trkpt lat="47.37776" lon="-0.52258">
        <ele>43</ele>
        <time>2025-03-13T22:40:54Z</time>
      </trkpt>
      <trkpt lat="47.37781" lon="-0.52256">
        <ele>43</ele>
        <time>2025-03-13T22:40:59Z</time>
      </trkpt>
      <trkpt lat="47.37786" lon="-0.52252">
        <ele>43</ele>
        <time>2025-03-13T22:41:03Z</time>
      </trkpt>
      <trkpt lat="47.3782" lon="-0.52207">
        <ele>42</ele>
        <time>2025-03-13T22:41:40Z</time>
      </trkpt>
      <trkpt lat="47.37834" lon="-0.52202">
        <ele>42</ele>
        <time>2025-03-13T22:41:51Z</time>
      </trkpt>
      <trkpt lat="47.37843" lon="-0.52205">
        <ele>43</ele>
        <time>2025-03-13T22:41:59Z</time>
      </trkpt>
      <trkpt lat="47.37844" lon="-0.52207">
        <ele>43</ele>
        <time>2025-03-13T22:42:00Z</time>
      </trkpt>
      <trkpt lat="47.37858" lon="-0.52254">
        <ele>43</ele>
        <time>2025-03-13T22:42:28Z</time>
      </trkpt>
      <trkpt lat="47.37873" lon="-0.52307">
        <ele>42</ele>
        <time>2025-03-13T22:42:59Z</time>
      </trkpt>
      <trkpt lat="47.37903" lon="-0.52402">
        <ele>38</ele>
        <time>2025-03-13T22:43:56Z</time>
      </trkpt>
      <trkpt lat="47.37904" lon="-0.52406">
        <ele>38</ele>
        <time>2025-03-13T22:43:58Z</time>
      </trkpt>
      <trkpt lat="47.37935" lon="-0.52407">
        <ele>36</ele>
        <time>2025-03-13T22:44:23Z</time>
      </trkpt>
      <trkpt lat="47.3796" lon="-0.52413">
        <ele>35</ele>
        <time>2025-03-13T22:44:43Z</time>
      </trkpt>
      <trkpt lat="47.3799" lon="-0.52424">
        <ele>32</ele>
        <time>2025-03-13T22:45:08Z</time>
      </trkpt>
      <trkpt lat="47.3801" lon="-0.52433">
        <ele>31</ele>
        <time>2025-03-13T22:45:25Z</time>
      </trkpt>
      <trkpt lat="47.38026" lon="-0.52444">
        <ele>30</ele>
        <time>2025-03-13T22:45:39Z</time>
      </trkpt>
      <trkpt lat="47.38064" lon="-0.52478">
        <ele>27</ele>
        <time>2025-03-13T22:46:14Z</time>
      </trkpt>
      <trkpt lat="47.38084" lon="-0.52499">
        <ele>25</ele>
        <time>2025-03-13T22:46:34Z</time>
      </trkpt>
      <trkpt lat="47.3812" lon="-0.52542">
        <ele>24</ele>
        <time>2025-03-13T22:47:11Z</time>
      </trkpt>
      <trkpt lat="47.38119" lon="-0.52543">
        <ele>24</ele>
        <time>2025-03-13T22:47:12Z</time>
      </trkpt>
      <trkpt lat="47.3807" lon="-0.5261">
        <ele>23</ele>
        <time>2025-03-13T22:48:05Z</time>
      </trkpt>
      <trkpt lat="47.37979" lon="-0.52672">
        <ele>28</ele>
        <time>2025-03-13T22:49:26Z</time>
      </trkpt>
      <trkpt lat="47.37871" lon="-0.5272">
        <ele>34</ele>
        <time>2025-03-13T22:50:56Z</time>
      </trkpt>
      <trkpt lat="47.37831" lon="-0.52735">
        <ele>36</ele>
        <time>2025-03-13T22:51:29Z</time>
      </trkpt>
      <trkpt lat="47.37745" lon="-0.52724">
        <ele>42</ele>
        <time>2025-03-13T22:52:38Z</time>
      </trkpt>
      <trkpt lat="47.37721" lon="-0.5271">
        <ele>42</ele>
        <time>2025-03-13T22:52:59Z</time>
      </trkpt>
      <trkpt lat="47.37645" lon="-0.52718">
        <ele>45</ele>
        <time>2025-03-13T22:54:00Z</time>
      </trkpt>
      <trkpt lat="47.37647" lon="-0.52809">
        <ele>48</ele>
        <time>2025-03-13T22:54:49Z</time>
      </trkpt>
      <trkpt lat="47.3763" lon="-0.52839">
        <ele>49</ele>
        <time>2025-03-13T22:55:10Z</time>
      </trkpt>
      <trkpt lat="47.37568" lon="-0.52922">
        <ele>50</ele>
        <time>2025-03-13T22:56:17Z</time>
      </trkpt>
      <trkpt lat="47.37556" lon="-0.52932">
        <ele>50</ele>
        <time>2025-03-13T22:56:28Z</time>
      </trkpt>
      <trkpt lat="47.3753" lon="-0.52945">
        <ele>51</ele>
        <time>2025-03-13T22:56:50Z</time>
      </trkpt>
      <trkpt lat="47.37488" lon="-0.52974">
        <ele>53</ele>
        <time>2025-03-13T22:57:28Z</time>
      </trkpt>
      <trkpt lat="47.37478" lon="-0.52982">
        <ele>54</ele>
        <time>2025-03-13T22:57:37Z</time>
      </trkpt>
      <trkpt lat="47.3747" lon="-0.52991">
        <ele>54</ele>
        <time>2025-03-13T22:57:45Z</time>
      </trkpt>
      <trkpt lat="47.37464" lon="-0.53001">
        <ele>55</ele>
        <time>2025-03-13T22:57:52Z</time>
      </trkpt>
      <trkpt lat="47.37453" lon="-0.53021">
        <ele>55</ele>
        <time>2025-03-13T22:58:06Z</time>
      </trkpt>
      <trkpt lat="47.37444" lon="-0.53049">
        <ele>56</ele>
        <time>2025-03-13T22:58:23Z</time>
      </trkpt>
      <trkpt lat="47.37422" lon="-0.53127">
        <ele>58</ele>
        <time>2025-03-13T22:59:09Z</time>
      </trkpt>
      <trkpt lat="47.37409" lon="-0.53163">
        <ele>59</ele>
        <time>2025-03-13T22:59:31Z</time>
      </trkpt>
      <trkpt lat="47.37394" lon="-0.53199">
        <ele>58</ele>
        <time>2025-03-13T22:59:54Z</time>
      </trkpt>
      <trkpt lat="47.37371" lon="-0.53246">
        <ele>58</ele>
        <time>2025-03-13T23:00:25Z</time>
      </trkpt>
      <trkpt lat="47.37357" lon="-0.53271">
        <ele>57</ele>
        <time>2025-03-13T23:00:43Z</time>
      </trkpt>
      <trkpt lat="47.37331" lon="-0.53308">
        <ele>57</ele>
        <time>2025-03-13T23:01:12Z</time>
      </trkpt>
      <trkpt lat="47.37313" lon="-0.53327">
        <ele>58</ele>
        <time>2025-03-13T23:01:29Z</time>
      </trkpt>
      <trkpt lat="47.37297" lon="-0.53347">
        <ele>58</ele>
        <time>2025-03-13T23:01:46Z</time>
      </trkpt>
      <trkpt lat="47.37281" lon="-0.53362">
        <ele>58</ele>
        <time>2025-03-13T23:02:01Z</time>
      </trkpt>
      <trkpt lat="47.37258" lon="-0.53374">
        <ele>59</ele>
        <time>2025-03-13T23:02:21Z</time>
      </trkpt>
      <trkpt lat="47.37232" lon="-0.53385">
        <ele>59</ele>
        <time>2025-03-13T23:02:42Z</time>
      </trkpt>
      <trkpt lat="47.37193" lon="-0.53398">
        <ele>60</ele>
        <time>2025-03-13T23:03:14Z</time>
      </trkpt>
      <trkpt lat="47.37171" lon="-0.53402">
        <ele>60</ele>
        <time>2025-03-13T23:03:32Z</time>
      </trkpt>
      <trkpt lat="47.3714" lon="-0.53404">
        <ele>61</ele>
        <time>2025-03-13T23:03:57Z</time>
      </trkpt>
      <trkpt lat="47.37108" lon="-0.53403">
        <ele>61</ele>
        <time>2025-03-13T23:04:23Z</time>
      </trkpt>
      <trkpt lat="47.37107" lon="-0.534">
        <ele>61</ele>
        <time>2025-03-13T23:04:24Z</time>
      </trkpt>
      <trkpt lat="47.3707" lon="-0.53309">
        <ele>61</ele>
        <time>2025-03-13T23:05:22Z</time>
      </trkpt>
      <trkpt lat="47.37045" lon="-0.53258">
        <ele>60</ele>
        <time>2025-03-13T23:05:56Z</time>
      </trkpt>
      <trkpt lat="47.37015" lon="-0.532">
        <ele>60</ele>
        <time>2025-03-13T23:06:36Z</time>
      </trkpt>
      <trkpt lat="47.36999" lon="-0.53177">
        <ele>60</ele>
        <time>2025-03-13T23:06:54Z</time>
      </trkpt>
      <trkpt lat="47.36995" lon="-0.53171">
        <ele>60</ele>
        <time>2025-03-13T23:06:58Z</time>
      </trkpt>
      <trkpt lat="47.36947" lon="-0.53168">
        <ele>59</ele>
        <time>2025-03-13T23:07:37Z</time>
      </trkpt>
      <trkpt lat="47.36904" lon="-0.53172">
        <ele>58</ele>
        <time>2025-03-13T23:08:11Z</time>
      </trkpt>
      <trkpt lat="47.36877" lon="-0.53168">
        <ele>59</ele>
        <time>2025-03-13T23:08:33Z</time>
      </trkpt>
      <trkpt lat="47.36805" lon="-0.5314">
        <ele>59</ele>
        <time>2025-03-13T23:09:32Z</time>
      </trkpt>
      <trkpt lat="47.36793" lon="-0.53131">
        <ele>59</ele>
        <time>2025-03-13T23:09:43Z</time>
      </trkpt>
      <trkpt lat="47.36788" lon="-0.53124">
        <ele>59</ele>
        <time>2025-03-13T23:09:49Z</time>
      </trkpt>
      <trkpt lat="47.36783" lon="-0.53112">
        <ele>59</ele>
        <time>2025-03-13T23:09:56Z</time>
      </trkpt>
      <trkpt lat="47.36758" lon="-0.52955">
        <ele>59</ele>
        <time>2025-03-13T23:11:24Z</time>
      </trkpt>
      <trkpt lat="47.36739" lon="-0.52876">
        <ele>60</ele>
        <time>2025-03-13T23:12:09Z</time>
      </trkpt>
      <trkpt lat="47.3674" lon="-0.52864">
        <ele>60</ele>
        <time>2025-03-13T23:12:16Z</time>
      </trkpt>
      <trkpt lat="47.36739" lon="-0.5285">
        <ele>60</ele>
        <time>2025-03-13T23:12:24Z</time>
      </trkpt>
      <trkpt lat="47.36736" lon="-0.52833">
        <ele>60</ele>
        <time>2025-03-13T23:12:33Z</time>
      </trkpt>
      <trkpt lat="47.36715" lon="-0.52762">
        <ele>61</ele>
        <time>2025-03-13T23:13:15Z</time>
      </trkpt>
      <trkpt lat="47.3671" lon="-0.52737">
        <ele>61</ele>
        <time>2025-03-13T23:13:29Z</time>
      </trkpt>
      <trkpt lat="47.36703" lon="-0.52716">
        <ele>62</ele>
        <time>2025-03-13T23:13:42Z</time>
      </trkpt>
      <trkpt lat="47.36696" lon="-0.52701">
        <ele>62</ele>
        <time>2025-03-13T23:13:52Z</time>
      </trkpt>
      <trkpt lat="47.36691" lon="-0.52688">
        <ele>62</ele>
        <time>2025-03-13T23:14:00Z</time>
      </trkpt>
      <trkpt lat="47.36681" lon="-0.5267">
        <ele>63</ele>
        <time>2025-03-13T23:14:13Z</time>
      </trkpt>
      <trkpt lat="47.3665" lon="-0.5262">
        <ele>64</ele>
        <time>2025-03-13T23:14:49Z</time>
      </trkpt>
      <trkpt lat="47.36647" lon="-0.52615">
        <ele>64</ele>
        <time>2025-03-13T23:14:53Z</time>
      </trkpt>
      <trkpt lat="47.36646" lon="-0.52606">
        <ele>64</ele>
        <time>2025-03-13T23:14:58Z</time>
      </trkpt>
      <trkpt lat="47.36646" lon="-0.526">
        <ele>64</ele>
        <time>2025-03-13T23:15:01Z</time>
      </trkpt>
      <trkpt lat="47.36605" lon="-0.52576">
        <ele>63</ele>
        <time>2025-03-13T23:15:36Z</time>
      </trkpt>
      <trkpt lat="47.36526" lon="-0.52534">
        <ele>60</ele>
        <time>2025-03-13T23:16:44Z</time>
      </trkpt>
      <trkpt lat="47.36523" lon="-0.52534">
        <ele>60</ele>
        <time>2025-03-13T23:16:46Z</time>
      </trkpt>
      <trkpt lat="47.36512" lon="-0.52531">
        <ele>60</ele>
        <time>2025-03-13T23:16:55Z</time>
      </trkpt>
      <trkpt lat="47.36511" lon="-0.52528">
        <ele>60</ele>
        <time>2025-03-13T23:16:57Z</time>
      </trkpt>
      <trkpt lat="47.36508" lon="-0.52524">
        <ele>60</ele>
        <time>2025-03-13T23:17:00Z</time>
      </trkpt>
      <trkpt lat="47.36506" lon="-0.52524">
        <ele>59</ele>
        <time>2025-03-13T23:17:02Z</time>
      </trkpt>
      <trkpt lat="47.36503" lon="-0.52526">
        <ele>59</ele>
        <time>2025-03-13T23:17:04Z</time>
      </trkpt>
      <trkpt lat="47.36495" lon="-0.52518">
        <ele>59</ele>
        <time>2025-03-13T23:17:12Z</time>
      </trkpt>
      <trkpt lat="47.36484" lon="-0.52511">
        <ele>58</ele>
        <time>2025-03-13T23:17:22Z</time>
      </trkpt>
      <trkpt lat="47.36463" lon="-0.52499">
        <ele>57</ele>
        <time>2025-03-13T23:17:40Z</time>
      </trkpt>
      <trkpt lat="47.36454" lon="-0.52491">
        <ele>56</ele>
        <time>2025-03-13T23:17:48Z</time>
      </trkpt>
      <trkpt lat="47.36449" lon="-0.52485">
        <ele>56</ele>
        <time>2025-03-13T23:17:53Z</time>
      </trkpt>
      <trkpt lat="47.36443" lon="-0.52474">
        <ele>56</ele>
        <time>2025-03-13T23:18:01Z</time>
      </trkpt>
      <trkpt lat="47.36441" lon="-0.52468">
        <ele>56</ele>
        <time>2025-03-13T23:18:05Z</time>
      </trkpt>
      <trkpt lat="47.36431" lon="-0.52441">
        <ele>55</ele>
        <time>2025-03-13T23:18:21Z</time>
        <extensions>
          <visugpx:TrkExtension xmlns:visugpx="https://www.visugpx.com/editgpx/">
            <visugpx:node>1</visugpx:node>
            </visugpx:TrkExtension>
        </extensions>
      </trkpt>
    </trkseg>
  </trk>
  <trk>
    <name><![CDATA[Soulaines_effectue_19km]]></name>
    <desc><![CDATA[J2 le 03/04/25]]></desc>
    <extensions>
      <line xmlns="http://www.topografix.com/GPX/gpx_style/0/2">
        <color>0000ff</color>
        <width>4</width>
      </line>
    </extensions>
    <trkseg>
      <trkpt lat="47.3642" lon="-0.52467">
        <ele>55.1</ele>
      </trkpt>
      <trkpt lat="47.36449" lon="-0.52481">
        <ele>56.2</ele>
      </trkpt>
      <trkpt lat="47.3642" lon="-0.52499">
        <ele>54.2</ele>
      </trkpt>
      <trkpt lat="47.36387" lon="-0.5252">
        <ele>53.9</ele>
      </trkpt>
      <trkpt lat="47.36338" lon="-0.52513">
        <ele>51.7</ele>
      </trkpt>
      <trkpt lat="47.36245" lon="-0.52496">
        <ele>49</ele>
      </trkpt>
      <trkpt lat="47.36224" lon="-0.52565">
        <ele>50.4</ele>
      </trkpt>
      <trkpt lat="47.36216" lon="-0.52601">
        <ele>51.9</ele>
      </trkpt>
      <trkpt lat="47.36187" lon="-0.5269">
        <ele>55.1</ele>
      </trkpt>
      <trkpt lat="47.36093" lon="-0.52939">
        <ele>65.5</ele>
      </trkpt>
      <trkpt lat="47.36085" lon="-0.52982">
        <ele>66.7</ele>
      </trkpt>
      <trkpt lat="47.36071" lon="-0.53075">
        <ele>71.1</ele>
      </trkpt>
      <trkpt lat="47.36063" lon="-0.53121">
        <ele>71.9</ele>
      </trkpt>
      <trkpt lat="47.36045" lon="-0.53193">
        <ele>74.7</ele>
      </trkpt>
      <trkpt lat="47.36005" lon="-0.53311">
        <ele>79.2</ele>
      </trkpt>
      <trkpt lat="47.35987" lon="-0.53387">
        <ele>81</ele>
      </trkpt>
      <trkpt lat="47.3598" lon="-0.53416">
        <ele>82</ele>
      </trkpt>
      <trkpt lat="47.35987" lon="-0.53387">
        <ele>81</ele>
      </trkpt>
      <trkpt lat="47.35942" lon="-0.53371">
        <ele>81.4</ele>
      </trkpt>
      <trkpt lat="47.35896" lon="-0.53359">
        <ele>81.2</ele>
      </trkpt>
      <trkpt lat="47.35825" lon="-0.5333">
        <ele>80.6</ele>
      </trkpt>
      <trkpt lat="47.35763" lon="-0.53307">
        <ele>79.5</ele>
      </trkpt>
      <trkpt lat="47.35705" lon="-0.53296">
        <ele>78.9</ele>
      </trkpt>
      <trkpt lat="47.35702" lon="-0.53263">
        <ele>78.7</ele>
      </trkpt>
      <trkpt lat="47.35699" lon="-0.53257">
        <ele>78.8</ele>
      </trkpt>
      <trkpt lat="47.35702" lon="-0.53263">
        <ele>78.7</ele>
      </trkpt>
      <trkpt lat="47.35691" lon="-0.5318">
        <ele>78.1</ele>
      </trkpt>
      <trkpt lat="47.35686" lon="-0.53174">
        <ele>78.3</ele>
      </trkpt>
      <trkpt lat="47.35644" lon="-0.53144">
        <ele>79.2</ele>
      </trkpt>
      <trkpt lat="47.35633" lon="-0.53131">
        <ele>79</ele>
      </trkpt>
      <trkpt lat="47.35525" lon="-0.52983">
        <ele>77.4</ele>
      </trkpt>
      <trkpt lat="47.35495" lon="-0.52935">
        <ele>76.8</ele>
      </trkpt>
      <trkpt lat="47.35487" lon="-0.52921">
        <ele>76.1</ele>
      </trkpt>
      <trkpt lat="47.35475" lon="-0.52889">
        <ele>75.1</ele>
      </trkpt>
      <trkpt lat="47.35474" lon="-0.52865">
        <ele>75.1</ele>
      </trkpt>
      <trkpt lat="47.35457" lon="-0.52857">
        <ele>73.8</ele>
      </trkpt>
      <trkpt lat="47.3544" lon="-0.52842">
        <ele>72.8</ele>
      </trkpt>
      <trkpt lat="47.35425" lon="-0.52833">
        <ele>71.6</ele>
      </trkpt>
      <trkpt lat="47.35418" lon="-0.52824">
        <ele>71.1</ele>
      </trkpt>
      <trkpt lat="47.35403" lon="-0.52788">
        <ele>71.2</ele>
      </trkpt>
      <trkpt lat="47.35393" lon="-0.5276">
        <ele>70.4</ele>
      </trkpt>
      <trkpt lat="47.35392" lon="-0.52754">
        <ele>70.1</ele>
      </trkpt>
      <trkpt lat="47.35388" lon="-0.52722">
        <ele>70</ele>
      </trkpt>
      <trkpt lat="47.35386" lon="-0.5265">
        <ele>67.6</ele>
      </trkpt>
      <trkpt lat="47.35384" lon="-0.52611">
        <ele>66.2</ele>
      </trkpt>
      <trkpt lat="47.35383" lon="-0.52566">
        <ele>65.4</ele>
      </trkpt>
      <trkpt lat="47.35377" lon="-0.52528">
        <ele>64</ele>
      </trkpt>
      <trkpt lat="47.35367" lon="-0.5248">
        <ele>61.7</ele>
      </trkpt>
      <trkpt lat="47.35352" lon="-0.52446">
        <ele>59.1</ele>
      </trkpt>
      <trkpt lat="47.35345" lon="-0.52421">
        <ele>58.2</ele>
      </trkpt>
      <trkpt lat="47.35301" lon="-0.52337">
        <ele>62.4</ele>
      </trkpt>
      <trkpt lat="47.35303" lon="-0.52332">
        <ele>62.3</ele>
        <extensions>
          <visugpx:TrkExtension xmlns:visugpx="https://www.visugpx.com/editgpx/">
            <visugpx:node>1</visugpx:node>
            </visugpx:TrkExtension>
        </extensions>
      </trkpt>
      <trkpt lat="47.35301" lon="-0.52337">
        <ele>62.4</ele>
      </trkpt>
      <trkpt lat="47.3524" lon="-0.52442">
        <ele>65.1</ele>
      </trkpt>
      <trkpt lat="47.35202" lon="-0.5252">
        <ele>65.5</ele>
      </trkpt>
      <trkpt lat="47.3513" lon="-0.52622">
        <ele>67.6</ele>
      </trkpt>
      <trkpt lat="47.3509" lon="-0.52667">
        <ele>69.5</ele>
      </trkpt>
      <trkpt lat="47.35021" lon="-0.52637">
        <ele>76.2</ele>
      </trkpt>
      <trkpt lat="47.34938" lon="-0.5257">
        <ele>79.1</ele>
      </trkpt>
      <trkpt lat="47.34908" lon="-0.52567">
        <ele>79.6</ele>
      </trkpt>
      <trkpt lat="47.34842" lon="-0.52545">
        <ele>81</ele>
      </trkpt>
      <trkpt lat="47.34819" lon="-0.52533">
        <ele>81.1</ele>
      </trkpt>
      <trkpt lat="47.34806" lon="-0.5253">
        <ele>81.1</ele>
      </trkpt>
      <trkpt lat="47.34793" lon="-0.52516">
        <ele>81</ele>
      </trkpt>
      <trkpt lat="47.34741" lon="-0.52424">
        <ele>80</ele>
      </trkpt>
      <trkpt lat="47.34691" lon="-0.52408">
        <ele>81.1</ele>
      </trkpt>
      <trkpt lat="47.34649" lon="-0.52388">
        <ele>82.6</ele>
      </trkpt>
      <trkpt lat="47.34556" lon="-0.52326">
        <ele>86</ele>
      </trkpt>
      <trkpt lat="47.34423" lon="-0.52283">
        <ele>87.1</ele>
      </trkpt>
      <trkpt lat="47.34388" lon="-0.52257">
        <ele>87.2</ele>
      </trkpt>
      <trkpt lat="47.34324" lon="-0.52133">
        <ele>83.9</ele>
      </trkpt>
      <trkpt lat="47.34306" lon="-0.52105">
        <ele>83</ele>
      </trkpt>
      <trkpt lat="47.34312" lon="-0.52091">
        <ele>83.1</ele>
        <extensions>
          <visugpx:TrkExtension xmlns:visugpx="https://www.visugpx.com/editgpx/">
            <visugpx:node>2</visugpx:node>
            </visugpx:TrkExtension>
        </extensions>
      </trkpt>
      <trkpt lat="47.34316" lon="-0.5208">
        <ele>83</ele>
      </trkpt>
      <trkpt lat="47.34327" lon="-0.52021">
        <ele>83.2</ele>
      </trkpt>
      <trkpt lat="47.34349" lon="-0.51608">
        <ele>87</ele>
      </trkpt>
      <trkpt lat="47.34347" lon="-0.5155">
        <ele>87.5</ele>
      </trkpt>
      <trkpt lat="47.34248" lon="-0.51579">
        <ele>89.1</ele>
      </trkpt>
      <trkpt lat="47.34162" lon="-0.51664">
        <ele>91</ele>
      </trkpt>
      <trkpt lat="47.34106" lon="-0.5168">
        <ele>91.2</ele>
      </trkpt>
      <trkpt lat="47.34122" lon="-0.51299">
        <ele>85.4</ele>
      </trkpt>
      <trkpt lat="47.34124" lon="-0.51142">
        <ele>79.6</ele>
      </trkpt>
      <trkpt lat="47.3412" lon="-0.51108">
        <ele>78.6</ele>
      </trkpt>
      <trkpt lat="47.34189" lon="-0.50985">
        <ele>74.1</ele>
      </trkpt>
      <trkpt lat="47.34208" lon="-0.50969">
        <ele>73.9</ele>
      </trkpt>
      <trkpt lat="47.34279" lon="-0.50959">
        <ele>74</ele>
      </trkpt>
      <trkpt lat="47.34407" lon="-0.50955">
        <ele>69.3</ele>
      </trkpt>
      <trkpt lat="47.34466" lon="-0.50959">
        <ele>68.9</ele>
      </trkpt>
      <trkpt lat="47.34495" lon="-0.50956">
        <ele>69.3</ele>
      </trkpt>
      <trkpt lat="47.34521" lon="-0.50924">
        <ele>69.2</ele>
      </trkpt>
      <trkpt lat="47.3455" lon="-0.50871">
        <ele>68</ele>
      </trkpt>
      <trkpt lat="47.34618" lon="-0.5083">
        <ele>65.7</ele>
      </trkpt>
      <trkpt lat="47.34627" lon="-0.50817">
        <ele>65.2</ele>
      </trkpt>
      <trkpt lat="47.34651" lon="-0.50801">
        <ele>64.8</ele>
      </trkpt>
      <trkpt lat="47.34716" lon="-0.50776">
        <ele>65.8</ele>
      </trkpt>
      <trkpt lat="47.34736" lon="-0.50777">
        <ele>66.5</ele>
      </trkpt>
      <trkpt lat="47.34796" lon="-0.5074">
        <ele>68</ele>
      </trkpt>
      <trkpt lat="47.34822" lon="-0.50718">
        <ele>67.8</ele>
      </trkpt>
      <trkpt lat="47.34836" lon="-0.50699">
        <ele>67.2</ele>
      </trkpt>
      <trkpt lat="47.3486" lon="-0.5063">
        <ele>66</ele>
      </trkpt>
      <trkpt lat="47.34878" lon="-0.50598">
        <ele>65.5</ele>
      </trkpt>
      <trkpt lat="47.34898" lon="-0.50582">
        <ele>65</ele>
      </trkpt>
      <trkpt lat="47.34915" lon="-0.50573">
        <ele>64.6</ele>
      </trkpt>
      <trkpt lat="47.34935" lon="-0.50554">
        <ele>63.9</ele>
      </trkpt>
      <trkpt lat="47.35032" lon="-0.50426">
        <ele>61.3</ele>
      </trkpt>
      <trkpt lat="47.35091" lon="-0.50329">
        <ele>59</ele>
      </trkpt>
      <trkpt lat="47.35103" lon="-0.50316">
        <ele>59</ele>
      </trkpt>
      <trkpt lat="47.35107" lon="-0.50308">
        <ele>59</ele>
      </trkpt>
      <trkpt lat="47.35118" lon="-0.50274">
        <ele>58</ele>
      </trkpt>
      <trkpt lat="47.35127" lon="-0.50253">
        <ele>58</ele>
      </trkpt>
      <trkpt lat="47.35135" lon="-0.50204">
        <ele>57</ele>
      </trkpt>
      <trkpt lat="47.35162" lon="-0.50227">
        <ele>57</ele>
      </trkpt>
      <trkpt lat="47.35175" lon="-0.50241">
        <ele>56.9</ele>
        <extensions>
          <visugpx:TrkExtension xmlns:visugpx="https://www.visugpx.com/editgpx/">
            <visugpx:node>3</visugpx:node>
            </visugpx:TrkExtension>
        </extensions>
      </trkpt>
      <trkpt lat="47.35162" lon="-0.50227">
        <ele>57</ele>
      </trkpt>
      <trkpt lat="47.35135" lon="-0.50204">
        <ele>57</ele>
      </trkpt>
      <trkpt lat="47.35118" lon="-0.50152">
        <ele>56.5</ele>
      </trkpt>
      <trkpt lat="47.35118" lon="-0.50066">
        <ele>54.1</ele>
      </trkpt>
      <trkpt lat="47.351" lon="-0.49937">
        <ele>50.6</ele>
      </trkpt>
      <trkpt lat="47.35096" lon="-0.49876">
        <ele>50.7</ele>
      </trkpt>
      <trkpt lat="47.3509" lon="-0.49817">
        <ele>50.4</ele>
      </trkpt>
      <trkpt lat="47.35092" lon="-0.49807">
        <ele>50.1</ele>
      </trkpt>
      <trkpt lat="47.35116" lon="-0.49784">
        <ele>47.6</ele>
      </trkpt>
      <trkpt lat="47.35119" lon="-0.49775">
        <ele>46.8</ele>
      </trkpt>
      <trkpt lat="47.35103" lon="-0.49717">
        <ele>44.2</ele>
      </trkpt>
      <trkpt lat="47.35103" lon="-0.49697">
        <ele>44</ele>
      </trkpt>
      <trkpt lat="47.35114" lon="-0.49664">
        <ele>44.9</ele>
      </trkpt>
      <trkpt lat="47.35117" lon="-0.4966">
        <ele>44.8</ele>
      </trkpt>
      <trkpt lat="47.3515" lon="-0.49616">
        <ele>46.1</ele>
      </trkpt>
      <trkpt lat="47.35159" lon="-0.49597">
        <ele>47.5</ele>
      </trkpt>
      <trkpt lat="47.35163" lon="-0.49566">
        <ele>49.6</ele>
      </trkpt>
      <trkpt lat="47.35166" lon="-0.49522">
        <ele>52.1</ele>
      </trkpt>
      <trkpt lat="47.35176" lon="-0.49474">
        <ele>54.9</ele>
      </trkpt>
      <trkpt lat="47.35196" lon="-0.49428">
        <ele>58</ele>
      </trkpt>
      <trkpt lat="47.35205" lon="-0.49404">
        <ele>57.8</ele>
        <extensions>
          <visugpx:TrkExtension xmlns:visugpx="https://www.visugpx.com/editgpx/">
            <visugpx:node>4</visugpx:node>
            </visugpx:TrkExtension>
        </extensions>
      </trkpt>
      <trkpt lat="47.35196" lon="-0.49428">
        <ele>58</ele>
      </trkpt>
      <trkpt lat="47.35211" lon="-0.49429">
        <ele>58</ele>
      </trkpt>
      <trkpt lat="47.3523" lon="-0.49424">
        <ele>57.8</ele>
      </trkpt>
      <trkpt lat="47.35253" lon="-0.49412">
        <ele>56.6</ele>
      </trkpt>
      <trkpt lat="47.35284" lon="-0.49407">
        <ele>53.6</ele>
      </trkpt>
      <trkpt lat="47.35342" lon="-0.49402">
        <ele>47.8</ele>
      </trkpt>
      <trkpt lat="47.35357" lon="-0.49404">
        <ele>46.8</ele>
      </trkpt>
      <trkpt lat="47.35378" lon="-0.49413">
        <ele>45.7</ele>
      </trkpt>
      <trkpt lat="47.35399" lon="-0.49438">
        <ele>44.8</ele>
      </trkpt>
      <trkpt lat="47.35425" lon="-0.49481">
        <ele>43.5</ele>
      </trkpt>
      <trkpt lat="47.35462" lon="-0.4953">
        <ele>43</ele>
      </trkpt>
      <trkpt lat="47.35464" lon="-0.49532">
        <ele>43</ele>
      </trkpt>
      <trkpt lat="47.35473" lon="-0.49544">
        <ele>43</ele>
      </trkpt>
      <trkpt lat="47.35504" lon="-0.49573">
        <ele>44.3</ele>
      </trkpt>
      <trkpt lat="47.3553" lon="-0.49603">
        <ele>46.2</ele>
      </trkpt>
      <trkpt lat="47.3555" lon="-0.49633">
        <ele>48.6</ele>
      </trkpt>
      <trkpt lat="47.35588" lon="-0.49706">
        <ele>54.3</ele>
      </trkpt>
      <trkpt lat="47.35635" lon="-0.49764">
        <ele>59.8</ele>
      </trkpt>
      <trkpt lat="47.35683" lon="-0.49765">
        <ele>61.1</ele>
      </trkpt>
      <trkpt lat="47.35704" lon="-0.4976">
        <ele>61.4</ele>
      </trkpt>
      <trkpt lat="47.35732" lon="-0.49733">
        <ele>59.8</ele>
      </trkpt>
      <trkpt lat="47.35812" lon="-0.49649">
        <ele>55.6</ele>
      </trkpt>
      <trkpt lat="47.35882" lon="-0.49571">
        <ele>53</ele>
      </trkpt>
      <trkpt lat="47.35891" lon="-0.49561">
        <ele>52.5</ele>
      </trkpt>
      <trkpt lat="47.35974" lon="-0.49493">
        <ele>48.7</ele>
      </trkpt>
      <trkpt lat="47.35997" lon="-0.49489">
        <ele>48.3</ele>
      </trkpt>
      <trkpt lat="47.36024" lon="-0.49474">
        <ele>47.9</ele>
      </trkpt>
      <trkpt lat="47.36071" lon="-0.49406">
        <ele>46.2</ele>
      </trkpt>
      <trkpt lat="47.36113" lon="-0.49332">
        <ele>44.2</ele>
      </trkpt>
      <trkpt lat="47.36092" lon="-0.49322">
        <ele>44.1</ele>
        <extensions>
          <visugpx:TrkExtension xmlns:visugpx="https://www.visugpx.com/editgpx/">
            <visugpx:node>5</visugpx:node>
            </visugpx:TrkExtension>
        </extensions>
      </trkpt>
      <trkpt lat="47.36113" lon="-0.49332">
        <ele>44.2</ele>
      </trkpt>
      <trkpt lat="47.36129" lon="-0.49334">
        <ele>45.3</ele>
      </trkpt>
      <trkpt lat="47.36229" lon="-0.49334">
        <ele>50.3</ele>
      </trkpt>
      <trkpt lat="47.36253" lon="-0.49338">
        <ele>51</ele>
      </trkpt>
      <trkpt lat="47.36322" lon="-0.49071">
        <ele>48.4</ele>
      </trkpt>
      <trkpt lat="47.36327" lon="-0.49034">
        <ele>47.9</ele>
      </trkpt>
      <trkpt lat="47.36328" lon="-0.4897">
        <ele>47.8</ele>
      </trkpt>
      <trkpt lat="47.36333" lon="-0.48945">
        <ele>48</ele>
      </trkpt>
      <trkpt lat="47.36385" lon="-0.48811">
        <ele>47.9</ele>
      </trkpt>
      <trkpt lat="47.36438" lon="-0.48848">
        <ele>48</ele>
      </trkpt>
      <trkpt lat="47.36527" lon="-0.48926">
        <ele>47</ele>
      </trkpt>
      <trkpt lat="47.3658" lon="-0.48977">
        <ele>45.1</ele>
      </trkpt>
      <trkpt lat="47.36659" lon="-0.49034">
        <ele>43.3</ele>
      </trkpt>
      <trkpt lat="47.36689" lon="-0.49062">
        <ele>42.2</ele>
      </trkpt>
      <trkpt lat="47.36743" lon="-0.49144">
        <ele>39.3</ele>
      </trkpt>
      <trkpt lat="47.36746" lon="-0.49147">
        <ele>39.1</ele>
        <extensions>
          <visugpx:TrkExtension xmlns:visugpx="https://www.visugpx.com/editgpx/">
            <visugpx:node>6</visugpx:node>
            </visugpx:TrkExtension>
        </extensions>
      </trkpt>
      <trkpt lat="47.36755" lon="-0.49154">
        <ele>39</ele>
      </trkpt>
      <trkpt lat="47.36832" lon="-0.49137">
        <ele>38.9</ele>
      </trkpt>
      <trkpt lat="47.36875" lon="-0.49122">
        <ele>38.4</ele>
      </trkpt>
      <trkpt lat="47.36928" lon="-0.49102">
        <ele>38.3</ele>
      </trkpt>
      <trkpt lat="47.36911" lon="-0.4901">
        <ele>37.3</ele>
      </trkpt>
      <trkpt lat="47.37001" lon="-0.4897">
        <ele>35.9</ele>
      </trkpt>
      <trkpt lat="47.3699" lon="-0.48905">
        <ele>35</ele>
      </trkpt>
      <trkpt lat="47.37015" lon="-0.48883">
        <ele>35</ele>
      </trkpt>
      <trkpt lat="47.37051" lon="-0.48836">
        <ele>34.1</ele>
      </trkpt>
      <trkpt lat="47.37071" lon="-0.48819">
        <ele>34.3</ele>
      </trkpt>
      <trkpt lat="47.37121" lon="-0.48791">
        <ele>33.7</ele>
      </trkpt>
      <trkpt lat="47.37158" lon="-0.48777">
        <ele>34</ele>
      </trkpt>
      <trkpt lat="47.37182" lon="-0.48779">
        <ele>34.5</ele>
      </trkpt>
      <trkpt lat="47.37206" lon="-0.48785">
        <ele>34.4</ele>
      </trkpt>
      <trkpt lat="47.37302" lon="-0.48822">
        <ele>32.1</ele>
      </trkpt>
      <trkpt lat="47.37296" lon="-0.48801">
        <ele>32.2</ele>
      </trkpt>
      <trkpt lat="47.37289" lon="-0.48766">
        <ele>32.2</ele>
      </trkpt>
      <trkpt lat="47.37286" lon="-0.48744">
        <ele>32.3</ele>
      </trkpt>
      <trkpt lat="47.37288" lon="-0.48684">
        <ele>31.3</ele>
      </trkpt>
      <trkpt lat="47.37294" lon="-0.48581">
        <ele>29</ele>
      </trkpt>
      <trkpt lat="47.37395" lon="-0.48531">
        <ele>26.2</ele>
      </trkpt>
      <trkpt lat="47.37404" lon="-0.4853">
        <ele>26.5</ele>
      </trkpt>
      <trkpt lat="47.37432" lon="-0.48522">
        <ele>26.9</ele>
      </trkpt>
      <trkpt lat="47.37447" lon="-0.48513">
        <ele>27.3</ele>
      </trkpt>
      <trkpt lat="47.37459" lon="-0.48499">
        <ele>28.6</ele>
      </trkpt>
      <trkpt lat="47.37505" lon="-0.48446">
        <ele>32.1</ele>
      </trkpt>
      <trkpt lat="47.37519" lon="-0.48426">
        <ele>33.6</ele>
        <extensions>
          <visugpx:TrkExtension xmlns:visugpx="https://www.visugpx.com/editgpx/">
            <visugpx:node>7</visugpx:node>
            </visugpx:TrkExtension>
        </extensions>
      </trkpt>
      <trkpt lat="47.37505" lon="-0.48446">
        <ele>32.1</ele>
      </trkpt>
      <trkpt lat="47.37643" lon="-0.48818">
        <ele>34.3</ele>
      </trkpt>
      <trkpt lat="47.37634" lon="-0.4883">
        <ele>33.7</ele>
      </trkpt>
      <trkpt lat="47.37611" lon="-0.48852">
        <ele>32.7</ele>
      </trkpt>
      <trkpt lat="47.37574" lon="-0.48874">
        <ele>30.8</ele>
      </trkpt>
      <trkpt lat="47.37498" lon="-0.48907">
        <ele>27</ele>
      </trkpt>
      <trkpt lat="47.37501" lon="-0.48928">
        <ele>27.1</ele>
      </trkpt>
      <trkpt lat="47.37503" lon="-0.48966">
        <ele>26.7</ele>
      </trkpt>
      <trkpt lat="47.37516" lon="-0.49012">
        <ele>27.1</ele>
      </trkpt>
      <trkpt lat="47.37519" lon="-0.49029">
        <ele>28.2</ele>
      </trkpt>
      <trkpt lat="47.37517" lon="-0.49052">
        <ele>30.5</ele>
      </trkpt>
      <trkpt lat="47.37511" lon="-0.49082">
        <ele>29.9</ele>
      </trkpt>
      <trkpt lat="47.3749" lon="-0.49131">
        <ele>28.8</ele>
      </trkpt>
      <trkpt lat="47.37469" lon="-0.49166">
        <ele>26.7</ele>
      </trkpt>
      <trkpt lat="47.37455" lon="-0.49196">
        <ele>27.4</ele>
      </trkpt>
      <trkpt lat="47.37447" lon="-0.49223">
        <ele>26.8</ele>
      </trkpt>
      <trkpt lat="47.37392" lon="-0.4933">
        <ele>26.2</ele>
      </trkpt>
      <trkpt lat="47.37371" lon="-0.49385">
        <ele>30.6</ele>
      </trkpt>
      <trkpt lat="47.37354" lon="-0.49454">
        <ele>28.4</ele>
      </trkpt>
      <trkpt lat="47.37346" lon="-0.49496">
        <ele>26.6</ele>
      </trkpt>
      <trkpt lat="47.37338" lon="-0.49529">
        <ele>26.7</ele>
      </trkpt>
      <trkpt lat="47.3733" lon="-0.49603">
        <ele>28.4</ele>
      </trkpt>
      <trkpt lat="47.37325" lon="-0.49658">
        <ele>26.9</ele>
      </trkpt>
      <trkpt lat="47.37328" lon="-0.49711">
        <ele>26.1</ele>
      </trkpt>
      <trkpt lat="47.37325" lon="-0.49718">
        <ele>26.3</ele>
      </trkpt>
      <trkpt lat="47.37332" lon="-0.49726">
        <ele>25.9</ele>
      </trkpt>
      <trkpt lat="47.37336" lon="-0.49734">
        <ele>26.1</ele>
      </trkpt>
      <trkpt lat="47.37366" lon="-0.49813">
        <ele>26.3</ele>
      </trkpt>
      <trkpt lat="47.37376" lon="-0.49833">
        <ele>26.1</ele>
      </trkpt>
      <trkpt lat="47.37394" lon="-0.49856">
        <ele>26.6</ele>
      </trkpt>
      <trkpt lat="47.3741" lon="-0.49873">
        <ele>26.8</ele>
      </trkpt>
      <trkpt lat="47.37427" lon="-0.49889">
        <ele>27.1</ele>
        <extensions>
          <visugpx:TrkExtension xmlns:visugpx="https://www.visugpx.com/editgpx/">
            <visugpx:node>8</visugpx:node>
            </visugpx:TrkExtension>
        </extensions>
      </trkpt>
      <trkpt lat="47.3741" lon="-0.49873">
        <ele>26.8</ele>
      </trkpt>
      <trkpt lat="47.37414" lon="-0.49868">
        <ele>27.3</ele>
      </trkpt>
      <trkpt lat="47.37451" lon="-0.49847">
        <ele>31.4</ele>
      </trkpt>
      <trkpt lat="47.37493" lon="-0.49837">
        <ele>33.5</ele>
      </trkpt>
      <trkpt lat="47.37553" lon="-0.49813">
        <ele>35.9</ele>
      </trkpt>
      <trkpt lat="47.37561" lon="-0.49809">
        <ele>36</ele>
      </trkpt>
      <trkpt lat="47.37694" lon="-0.49759">
        <ele>39</ele>
      </trkpt>
      <trkpt lat="47.37834" lon="-0.49712">
        <ele>39</ele>
      </trkpt>
      <trkpt lat="47.37933" lon="-0.49678">
        <ele>40</ele>
      </trkpt>
      <trkpt lat="47.3795" lon="-0.49675">
        <ele>39.9</ele>
      </trkpt>
      <trkpt lat="47.3798" lon="-0.49674">
        <ele>39.8</ele>
      </trkpt>
      <trkpt lat="47.38014" lon="-0.49668">
        <ele>40.5</ele>
      </trkpt>
      <trkpt lat="47.38017" lon="-0.49706">
        <ele>40.4</ele>
      </trkpt>
      <trkpt lat="47.38018" lon="-0.49709">
        <ele>40.3</ele>
        <extensions>
          <visugpx:TrkExtension xmlns:visugpx="https://www.visugpx.com/editgpx/">
            <visugpx:node>9</visugpx:node>
            </visugpx:TrkExtension>
        </extensions>
      </trkpt>
      <trkpt lat="47.38023" lon="-0.49733">
        <ele>39.9</ele>
      </trkpt>
      <trkpt lat="47.38043" lon="-0.49798">
        <ele>40.2</ele>
      </trkpt>
      <trkpt lat="47.38049" lon="-0.49835">
        <ele>40.5</ele>
      </trkpt>
      <trkpt lat="47.38112" lon="-0.4982">
        <ele>42.5</ele>
      </trkpt>
      <trkpt lat="47.38127" lon="-0.49835">
        <ele>42.6</ele>
      </trkpt>
      <trkpt lat="47.3813" lon="-0.49974">
        <ele>42.1</ele>
      </trkpt>
      <trkpt lat="47.38152" lon="-0.49988">
        <ele>42.8</ele>
      </trkpt>
      <trkpt lat="47.38143" lon="-0.50112">
        <ele>44.2</ele>
      </trkpt>
      <trkpt lat="47.38318" lon="-0.50137">
        <ele>47.9</ele>
      </trkpt>
      <trkpt lat="47.38325" lon="-0.50141">
        <ele>48.4</ele>
      </trkpt>
      <trkpt lat="47.38329" lon="-0.50148">
        <ele>48.7</ele>
      </trkpt>
      <trkpt lat="47.38341" lon="-0.5014">
        <ele>49.3</ele>
        <extensions>
          <visugpx:TrkExtension xmlns:visugpx="https://www.visugpx.com/editgpx/">
            <visugpx:node>10</visugpx:node>
            </visugpx:TrkExtension>
        </extensions>
      </trkpt>
      <trkpt lat="47.38341" lon="-0.50139">
        <ele>49.3</ele>
      </trkpt>
      <trkpt lat="47.38329" lon="-0.50148">
        <ele>48.7</ele>
      </trkpt>
      <trkpt lat="47.38332" lon="-0.50166">
        <ele>49</ele>
      </trkpt>
      <trkpt lat="47.38331" lon="-0.50236">
        <ele>49</ele>
      </trkpt>
      <trkpt lat="47.38337" lon="-0.50374">
        <ele>50.1</ele>
      </trkpt>
      <trkpt lat="47.38342" lon="-0.504">
        <ele>50.3</ele>
      </trkpt>
      <trkpt lat="47.38382" lon="-0.50545">
        <ele>50.3</ele>
      </trkpt>
      <trkpt lat="47.38386" lon="-0.50563">
        <ele>50</ele>
      </trkpt>
      <trkpt lat="47.38365" lon="-0.5061">
        <ele>50.1</ele>
      </trkpt>
      <trkpt lat="47.38358" lon="-0.50621">
        <ele>49.9</ele>
      </trkpt>
      <trkpt lat="47.38327" lon="-0.50643">
        <ele>49</ele>
      </trkpt>
      <trkpt lat="47.38313" lon="-0.5065">
        <ele>48.7</ele>
      </trkpt>
      <trkpt lat="47.38299" lon="-0.50646">
        <ele>48.3</ele>
      </trkpt>
      <trkpt lat="47.38254" lon="-0.50624">
        <ele>47.2</ele>
      </trkpt>
      <trkpt lat="47.38236" lon="-0.50621">
        <ele>46.5</ele>
      </trkpt>
      <trkpt lat="47.38204" lon="-0.50623">
        <ele>45.7</ele>
      </trkpt>
      <trkpt lat="47.38102" lon="-0.5064">
        <ele>42.7</ele>
      </trkpt>
      <trkpt lat="47.38082" lon="-0.50656">
        <ele>42</ele>
      </trkpt>
      <trkpt lat="47.38061" lon="-0.50685">
        <ele>41.5</ele>
      </trkpt>
      <trkpt lat="47.38056" lon="-0.50687">
        <ele>41.3</ele>
        <extensions>
          <visugpx:TrkExtension xmlns:visugpx="https://www.visugpx.com/editgpx/">
            <visugpx:node>11</visugpx:node>
            </visugpx:TrkExtension>
        </extensions>
      </trkpt>
      <trkpt lat="47.38076" lon="-0.50758">
        <ele>40.7</ele>
      </trkpt>
      <trkpt lat="47.3807" lon="-0.50859">
        <ele>41</ele>
      </trkpt>
      <trkpt lat="47.38041" lon="-0.51071">
        <ele>56.7</ele>
      </trkpt>
      <trkpt lat="47.38082" lon="-0.51124">
        <ele>58.5</ele>
      </trkpt>
      <trkpt lat="47.38092" lon="-0.51203">
        <ele>59.7</ele>
        <extensions>
          <visugpx:TrkExtension xmlns:visugpx="https://www.visugpx.com/editgpx/">
            <visugpx:node>12</visugpx:node>
            </visugpx:TrkExtension>
        </extensions>
      </trkpt>
      <trkpt lat="47.38025" lon="-0.51203">
        <ele>59.5</ele>
      </trkpt>
      <trkpt lat="47.3797" lon="-0.51201">
        <ele>55.7</ele>
      </trkpt>
      <trkpt lat="47.3792" lon="-0.51212">
        <ele>53.6</ele>
      </trkpt>
      <trkpt lat="47.37876" lon="-0.51238">
        <ele>48.5</ele>
      </trkpt>
      <trkpt lat="47.37745" lon="-0.51335">
        <ele>47.2</ele>
      </trkpt>
      <trkpt lat="47.37675" lon="-0.51394">
        <ele>47.9</ele>
      </trkpt>
      <trkpt lat="47.37498" lon="-0.51495">
        <ele>25</ele>
      </trkpt>
      <trkpt lat="47.37495" lon="-0.51485">
        <ele>25.1</ele>
        <extensions>
          <visugpx:TrkExtension xmlns:visugpx="https://www.visugpx.com/editgpx/">
            <visugpx:node>13</visugpx:node>
            </visugpx:TrkExtension>
        </extensions>
      </trkpt>
      <trkpt lat="47.37498" lon="-0.51495">
        <ele>25</ele>
      </trkpt>
      <trkpt lat="47.37527" lon="-0.51506">
        <ele>27.5</ele>
      </trkpt>
      <trkpt lat="47.37526" lon="-0.51514">
        <ele>26.8</ele>
      </trkpt>
      <trkpt lat="47.37541" lon="-0.51604">
        <ele>27.5</ele>
      </trkpt>
      <trkpt lat="47.37577" lon="-0.51738">
        <ele>23.9</ele>
      </trkpt>
      <trkpt lat="47.37592" lon="-0.5177">
        <ele>22.8</ele>
      </trkpt>
      <trkpt lat="47.3759" lon="-0.51783">
        <ele>21.6</ele>
        <extensions>
          <visugpx:TrkExtension xmlns:visugpx="https://www.visugpx.com/editgpx/">
            <visugpx:node>14</visugpx:node>
            </visugpx:TrkExtension>
        </extensions>
      </trkpt>
      <trkpt lat="47.37589" lon="-0.51799">
        <ele>21.3</ele>
      </trkpt>
      <trkpt lat="47.37547" lon="-0.51855">
        <ele>20.9</ele>
      </trkpt>
      <trkpt lat="47.37529" lon="-0.51875">
        <ele>22.9</ele>
      </trkpt>
      <trkpt lat="47.37515" lon="-0.51885">
        <ele>23</ele>
      </trkpt>
      <trkpt lat="47.3751" lon="-0.51895">
        <ele>23.1</ele>
      </trkpt>
      <trkpt lat="47.37478" lon="-0.51926">
        <ele>24.3</ele>
      </trkpt>
      <trkpt lat="47.37473" lon="-0.51933">
        <ele>24.6</ele>
      </trkpt>
      <trkpt lat="47.37469" lon="-0.51948">
        <ele>25.2</ele>
      </trkpt>
      <trkpt lat="47.37471" lon="-0.51973">
        <ele>26.1</ele>
      </trkpt>
      <trkpt lat="47.37468" lon="-0.51995">
        <ele>27.5</ele>
      </trkpt>
      <trkpt lat="47.37447" lon="-0.52071">
        <ele>28.9</ele>
      </trkpt>
      <trkpt lat="47.37434" lon="-0.52131">
        <ele>28.3</ele>
      </trkpt>
      <trkpt lat="47.37434" lon="-0.52141">
        <ele>28</ele>
        <extensions>
          <visugpx:TrkExtension xmlns:visugpx="https://www.visugpx.com/editgpx/">
            <visugpx:node>15</visugpx:node>
            </visugpx:TrkExtension>
        </extensions>
      </trkpt>
      <trkpt lat="47.37434" lon="-0.52152">
        <ele>27.5</ele>
      </trkpt>
      <trkpt lat="47.37439" lon="-0.52165">
        <ele>26.5</ele>
      </trkpt>
      <trkpt lat="47.37451" lon="-0.52189">
        <ele>27.9</ele>
      </trkpt>
      <trkpt lat="47.37479" lon="-0.52208">
        <ele>30.2</ele>
      </trkpt>
      <trkpt lat="47.37493" lon="-0.52215">
        <ele>32</ele>
      </trkpt>
      <trkpt lat="47.37548" lon="-0.52219">
        <ele>36.5</ele>
      </trkpt>
      <trkpt lat="47.37569" lon="-0.52223">
        <ele>38.5</ele>
      </trkpt>
      <trkpt lat="47.37631" lon="-0.52257">
        <ele>42.6</ele>
      </trkpt>
      <trkpt lat="47.37654" lon="-0.52259">
        <ele>43.4</ele>
      </trkpt>
      <trkpt lat="47.37729" lon="-0.52246">
        <ele>43.1</ele>
      </trkpt>
      <trkpt lat="47.37733" lon="-0.52258">
        <ele>43.7</ele>
      </trkpt>
      <trkpt lat="47.3774" lon="-0.52256">
        <ele>43.9</ele>
      </trkpt>
      <trkpt lat="47.37776" lon="-0.52258">
        <ele>44.3</ele>
      </trkpt>
      <trkpt lat="47.37786" lon="-0.52252">
        <ele>44.3</ele>
      </trkpt>
      <trkpt lat="47.37789" lon="-0.52249">
        <ele>44.4</ele>
        <extensions>
          <visugpx:TrkExtension xmlns:visugpx="https://www.visugpx.com/editgpx/">
            <visugpx:node>16</visugpx:node>
            </visugpx:TrkExtension>
        </extensions>
      </trkpt>
      <trkpt lat="47.37786" lon="-0.52252">
        <ele>44.3</ele>
      </trkpt>
      <trkpt lat="47.37788" lon="-0.52258">
        <ele>44.6</ele>
      </trkpt>
      <trkpt lat="47.378" lon="-0.52312">
        <ele>45.2</ele>
      </trkpt>
      <trkpt lat="47.37828" lon="-0.52314">
        <ele>44.8</ele>
      </trkpt>
      <trkpt lat="47.37839" lon="-0.52318">
        <ele>44.4</ele>
      </trkpt>
      <trkpt lat="47.37844" lon="-0.52315">
        <ele>44.4</ele>
      </trkpt>
      <trkpt lat="47.37845" lon="-0.52314">
        <ele>44.4</ele>
        <extensions>
          <visugpx:TrkExtension xmlns:visugpx="https://www.visugpx.com/editgpx/">
            <visugpx:node>17</visugpx:node>
            </visugpx:TrkExtension>
        </extensions>
      </trkpt>
      <trkpt lat="47.37844" lon="-0.52315">
        <ele>44.4</ele>
      </trkpt>
      <trkpt lat="47.37839" lon="-0.52318">
        <ele>44.4</ele>
      </trkpt>
      <trkpt lat="47.37829" lon="-0.52341">
        <ele>44.2</ele>
      </trkpt>
      <trkpt lat="47.3779" lon="-0.52382">
        <ele>45.6</ele>
      </trkpt>
      <trkpt lat="47.37745" lon="-0.52417">
        <ele>46.2</ele>
      </trkpt>
      <trkpt lat="47.37755" lon="-0.52481">
        <ele>44.6</ele>
      </trkpt>
      <trkpt lat="47.37759" lon="-0.52478">
        <ele>44.5</ele>
        <extensions>
          <visugpx:TrkExtension xmlns:visugpx="https://www.visugpx.com/editgpx/">
            <visugpx:node>18</visugpx:node>
            </visugpx:TrkExtension>
        </extensions>
      </trkpt>
      <trkpt lat="47.37755" lon="-0.52481">
        <ele>44.6</ele>
      </trkpt>
      <trkpt lat="47.3772" lon="-0.52505">
        <ele>45</ele>
      </trkpt>
      <trkpt lat="47.37645" lon="-0.52543">
        <ele>44.6</ele>
      </trkpt>
      <trkpt lat="47.37646" lon="-0.52633">
        <ele>44.3</ele>
      </trkpt>
      <trkpt lat="47.37647" lon="-0.52801">
        <ele>47.8</ele>
        <extensions>
          <visugpx:TrkExtension xmlns:visugpx="https://www.visugpx.com/editgpx/">
            <visugpx:node>19</visugpx:node>
            </visugpx:TrkExtension>
        </extensions>
      </trkpt>
      <trkpt lat="47.37647" lon="-0.52809">
        <ele>48.1</ele>
      </trkpt>
      <trkpt lat="47.3763" lon="-0.52839">
        <ele>49.5</ele>
      </trkpt>
      <trkpt lat="47.37568" lon="-0.52922">
        <ele>52.6</ele>
      </trkpt>
      <trkpt lat="47.37556" lon="-0.52932">
        <ele>53</ele>
      </trkpt>
      <trkpt lat="47.3753" lon="-0.52945">
        <ele>53.9</ele>
      </trkpt>
      <trkpt lat="47.37488" lon="-0.52974">
        <ele>55.1</ele>
      </trkpt>
      <trkpt lat="47.3747" lon="-0.52991">
        <ele>55.7</ele>
      </trkpt>
      <trkpt lat="47.37464" lon="-0.53001">
        <ele>56</ele>
      </trkpt>
      <trkpt lat="47.37453" lon="-0.53021">
        <ele>56.8</ele>
      </trkpt>
      <trkpt lat="47.37444" lon="-0.53049">
        <ele>57.8</ele>
      </trkpt>
      <trkpt lat="47.37422" lon="-0.53127">
        <ele>59.9</ele>
      </trkpt>
      <trkpt lat="47.37394" lon="-0.53199">
        <ele>62</ele>
      </trkpt>
      <trkpt lat="47.37357" lon="-0.53271">
        <ele>60</ele>
      </trkpt>
      <trkpt lat="47.37331" lon="-0.53308">
        <ele>60</ele>
      </trkpt>
      <trkpt lat="47.37297" lon="-0.53347">
        <ele>60</ele>
      </trkpt>
      <trkpt lat="47.37281" lon="-0.53362">
        <ele>60</ele>
      </trkpt>
      <trkpt lat="47.37232" lon="-0.53385">
        <ele>61.6</ele>
      </trkpt>
      <trkpt lat="47.37193" lon="-0.53398">
        <ele>62.1</ele>
      </trkpt>
      <trkpt lat="47.3714" lon="-0.53404">
        <ele>63</ele>
      </trkpt>
      <trkpt lat="47.37108" lon="-0.53403">
        <ele>64</ele>
      </trkpt>
      <trkpt lat="47.37092" lon="-0.53409">
        <ele>64</ele>
        <extensions>
          <visugpx:TrkExtension xmlns:visugpx="https://www.visugpx.com/editgpx/">
            <visugpx:node>20</visugpx:node>
            </visugpx:TrkExtension>
        </extensions>
      </trkpt>
      <trkpt lat="47.37108" lon="-0.53403">
        <ele>64</ele>
      </trkpt>
      <trkpt lat="47.3707" lon="-0.53309">
        <ele>63.5</ele>
      </trkpt>
      <trkpt lat="47.37015" lon="-0.532">
        <ele>61.2</ele>
      </trkpt>
      <trkpt lat="47.36995" lon="-0.53171">
        <ele>60.2</ele>
      </trkpt>
      <trkpt lat="47.36947" lon="-0.53168">
        <ele>59.2</ele>
      </trkpt>
      <trkpt lat="47.36904" lon="-0.53172">
        <ele>58.4</ele>
      </trkpt>
      <trkpt lat="47.36877" lon="-0.53168">
        <ele>58.5</ele>
      </trkpt>
      <trkpt lat="47.36805" lon="-0.5314">
        <ele>58</ele>
      </trkpt>
      <trkpt lat="47.36793" lon="-0.53131">
        <ele>57.6</ele>
      </trkpt>
      <trkpt lat="47.36785" lon="-0.53118">
        <ele>57.1</ele>
      </trkpt>
      <trkpt lat="47.36762" lon="-0.52985">
        <ele>58.6</ele>
      </trkpt>
      <trkpt lat="47.36738" lon="-0.52878">
        <ele>60.1</ele>
      </trkpt>
      <trkpt lat="47.36739" lon="-0.5285">
        <ele>60.6</ele>
      </trkpt>
      <trkpt lat="47.36736" lon="-0.52826">
        <ele>61.1</ele>
      </trkpt>
      <trkpt lat="47.3673" lon="-0.52797">
        <ele>61.6</ele>
      </trkpt>
      <trkpt lat="47.36715" lon="-0.52749">
        <ele>62.3</ele>
      </trkpt>
      <trkpt lat="47.36703" lon="-0.52716">
        <ele>62.6</ele>
      </trkpt>
      <trkpt lat="47.36696" lon="-0.52701">
        <ele>62.9</ele>
      </trkpt>
      <trkpt lat="47.36681" lon="-0.5267">
        <ele>64.4</ele>
      </trkpt>
      <trkpt lat="47.3665" lon="-0.5262">
        <ele>64.2</ele>
      </trkpt>
      <trkpt lat="47.36646" lon="-0.52606">
        <ele>64</ele>
      </trkpt>
      <trkpt lat="47.36646" lon="-0.526">
        <ele>64</ele>
      </trkpt>
      <trkpt lat="47.36605" lon="-0.52576">
        <ele>63.8</ele>
      </trkpt>
      <trkpt lat="47.36526" lon="-0.52534">
        <ele>60.1</ele>
      </trkpt>
      <trkpt lat="47.36512" lon="-0.52531">
        <ele>59.5</ele>
      </trkpt>
      <trkpt lat="47.36508" lon="-0.52524">
        <ele>59.2</ele>
      </trkpt>
      <trkpt lat="47.36503" lon="-0.52526">
        <ele>59</ele>
      </trkpt>
      <trkpt lat="47.36495" lon="-0.52518">
        <ele>58.5</ele>
      </trkpt>
      <trkpt lat="47.36484" lon="-0.52511">
        <ele>57.8</ele>
      </trkpt>
      <trkpt lat="47.36463" lon="-0.52499">
        <ele>56.7</ele>
      </trkpt>
      <trkpt lat="47.3646" lon="-0.52496">
        <ele>56.6</ele>
        <extensions>
          <visugpx:TrkExtension xmlns:visugpx="https://www.visugpx.com/editgpx/">
            <visugpx:node>21</visugpx:node>
            </visugpx:TrkExtension>
        </extensions>
      </trkpt>
      <trkpt lat="47.36449" lon="-0.52485">
        <ele>56.2</ele>
      </trkpt>
      <trkpt lat="47.36416" lon="-0.52476">
        <ele>54.8</ele>
      </trkpt>
    </trkseg>
  </trk>
</gpx>